[[{"header":{"parameterUnit":"m.s-1","parameterCategory":1,"la1":31.0,"la2":29.5877,"lo1":-88.7671,"lo2":-86.6584,"dy":0.0162,"dx":0.0185,"nx":115,"ny":88,"refTime":"2023-04-19T12:00:00:Z","depth":0,"parameterNumber":2,"parameterNumberName":"U-component_of_WINDS"},"data":[0.0,0.0,0.0,0.0,0.0,0.0,0.0,0.0,0.0,0.0,0.0,0.0,0.0,0.0,0.0,0.0,0.0,0.0,0.0,0.0,0.0,0.0,0.0,0.0,0.0,0.0,0.0,0.0,0.0,0.0,0.0,0.0,0.0,0.0,0.0,0.0,0.0,0.0,0.0,0.0,0.0,0.0,0.0,0.0,0.0,0.0,0.0,0.0,0.0,0.0,0.0,0.0,0.0,0.0,0.0,0.0,0.0,0.0,0.0,0.0,0.0,0.0,0.0,0.0,0.0,0.0,0.0,0.0,0.0,0.0,0.0,0.0,0.0,0.0,0.0,0.0,0.0,0.0,0.0,0.0,0.0,0.0,0.0,0.0,0.0,0.0,0.0,0.0,0.0,0.0,0.0,0.0,0.0,0.0,0.0,0.0,0.0,0.0,0.0,0.0,0.0,0.0,0.0,0.0,0.0,0.0,0.0,0.0,0.0,0.0,0.0,0.0,0.0,0.0,0.0,0.0,0.0,0.0,0.0,0.0,0.0,0.0,0.0,0.0,0.0,0.0,0.0,0.0,0.0,0.0,0.0,0.0,0.0,0.0,0.0,0.0,0.0,0.0,0.0,0.0,0.0,0.0,0.0,0.0,0.0,0.0,0.0,0.0,0.0,0.0,0.0,0.0,0.0,0.0,0.0,0.0,0.0,0.0,0.0,0.0,0.0,0.0,0.0,0.0,0.0,0.0,0.0,0.0,0.0,0.0,0.0,0.0,0.0,0.0,0.0,0.0,0.0,0.0,0.0,0.0,0.0,0.0,0.0,0.0,0.0,0.0,0.0,0.0,0.0,0.0,0.0,0.0,0.0,0.0,0.0,0.0,0.0,0.0,0.0,0.0,0.0,0.0,0.0,0.0,0.0,0.0,0.0,0.0,0.0,0.0,0.0,0.0,0.0,0.0,0.0,0.0,0.0,0.0,0.0,0.0,0.0,0.0,0.0,0.0,0.0,0.0,0.0,0.0,0.0,0.0,0.0,0.0,0.0,0.0,0.0,0.0,0.0,0.0,0.0,0.0,0.0,0.0,0.0,0.0,0.0,0.0,0.0,0.0,0.0,0.0,0.0,0.0,0.0,0.0,0.0,0.0,0.0,0.0,0.0,0.0,0.0,0.0,0.0,0.0,0.0,0.0,0.0,0.0,0.0,0.0,0.0,0.0,0.0,0.0,0.0,0.0,0.0,0.0,0.0,0.0,0.0,0.0,0.0,0.0,0.0,0.0,0.0,0.0,0.0,0.0,0.0,0.0,0.0,0.0,0.0,0.0,0.0,0.0,0.0,0.0,0.0,0.0,0.0,0.0,0.0,0.0,0.0,0.0,0.0,0.0,0.0,0.0,0.0,0.0,0.0,0.0,0.0,0.0,0.0,0.0,0.0,0.0,0.0,0.0,0.0,0.0,0.0,0.0,0.0,0.0,0.0,0.0,0.0,0.0,0.0,0.0,0.0,0.0,0.0,0.0,0.0,0.0,0.0,0.0,0.0,0.0,0.0,0.0,0.0,0.0,0.0,0.0,0.0,0.0,0.0,0.0,0.0,0.0,0.0,0.0,0.0,0.0,0.0,0.0,0.0,0.0,0.0,0.0,0.0,0.0,0.0,0.0,0.0,0.0,0.0,0.0,0.0,0.0,0.0,0.0,0.0,0.0,0.0,0.0,0.0,0.0,0.0,0.0,0.0,0.0,0.0,0.0,0.0,0.0,0.0,0.0,0.0,0.0,0.0,0.0,0.0,0.0,0.0,0.0,0.0,0.0,0.0,0.0,0.0,0.0,0.0,0.0,0.0,0.0,0.0,0.0,0.0,0.0,0.0,0.0,0.0,0.0,0.0,0.0,0.0,0.0,0.0,0.0,0.0,0.0,0.0,0.0,0.0,0.0,0.0,0.0,0.0,0.0,0.0,0.0,0.0,0.0,0.0,0.0,0.0,0.0,0.0,0.0,0.0,0.0,0.0,0.0,0.0,0.0,0.0,0.0,0.0,0.0,0.0,0.0,0.0,0.0,0.0,0.0,0.0,0.0,0.0,0.0,0.0,0.0,0.0,0.0,0.0,0.0,0.0,0.0,0.0,0.0,0.0,0.0,0.0,0.0,0.0,0.0,0.0,0.0,0.0,0.0,0.0,0.0,0.0,0.0,0.0,0.0,0.0,0.0,0.0,0.0,0.0,0.0,0.0,0.0,0.0,0.0,0.0,0.0,0.0,0.0,0.0,0.0,0.0,0.0,0.0,0.0,0.0,0.0,0.0,0.0,0.0,0.0,0.0,0.0,0.0,0.0,0.0,0.0,0.0,0.0,0.0,0.0,0.0,0.0,0.0,0.0,0.0,0.0,0.0,0.0,0.0,0.0,0.0,0.0,0.0,0.0,0.0,0.0,0.0,0.0,0.0,0.0,0.0,0.0,0.0,0.0,0.0,0.0,0.0,0.0,0.0,0.0,0.0,0.0,0.0,0.0,0.0,0.0,0.0,0.0,0.0,0.0,0.0,0.0,0.0,0.0,0.0,0.0,0.0,0.0,0.0,0.0,0.0,0.0,0.0,0.0,0.0,0.0,0.0,0.0,0.0,0.0,0.0,0.0,0.0,0.0,0.0,0.0,0.0,0.0,0.0,0.0,0.0,0.0,0.0,0.0,0.0,0.0,0.0,0.0,0.0,0.0,0.0,0.0,0.0,0.0,0.0,0.0,0.0,0.0,0.0,0.0,0.0,0.0,0.0,0.0,0.0,0.0,0.0,0.0,0.0,0.0,0.0,0.0,0.0,0.0,0.0,0.0,0.0,0.0,0.0,0.0,0.0,0.0,0.0,0.0,0.0,0.0,0.0,0.0,0.0,0.0,0.0,0.0,0.0,0.0,0.0,0.0,0.0,0.0,0.0,0.0,0.0,0.0,0.0,0.0,0.0,0.0,0.0,0.0,0.0,0.0,0.0,0.0,0.0,0.0,0.0,0.0,0.0,0.0,0.0,0.0,0.0,0.0,0.0,0.0,0.0,0.0,0.0,0.0,0.0,0.0,0.0,0.0,0.0,0.0,0.0,0.0,0.0,0.0,0.0,0.0,0.0,0.0,0.0,0.0,0.0,0.0,0.0,0.0,0.0,0.0,0.0,0.0,0.0,0.0,0.0,0.0,0.0,0.0,0.0,0.0,0.0,0.0,0.0,0.0,0.0,0.0,0.0,0.0,0.0,0.0,0.0,0.0,0.0,0.0,0.0,0.0,0.0,0.0,0.0,0.0,0.0,0.0,0.0,0.0,0.0,0.0,0.0,0.0,0.0,0.0,0.0,0.0,0.0,0.0,0.0,0.0,0.0,0.0,0.0,0.0,0.0,0.0,0.0,0.0,0.0,0.0,0.0,0.0,0.0,0.0,0.0,0.0,0.0,0.0,0.0,0.0,0.0,0.0,0.0,0.0,0.0,0.0,0.0,0.0,0.0,0.0,0.0,0.0,0.0,0.0,0.0,0.0,0.0,0.0,0.0,0.0,0.0,0.0,0.0,0.0,0.0,0.0,0.0,0.0,0.0,0.0,0.0,0.0,0.0,0.0,0.0,0.0,0.0,0.0,0.0,0.0,0.0,0.0,0.0,0.0,0.0,0.0,0.0,0.0,0.0,0.0,0.0,0.0,0.0,0.0,0.0,0.0,0.0,0.0,0.0,0.0,0.0,0.0,0.0,0.0,0.0,0.0,0.0,0.0,0.0,0.0,0.0,0.0,0.0,0.0,0.0,0.0,0.0,0.0,0.0,0.0,0.0,0.0,0.0,0.0,0.0,0.0,0.0,0.0,0.0,0.0,0.0,0.0,0.0,0.0,0.0,0.0,0.0,0.0,0.0,0.0,0.0,0.0,0.0,0.0,0.0,0.0,0.0,0.0,0.0,0.0,0.0,0.0,0.0,0.0,0.0,0.0,0.0,0.0,0.0,0.0,0.0,0.0,0.0,0.0,0.0,0.0,0.0,0.0,0.0,0.0,0.0,0.0,0.0,0.0,0.0,0.0,0.0,0.0,0.0,0.0,0.0,0.0,0.0,0.0,0.0,0.0,0.0,0.0,0.0,0.0,0.0,0.0,0.0,0.0,0.0,0.0,0.0,0.0,0.0,0.0,0.0,0.0,0.0,0.0,0.0,0.0,0.0,0.0,0.0,0.0,0.0,0.0,0.0,0.0,0.0,0.0,0.0,0.0,0.0,0.0,0.0,0.0,0.0,0.0,0.0,0.0,0.0,0.0,0.0,0.0,-4.8428,0.0,0.0,0.0,0.0,0.0,0.0,0.0,0.0,0.0,0.0,0.0,0.0,0.0,0.0,0.0,0.0,0.0,0.0,0.0,0.0,0.0,0.0,0.0,0.0,0.0,0.0,0.0,0.0,0.0,0.0,0.0,0.0,0.0,0.0,0.0,0.0,0.0,0.0,0.0,0.0,0.0,0.0,0.0,0.0,0.0,0.0,0.0,0.0,0.0,0.0,0.0,0.0,0.0,0.0,0.0,0.0,0.0,0.0,0.0,0.0,0.0,0.0,0.0,0.0,0.0,0.0,0.0,0.0,0.0,0.0,0.0,0.0,0.0,0.0,0.0,0.0,0.0,0.0,0.0,0.0,0.0,0.0,0.0,0.0,0.0,0.0,0.0,0.0,0.0,0.0,0.0,0.0,0.0,0.0,0.0,0.0,0.0,0.0,0.0,0.0,0.0,0.0,0.0,0.0,0.0,0.0,0.0,0.0,0.0,0.0,-4.9848,-4.983,-4.9759,-4.9485,-4.8957,0.0,0.0,0.0,0.0,0.0,0.0,0.0,0.0,0.0,0.0,0.0,0.0,0.0,0.0,0.0,0.0,0.0,0.0,0.0,0.0,0.0,0.0,0.0,0.0,0.0,0.0,0.0,0.0,0.0,0.0,0.0,0.0,0.0,0.0,0.0,0.0,0.0,0.0,0.0,0.0,0.0,0.0,0.0,0.0,0.0,0.0,0.0,0.0,0.0,0.0,0.0,0.0,0.0,0.0,0.0,0.0,0.0,0.0,0.0,0.0,0.0,0.0,0.0,0.0,0.0,0.0,0.0,0.0,0.0,0.0,0.0,0.0,0.0,0.0,0.0,0.0,0.0,0.0,0.0,0.0,0.0,0.0,0.0,0.0,0.0,0.0,0.0,0.0,0.0,0.0,0.0,0.0,0.0,0.0,0.0,0.0,0.0,0.0,0.0,0.0,0.0,0.0,0.0,0.0,0.0,0.0,0.0,0.0,0.0,0.0,0.0,0.0,-4.9604,-4.937,-4.8987,0.0,0.0,0.0,0.0,0.0,0.0,0.0,0.0,0.0,0.0,0.0,0.0,0.0,0.0,0.0,0.0,0.0,0.0,0.0,0.0,0.0,0.0,0.0,0.0,0.0,0.0,0.0,0.0,0.0,0.0,0.0,0.0,0.0,0.0,0.0,0.0,0.0,0.0,0.0,0.0,0.0,0.0,0.0,0.0,0.0,0.0,0.0,0.0,0.0,0.0,0.0,0.0,0.0,0.0,0.0,0.0,0.0,0.0,0.0,0.0,0.0,0.0,0.0,0.0,0.0,0.0,0.0,0.0,0.0,0.0,0.0,0.0,0.0,0.0,0.0,0.0,0.0,0.0,0.0,0.0,0.0,0.0,0.0,0.0,0.0,0.0,0.0,0.0,0.0,0.0,0.0,0.0,0.0,0.0,0.0,0.0,0.0,0.0,0.0,0.0,0.0,0.0,0.0,0.0,0.0,0.0,0.0,0.0,0.0,0.0,-4.9711,-4.9692,-4.9506,0.0,-4.7862,0.0,0.0,0.0,0.0,0.0,0.0,0.0,0.0,0.0,0.0,0.0,0.0,0.0,0.0,0.0,0.0,0.0,0.0,0.0,0.0,0.0,0.0,0.0,0.0,0.0,0.0,0.0,0.0,0.0,0.0,0.0,0.0,0.0,0.0,0.0,0.0,0.0,0.0,0.0,0.0,0.0,0.0,0.0,0.0,0.0,0.0,0.0,0.0,0.0,0.0,0.0,0.0,0.0,0.0,0.0,0.0,0.0,0.0,0.0,0.0,0.0,0.0,0.0,0.0,0.0,0.0,0.0,0.0,0.0,0.0,0.0,0.0,0.0,0.0,0.0,0.0,0.0,0.0,0.0,0.0,0.0,0.0,0.0,0.0,0.0,0.0,0.0,0.0,0.0,0.0,0.0,0.0,0.0,0.0,0.0,0.0,0.0,0.0,0.0,0.0,0.0,0.0,0.0,0.0,0.0,0.0,0.0,0.0,0.0,0.0,-4.9498,-4.9563,-4.939,-4.9011,0.0,0.0,0.0,0.0,0.0,0.0,0.0,0.0,0.0,0.0,0.0,0.0,0.0,0.0,0.0,0.0,0.0,0.0,0.0,0.0,0.0,0.0,0.0,0.0,0.0,0.0,0.0,0.0,0.0,0.0,0.0,0.0,0.0,0.0,0.0,0.0,0.0,0.0,0.0,0.0,0.0,0.0,0.0,0.0,0.0,0.0,0.0,0.0,0.0,0.0,0.0,0.0,0.0,0.0,0.0,0.0,0.0,0.0,0.0,0.0,0.0,0.0,0.0,0.0,0.0,0.0,0.0,0.0,0.0,0.0,0.0,0.0,0.0,0.0,0.0,0.0,0.0,0.0,0.0,0.0,0.0,0.0,0.0,0.0,0.0,0.0,0.0,0.0,0.0,0.0,0.0,0.0,0.0,0.0,0.0,0.0,0.0,0.0,0.0,0.0,0.0,0.0,0.0,0.0,0.0,0.0,0.0,0.0,0.0,0.0,-4.9966,-4.9923,-4.9749,-4.9361,-4.9029,-4.8802,0.0,0.0,0.0,0.0,0.0,0.0,0.0,0.0,0.0,0.0,0.0,0.0,0.0,0.0,0.0,0.0,0.0,0.0,0.0,0.0,0.0,0.0,0.0,0.0,0.0,0.0,0.0,0.0,0.0,0.0,0.0,0.0,0.0,0.0,0.0,0.0,0.0,0.0,0.0,0.0,0.0,0.0,0.0,0.0,0.0,0.0,0.0,0.0,0.0,0.0,0.0,0.0,0.0,0.0,0.0,0.0,0.0,0.0,0.0,0.0,0.0,0.0,0.0,0.0,0.0,0.0,0.0,0.0,0.0,0.0,0.0,0.0,0.0,0.0,0.0,0.0,0.0,0.0,0.0,0.0,0.0,0.0,0.0,0.0,0.0,0.0,0.0,0.0,0.0,0.0,0.0,0.0,0.0,0.0,0.0,0.0,0.0,0.0,0.0,0.0,0.0,0.0,0.0,0.0,0.0,0.0,0.0,0.0,-5.1459,-5.1598,-5.1243,-5.0353,-4.9421,-4.882,0.0,0.0,0.0,0.0,0.0,0.0,0.0,0.0,0.0,0.0,0.0,0.0,0.0,0.0,0.0,0.0,0.0,0.0,0.0,0.0,0.0,0.0,0.0,0.0,0.0,0.0,0.0,0.0,0.0,0.0,0.0,0.0,0.0,0.0,0.0,0.0,0.0,0.0,0.0,0.0,0.0,0.0,0.0,0.0,0.0,0.0,0.0,0.0,0.0,0.0,0.0,0.0,0.0,0.0,0.0,0.0,0.0,0.0,0.0,0.0,0.0,0.0,0.0,0.0,0.0,0.0,0.0,0.0,0.0,0.0,0.0,0.0,0.0,0.0,0.0,0.0,0.0,0.0,0.0,0.0,0.0,0.0,0.0,0.0,0.0,0.0,0.0,0.0,0.0,0.0,0.0,0.0,0.0,0.0,0.0,0.0,0.0,0.0,0.0,0.0,0.0,0.0,0.0,0.0,0.0,0.0,0.0,0.0,0.0,-5.154,-5.1608,-5.1252,-5.0365,-4.9889,-4.9305,0.0,0.0,0.0,0.0,0.0,0.0,0.0,0.0,0.0,0.0,0.0,0.0,0.0,0.0,0.0,0.0,0.0,0.0,0.0,0.0,0.0,0.0,0.0,0.0,0.0,0.0,0.0,0.0,0.0,0.0,0.0,0.0,0.0,0.0,0.0,0.0,0.0,0.0,0.0,0.0,0.0,0.0,0.0,0.0,0.0,0.0,0.0,0.0,0.0,0.0,0.0,0.0,0.0,0.0,0.0,0.0,0.0,0.0,0.0,0.0,0.0,0.0,0.0,0.0,0.0,0.0,0.0,0.0,0.0,0.0,0.0,0.0,0.0,0.0,0.0,0.0,0.0,0.0,0.0,0.0,0.0,0.0,0.0,0.0,0.0,0.0,0.0,0.0,0.0,0.0,0.0,0.0,0.0,0.0,0.0,0.0,0.0,0.0,0.0,0.0,0.0,0.0,0.0,0.0,0.0,0.0,0.0,0.0,0.0,-5.2287,0.0,-5.1557,-5.0706,-5.0211,-4.9492,0.0,0.0,0.0,0.0,0.0,0.0,0.0,0.0,0.0,0.0,0.0,0.0,0.0,0.0,0.0,0.0,0.0,0.0,0.0,0.0,0.0,0.0,0.0,0.0,0.0,0.0,0.0,0.0,0.0,0.0,0.0,0.0,0.0,0.0,0.0,0.0,0.0,0.0,0.0,0.0,0.0,0.0,0.0,0.0,0.0,0.0,0.0,0.0,0.0,0.0,0.0,0.0,0.0,0.0,0.0,0.0,0.0,0.0,0.0,0.0,0.0,0.0,0.0,0.0,0.0,0.0,0.0,0.0,0.0,0.0,0.0,0.0,0.0,0.0,0.0,0.0,0.0,0.0,0.0,0.0,0.0,0.0,0.0,0.0,0.0,0.0,0.0,0.0,0.0,0.0,0.0,0.0,0.0,0.0,0.0,0.0,0.0,0.0,0.0,0.0,0.0,0.0,0.0,0.0,0.0,0.0,0.0,0.0,-5.3621,-5.3926,-5.3106,-5.2288,-5.1416,-5.0323,-4.9303,0.0,0.0,0.0,0.0,0.0,0.0,0.0,0.0,0.0,0.0,0.0,0.0,0.0,0.0,0.0,0.0,0.0,0.0,0.0,0.0,0.0,0.0,0.0,0.0,0.0,0.0,0.0,0.0,0.0,0.0,0.0,0.0,0.0,0.0,0.0,0.0,0.0,0.0,0.0,0.0,0.0,0.0,0.0,0.0,0.0,0.0,0.0,0.0,0.0,0.0,0.0,0.0,0.0,0.0,0.0,0.0,0.0,0.0,0.0,0.0,0.0,0.0,0.0,0.0,0.0,0.0,0.0,0.0,0.0,0.0,0.0,0.0,0.0,0.0,0.0,0.0,0.0,0.0,0.0,0.0,0.0,0.0,0.0,0.0,0.0,0.0,0.0,0.0,0.0,0.0,0.0,0.0,0.0,0.0,0.0,0.0,0.0,0.0,0.0,0.0,0.0,0.0,0.0,0.0,0.0,0.0,0.0,0.0,0.0,-5.3851,-5.359,-5.3032,-5.2103,-5.1079,-5.0016,0.0,0.0,0.0,0.0,0.0,0.0,0.0,0.0,0.0,0.0,0.0,0.0,0.0,0.0,0.0,0.0,0.0,0.0,0.0,0.0,0.0,0.0,0.0,0.0,0.0,0.0,0.0,0.0,0.0,0.0,0.0,0.0,0.0,0.0,0.0,0.0,0.0,0.0,0.0,0.0,0.0,0.0,0.0,0.0,0.0,0.0,0.0,0.0,0.0,0.0,0.0,0.0,0.0,0.0,0.0,0.0,0.0,0.0,0.0,0.0,0.0,0.0,0.0,0.0,0.0,0.0,0.0,0.0,0.0,0.0,0.0,0.0,0.0,0.0,0.0,0.0,0.0,0.0,0.0,0.0,0.0,0.0,0.0,0.0,0.0,0.0,0.0,0.0,0.0,0.0,0.0,0.0,0.0,0.0,0.0,0.0,0.0,0.0,0.0,0.0,0.0,0.0,0.0,0.0,0.0,0.0,0.0,0.0,0.0,-5.4181,-5.3961,-5.3346,-5.2377,-5.1389,-5.0321,-4.917,0.0,0.0,0.0,0.0,0.0,0.0,0.0,0.0,0.0,0.0,0.0,0.0,0.0,0.0,0.0,0.0,0.0,0.0,0.0,0.0,0.0,0.0,0.0,0.0,0.0,0.0,0.0,0.0,0.0,0.0,0.0,0.0,0.0,0.0,0.0,0.0,0.0,0.0,0.0,0.0,0.0,0.0,0.0,0.0,0.0,0.0,0.0,0.0,0.0,0.0,0.0,0.0,0.0,0.0,0.0,0.0,0.0,0.0,0.0,0.0,0.0,0.0,0.0,0.0,0.0,0.0,0.0,0.0,0.0,0.0,0.0,0.0,0.0,0.0,0.0,0.0,0.0,0.0,0.0,0.0,0.0,0.0,0.0,0.0,0.0,0.0,0.0,0.0,0.0,0.0,0.0,0.0,0.0,0.0,0.0,0.0,0.0,0.0,0.0,0.0,0.0,0.0,0.0,0.0,0.0,0.0,0.0,0.0,-5.4859,-5.4237,-5.3475,-5.2503,-5.1439,-5.0312,0.0,0.0,0.0,0.0,0.0,0.0,0.0,0.0,0.0,0.0,0.0,0.0,0.0,0.0,0.0,0.0,0.0,0.0,0.0,0.0,0.0,0.0,0.0,0.0,0.0,0.0,0.0,0.0,0.0,0.0,0.0,0.0,0.0,0.0,0.0,0.0,0.0,0.0,0.0,0.0,0.0,0.0,0.0,0.0,0.0,0.0,0.0,0.0,0.0,0.0,0.0,0.0,0.0,0.0,0.0,0.0,0.0,0.0,0.0,0.0,0.0,0.0,0.0,0.0,0.0,0.0,0.0,0.0,0.0,0.0,0.0,0.0,0.0,0.0,0.0,0.0,0.0,0.0,0.0,0.0,0.0,0.0,0.0,0.0,0.0,0.0,0.0,0.0,0.0,0.0,0.0,0.0,0.0,0.0,0.0,0.0,0.0,0.0,0.0,0.0,0.0,0.0,0.0,0.0,0.0,0.0,0.0,0.0,0.0,-5.4598,-5.519,-5.5045,-5.4092,-5.2522,-5.1114,0.0,0.0,0.0,0.0,0.0,0.0,0.0,0.0,0.0,0.0,0.0,0.0,0.0,0.0,0.0,0.0,0.0,0.0,0.0,0.0,0.0,0.0,0.0,0.0,0.0,0.0,0.0,0.0,0.0,0.0,0.0,0.0,0.0,0.0,0.0,0.0,0.0,0.0,0.0,0.0,0.0,0.0,0.0,0.0,0.0,0.0,0.0,0.0,0.0,0.0,0.0,0.0,0.0,0.0,0.0,0.0,0.0,0.0,0.0,0.0,0.0,0.0,0.0,0.0,0.0,0.0,0.0,0.0,0.0,0.0,0.0,0.0,0.0,0.0,0.0,0.0,0.0,0.0,0.0,0.0,0.0,0.0,0.0,0.0,0.0,0.0,0.0,0.0,0.0,0.0,0.0,0.0,0.0,0.0,0.0,0.0,0.0,0.0,0.0,0.0,0.0,0.0,0.0,0.0,0.0,0.0,0.0,0.0,-5.4463,-5.4966,-5.5657,-5.5699,-5.5073,-5.3401,-5.1694,0.0,0.0,0.0,0.0,0.0,0.0,0.0,0.0,0.0,0.0,0.0,0.0,0.0,0.0,0.0,0.0,0.0,0.0,0.0,0.0,0.0,0.0,0.0,0.0,0.0,0.0,0.0,0.0,0.0,0.0,0.0,0.0,0.0,0.0,0.0,0.0,0.0,0.0,0.0,0.0,0.0,0.0,0.0,0.0,0.0,0.0,0.0,0.0,0.0,0.0,0.0,0.0,0.0,0.0,0.0,0.0,0.0,0.0,0.0,0.0,0.0,0.0,0.0,0.0,0.0,0.0,0.0,0.0,0.0,0.0,0.0,0.0,0.0,0.0,0.0,0.0,0.0,0.0,0.0,0.0,0.0,0.0,0.0,0.0,0.0,0.0,0.0,0.0,0.0,0.0,0.0,0.0,0.0,0.0,0.0,0.0,0.0,0.0,0.0,0.0,0.0,0.0,0.0,0.0,0.0,0.0,0.0,0.0,-5.4588,-5.5662,-5.5991,-5.5975,-5.5596,-5.4106,-5.2199,0.0,0.0,0.0,0.0,0.0,0.0,0.0,0.0,0.0,0.0,0.0,0.0,0.0,0.0,0.0,0.0,0.0,0.0,0.0,0.0,0.0,0.0,0.0,0.0,0.0,0.0,0.0,0.0,0.0,0.0,0.0,0.0,0.0,0.0,0.0,0.0,0.0,0.0,0.0,0.0,0.0,0.0,0.0,0.0,0.0,0.0,0.0,0.0,0.0,0.0,0.0,0.0,0.0,0.0,0.0,0.0,0.0,0.0,0.0,0.0,0.0,0.0,0.0,0.0,0.0,0.0,0.0,0.0,0.0,0.0,0.0,0.0,0.0,0.0,0.0,0.0,0.0,0.0,0.0,0.0,0.0,0.0,0.0,0.0,0.0,0.0,0.0,0.0,0.0,0.0,0.0,0.0,0.0,0.0,0.0,0.0,0.0,0.0,0.0,0.0,0.0,0.0,0.0,0.0,0.0,0.0,0.0,0.0,-5.5063,-5.6218,-5.7107,-5.6922,-5.5651,-5.4444,-5.2544,0.0,0.0,0.0,0.0,0.0,0.0,0.0,0.0,0.0,0.0,0.0,0.0,0.0,0.0,0.0,0.0,0.0,0.0,0.0,0.0,0.0,0.0,0.0,0.0,0.0,0.0,0.0,0.0,0.0,0.0,0.0,0.0,0.0,0.0,0.0,0.0,0.0,0.0,0.0,0.0,0.0,0.0,0.0,0.0,0.0,0.0,0.0,0.0,-4.9778,0.0,0.0,0.0,0.0,0.0,0.0,0.0,0.0,0.0,0.0,0.0,0.0,0.0,0.0,0.0,0.0,0.0,0.0,0.0,0.0,0.0,0.0,0.0,0.0,0.0,0.0,0.0,0.0,0.0,0.0,0.0,0.0,0.0,0.0,0.0,0.0,0.0,0.0,0.0,0.0,0.0,0.0,0.0,0.0,0.0,0.0,0.0,0.0,0.0,0.0,0.0,0.0,0.0,0.0,0.0,0.0,0.0,0.0,0.0,-5.5006,-5.6194,-5.7206,-5.693,-5.535,-5.4607,-5.2761,0.0,0.0,0.0,0.0,0.0,0.0,0.0,0.0,0.0,0.0,0.0,0.0,0.0,0.0,0.0,0.0,0.0,0.0,0.0,0.0,0.0,0.0,0.0,0.0,0.0,0.0,0.0,0.0,0.0,0.0,0.0,0.0,0.0,0.0,0.0,0.0,0.0,0.0,0.0,0.0,0.0,0.0,0.0,0.0,0.0,0.0,0.0,0.0,0.0,0.0,0.0,0.0,0.0,0.0,0.0,0.0,0.0,0.0,0.0,0.0,0.0,0.0,0.0,0.0,0.0,0.0,0.0,0.0,0.0,0.0,0.0,0.0,0.0,0.0,0.0,0.0,0.0,0.0,0.0,0.0,0.0,0.0,0.0,0.0,0.0,0.0,0.0,0.0,0.0,0.0,0.0,0.0,0.0,0.0,0.0,0.0,0.0,0.0,0.0,0.0,0.0,0.0,0.0,0.0,0.0,0.0,0.0,-5.3459,-5.4679,-5.5876,-5.6822,-5.652,-5.4858,-5.4564,-5.281,-4.9452,0.0,0.0,0.0,0.0,0.0,0.0,0.0,0.0,0.0,0.0,0.0,0.0,0.0,0.0,0.0,0.0,0.0,0.0,0.0,0.0,0.0,0.0,0.0,0.0,0.0,0.0,0.0,0.0,0.0,0.0,0.0,0.0,0.0,0.0,0.0,0.0,0.0,0.0,-4.7636,-4.7972,0.0,0.0,0.0,0.0,0.0,0.0,0.0,0.0,-4.9415,0.0,0.0,0.0,0.0,0.0,0.0,0.0,0.0,0.0,0.0,0.0,0.0,0.0,0.0,0.0,0.0,0.0,0.0,0.0,0.0,0.0,0.0,0.0,0.0,0.0,0.0,0.0,0.0,0.0,0.0,0.0,0.0,0.0,0.0,0.0,0.0,0.0,0.0,0.0,0.0,0.0,0.0,0.0,0.0,0.0,0.0,0.0,0.0,0.0,0.0,0.0,0.0,0.0,0.0,0.0,0.0,-5.1717,-5.2919,-5.4171,-5.5468,-5.6433,-5.6124,-5.4543,-5.4225,-5.2615,-4.9583,0.0,0.0,0.0,0.0,0.0,0.0,0.0,0.0,0.0,0.0,0.0,0.0,0.0,0.0,0.0,0.0,0.0,0.0,0.0,0.0,0.0,0.0,0.0,0.0,0.0,0.0,0.0,0.0,0.0,0.0,0.0,0.0,0.0,0.0,0.0,0.0,0.0,0.0,0.0,-4.7699,-4.7886,0.0,0.0,0.0,0.0,0.0,0.0,0.0,0.0,-4.9144,0.0,0.0,0.0,0.0,0.0,0.0,0.0,0.0,0.0,0.0,0.0,0.0,0.0,0.0,0.0,0.0,0.0,0.0,0.0,0.0,0.0,0.0,0.0,0.0,0.0,0.0,0.0,0.0,0.0,0.0,0.0,0.0,0.0,0.0,0.0,0.0,0.0,0.0,0.0,0.0,0.0,0.0,0.0,0.0,0.0,0.0,0.0,0.0,0.0,0.0,0.0,0.0,0.0,0.0,0.0,-5.1327,-5.2083,-5.3316,-5.5044,-5.5535,-5.5187,-5.4028,-5.378,-5.2472,0.0,0.0,0.0,0.0,0.0,0.0,0.0,0.0,0.0,0.0,0.0,0.0,0.0,0.0,0.0,0.0,0.0,0.0,0.0,0.0,0.0,0.0,0.0,0.0,0.0,0.0,0.0,0.0,0.0,0.0,0.0,0.0,0.0,0.0,0.0,0.0,0.0,0.0,0.0,0.0,-4.7341,-4.7515,-4.7624,0.0,0.0,0.0,0.0,0.0,0.0,-4.8785,-4.8838,0.0,0.0,0.0,0.0,0.0,0.0,0.0,0.0,0.0,0.0,0.0,0.0,0.0,0.0,0.0,0.0,0.0,0.0,0.0,0.0,0.0,0.0,0.0,0.0,0.0,0.0,0.0,0.0,0.0,0.0,0.0,0.0,0.0,0.0,0.0,0.0,0.0,0.0,0.0,0.0,0.0,0.0,0.0,0.0,0.0,0.0,0.0,0.0,0.0,0.0,0.0,0.0,0.0,0.0,0.0,-5.0626,-5.1141,-5.2282,-5.4088,-5.4328,-5.401,-5.3233,-5.3077,-5.2046,0.0,0.0,0.0,0.0,0.0,0.0,0.0,0.0,0.0,0.0,0.0,0.0,0.0,0.0,0.0,0.0,0.0,0.0,0.0,0.0,0.0,0.0,0.0,0.0,0.0,0.0,0.0,0.0,0.0,0.0,0.0,0.0,0.0,0.0,0.0,0.0,0.0,0.0,0.0,0.0,0.0,-4.7169,-4.7191,-4.756,0.0,0.0,0.0,0.0,-4.8381,-4.8439,0.0,0.0,0.0,0.0,0.0,0.0,0.0,0.0,0.0,0.0,0.0,0.0,0.0,0.0,0.0,0.0,0.0,0.0,0.0,0.0,0.0,0.0,0.0,0.0,0.0,0.0,0.0,0.0,0.0,0.0,0.0,0.0,0.0,0.0,0.0,0.0,0.0,0.0,0.0,0.0,0.0,0.0,0.0,0.0,0.0,0.0,0.0,0.0,0.0,0.0,0.0,0.0,0.0,0.0,0.0,0.0,-4.9178,-5.0192,-5.1119,-5.1957,-5.2631,-5.2596,-5.1863,-5.165,-5.084,0.0,0.0,0.0,0.0,0.0,0.0,0.0,0.0,0.0,0.0,0.0,0.0,0.0,0.0,0.0,0.0,0.0,0.0,0.0,0.0,0.0,0.0,0.0,0.0,0.0,0.0,0.0,0.0,0.0,0.0,0.0,0.0,0.0,0.0,0.0,0.0,0.0,0.0,0.0,0.0,0.0,-4.6731,-4.6824,-4.7057,-4.724,0.0,0.0,-4.7705,-4.8012,-4.8072,0.0,0.0,0.0,0.0,0.0,0.0,0.0,0.0,0.0,0.0,0.0,0.0,0.0,0.0,0.0,0.0,0.0,0.0,0.0,0.0,0.0,0.0,0.0,0.0,0.0,0.0,0.0,0.0,0.0,0.0,0.0,0.0,0.0,0.0,0.0,0.0,0.0,0.0,0.0,0.0,0.0,0.0,0.0,0.0,0.0,0.0,0.0,0.0,0.0,0.0,0.0,0.0,0.0,0.0,0.0,-4.7983,-4.8513,-4.9085,-4.9892,-5.0884,-5.124,-5.124,-5.0931,-5.0824,-5.0205,0.0,0.0,0.0,0.0,0.0,0.0,0.0,0.0,0.0,0.0,0.0,0.0,0.0,0.0,0.0,0.0,0.0,0.0,0.0,0.0,0.0,0.0,0.0,0.0,0.0,0.0,0.0,0.0,0.0,0.0,0.0,0.0,0.0,0.0,0.0,0.0,0.0,0.0,0.0,0.0,0.0,0.0,-4.635,-4.6548,0.0,0.0,0.0,-4.7209,-4.7539,0.0,0.0,0.0,0.0,0.0,0.0,0.0,0.0,0.0,0.0,0.0,0.0,0.0,0.0,0.0,0.0,0.0,0.0,0.0,0.0,0.0,0.0,0.0,0.0,0.0,0.0,0.0,0.0,0.0,0.0,0.0,0.0,0.0,0.0,0.0,0.0,0.0,0.0,0.0,0.0,0.0,0.0,0.0,0.0,0.0,0.0,0.0,0.0,0.0,0.0,0.0,0.0,0.0,0.0,0.0,0.0,0.0,-4.7869,-4.8097,-4.8735,-4.9748,-4.9845,-4.9845,-4.9828,-4.9845,0.0,0.0,0.0,0.0,0.0,0.0,0.0,0.0,0.0,0.0,0.0,0.0,0.0,0.0,0.0,0.0,0.0,0.0,0.0,0.0,0.0,0.0,0.0,0.0,0.0,0.0,0.0,-4.2661,0.0,0.0,0.0,0.0,0.0,0.0,0.0,0.0,0.0,0.0,0.0,0.0,0.0,0.0,-4.5837,-4.587,-4.6062,-4.6277,0.0,0.0,-4.6713,-4.708,-4.7125,-4.7209,0.0,0.0,0.0,0.0,0.0,0.0,0.0,0.0,0.0,0.0,0.0,0.0,0.0,0.0,0.0,0.0,0.0,0.0,0.0,0.0,0.0,0.0,0.0,0.0,0.0,0.0,0.0,0.0,0.0,0.0,0.0,0.0,0.0,0.0,0.0,0.0,0.0,0.0,0.0,0.0,0.0,0.0,0.0,0.0,0.0,0.0,0.0,0.0,0.0,0.0,0.0,0.0,0.0,0.0,0.0,-4.6979,-4.732,-4.7655,-4.8065,-4.8244,-4.8357,-4.834,-4.8357,-4.8179,0.0,0.0,0.0,0.0,0.0,0.0,0.0,0.0,0.0,0.0,0.0,0.0,0.0,0.0,0.0,0.0,0.0,0.0,0.0,0.0,0.0,0.0,0.0,0.0,0.0,0.0,0.0,0.0,0.0,0.0,0.0,0.0,0.0,0.0,0.0,0.0,0.0,0.0,0.0,0.0,0.0,-4.5363,-4.558,-4.5632,-4.5735,0.0,0.0,-4.6186,-4.6572,-4.6643,-4.6731,-4.7002,0.0,0.0,0.0,0.0,0.0,0.0,0.0,0.0,0.0,0.0,0.0,0.0,0.0,0.0,0.0,0.0,0.0,0.0,0.0,0.0,0.0,0.0,0.0,0.0,0.0,0.0,0.0,0.0,0.0,0.0,0.0,0.0,0.0,0.0,0.0,0.0,0.0,0.0,0.0,0.0,0.0,0.0,0.0,0.0,0.0,0.0,0.0,0.0,0.0,0.0,0.0,0.0,0.0,-4.6068,-4.6372,-4.6461,-4.6724,-4.7084,-4.7169,-4.7253,-4.7404,-4.7421,-4.7337,0.0,0.0,0.0,0.0,0.0,0.0,0.0,0.0,0.0,0.0,0.0,0.0,0.0,0.0,0.0,0.0,0.0,0.0,0.0,0.0,0.0,0.0,0.0,0.0,0.0,0.0,0.0,0.0,-4.3702,-4.382,-4.4219,0.0,0.0,0.0,0.0,0.0,0.0,0.0,0.0,0.0,0.0,-4.5096,-4.522,-4.523,0.0,0.0,-4.5632,-4.576,-4.6161,-4.6326,-4.6423,-4.6613,-4.6847,0.0,0.0,0.0,0.0,0.0,0.0,0.0,0.0,0.0,0.0,0.0,0.0,0.0,0.0,0.0,0.0,0.0,0.0,0.0,0.0,0.0,0.0,0.0,0.0,0.0,0.0,0.0,0.0,0.0,0.0,0.0,0.0,0.0,0.0,0.0,0.0,0.0,0.0,0.0,0.0,0.0,0.0,0.0,0.0,0.0,0.0,0.0,0.0,0.0,0.0,0.0,0.0,-4.5342,-4.5567,-4.5624,-4.5769,-4.6056,-4.6179,-4.6285,-4.6442,-4.6528,-4.6563,0.0,0.0,0.0,0.0,0.0,0.0,0.0,0.0,0.0,0.0,0.0,0.0,0.0,0.0,0.0,0.0,0.0,0.0,0.0,0.0,0.0,0.0,0.0,0.0,0.0,0.0,0.0,0.0,-4.3654,-4.3684,-4.3894,0.0,0.0,0.0,0.0,0.0,0.0,0.0,0.0,0.0,0.0,-4.4776,-4.4786,-4.4814,-4.4951,-4.5194,-4.5257,-4.5415,-4.576,-4.593,-4.5995,-4.6204,0.0,0.0,0.0,0.0,0.0,0.0,0.0,0.0,0.0,0.0,0.0,0.0,0.0,0.0,0.0,0.0,0.0,0.0,0.0,0.0,0.0,0.0,0.0,0.0,0.0,0.0,0.0,0.0,0.0,0.0,0.0,0.0,0.0,0.0,0.0,0.0,0.0,0.0,0.0,0.0,0.0,0.0,0.0,0.0,0.0,0.0,0.0,0.0,0.0,0.0,0.0,0.0,0.0,-4.461,-4.461,-4.4752,-4.4812,-4.4849,-4.5221,-4.5405,-4.5442,-4.5692,-4.5817,-4.5801,0.0,0.0,0.0,0.0,0.0,0.0,0.0,0.0,0.0,0.0,0.0,0.0,0.0,0.0,0.0,0.0,0.0,0.0,0.0,0.0,0.0,0.0,0.0,0.0,0.0,0.0,-4.3143,-4.3113,-4.3188,0.0,0.0,0.0,0.0,0.0,0.0,0.0,0.0,0.0,0.0,-4.4126,-4.4167,-4.431,-4.4435,-4.4575,-4.4759,-4.494,-4.5096,-4.5363,-4.5415,-4.5494,0.0,0.0,0.0,0.0,0.0,0.0,0.0,0.0,0.0,0.0,0.0,0.0,0.0,0.0,0.0,0.0,0.0,0.0,0.0,0.0,0.0,0.0,0.0,0.0,0.0,0.0,0.0,-4.3373,-4.3111,0.0,0.0,0.0,0.0,0.0,0.0,0.0,0.0,0.0,0.0,0.0,-4.0887,-4.0845,0.0,0.0,0.0,0.0,0.0,0.0,0.0,0.0,0.0,0.0,0.0,0.0,-4.3762,-4.3723,-4.3786,-4.3849,-4.4004,-4.4259,-4.4472,-4.4586,-4.4858,-4.4769,-4.4266,0.0,0.0,0.0,0.0,0.0,0.0,0.0,0.0,0.0,0.0,0.0,0.0,0.0,0.0,0.0,0.0,0.0,0.0,0.0,0.0,0.0,0.0,0.0,0.0,0.0,-4.2634,0.0,0.0,0.0,0.0,0.0,0.0,0.0,0.0,0.0,0.0,0.0,-4.3772,-4.3772,-4.3831,-4.3919,-4.3977,-4.4121,-4.4281,0.0,0.0,0.0,0.0,0.0,0.0,0.0,0.0,0.0,0.0,0.0,0.0,0.0,0.0,-4.6036,-4.5269,-4.5391,-4.555,-4.5407,0.0,0.0,0.0,0.0,0.0,0.0,0.0,0.0,0.0,0.0,0.0,0.0,0.0,0.0,0.0,0.0,-4.1645,0.0,0.0,0.0,0.0,0.0,0.0,0.0,0.0,-3.9766,-3.9678,-3.9678,-3.9664,-3.9722,0.0,-4.0012,-4.0445,0.0,0.0,0.0,0.0,0.0,0.0,0.0,0.0,-4.2835,-4.2875,-4.282,-4.29,-4.3046,-4.3339,-4.3536,-4.3693,-4.3981,-4.3899,-4.3434,-4.3229,-4.2589,0.0,0.0,0.0,0.0,0.0,0.0,0.0,0.0,0.0,0.0,0.0,0.0,0.0,0.0,0.0,0.0,0.0,0.0,0.0,0.0,0.0,0.0,0.0,-4.2109,0.0,0.0,0.0,0.0,0.0,0.0,0.0,0.0,0.0,-4.3171,-4.3309,-4.3355,-4.3355,-4.3476,-4.3565,-4.3565,0.0,0.0,0.0,0.0,0.0,0.0,0.0,-4.4906,-4.4944,-4.5096,-4.5257,-4.5424,-4.5649,-4.5837,-4.5945,0.0,0.0,-4.5601,-4.5816,-4.5995,-4.5822,-4.6021,-4.6158,-4.5975,-4.6063,-4.6204,0.0,0.0,0.0,0.0,0.0,0.0,0.0,0.0,-4.066,-4.0446,0.0,-4.0258,0.0,0.0,0.0,0.0,0.0,0.0,0.0,0.0,-3.8464,-3.8464,-3.8464,-3.8464,-3.8599,-3.8819,-3.885,-3.9011,-3.9292,-4.017,0.0,0.0,0.0,0.0,0.0,0.0,-4.1949,-4.1964,-4.1949,-4.199,-4.199,-4.2415,-4.2688,-4.2673,-4.305,-4.325,-4.322,-4.2638,-4.1995,-4.1361,-4.1279,0.0,0.0,0.0,0.0,0.0,0.0,0.0,0.0,0.0,0.0,0.0,0.0,0.0,0.0,0.0,0.0,0.0,0.0,0.0,0.0,-4.1555,0.0,0.0,0.0,0.0,0.0,0.0,0.0,0.0,0.0,0.0,-4.2459,-4.2728,-4.2885,-4.2868,0.0,0.0,0.0,0.0,-4.3598,-4.3598,-4.3864,-4.4126,-4.4236,-4.4265,-4.4321,-4.4463,0.0,0.0,-4.514,-4.5283,-4.5415,-4.5572,-4.5684,-4.5938,-4.6418,-4.6814,-4.6952,-4.6291,-4.6465,-4.6529,-4.5893,-4.6029,-4.6158,-3.9976,0.0,0.0,0.0,0.0,-4.0353,-4.0055,-3.9803,-3.9311,-3.9091,-3.9002,-3.8854,0.0,0.0,0.0,0.0,0.0,0.0,-3.7566,-3.7474,-3.7302,-3.7196,-3.7209,-3.7394,-3.7559,-3.7605,-3.7946,-3.8128,-3.8232,-3.8684,-3.9251,-3.9998,0.0,0.0,0.0,0.0,-4.1057,-4.1057,-4.1212,-4.1282,-4.1282,-4.1771,-4.2061,-4.2196,-4.2319,-4.2374,-4.236,-4.2199,-4.1664,-4.0739,-4.0665,0.0,0.0,0.0,0.0,0.0,0.0,0.0,0.0,0.0,0.0,0.0,0.0,0.0,0.0,0.0,0.0,0.0,0.0,0.0,-4.0817,-4.0817,-4.0867,0.0,0.0,0.0,0.0,0.0,0.0,0.0,0.0,0.0,-4.1274,-4.1834,-4.219,0.0,0.0,-4.2618,-4.2759,-4.2945,-4.3146,-4.3235,0.0,0.0,0.0,-4.3743,-4.3844,-4.3989,-4.4236,-4.448,-4.4547,-4.4769,-4.4978,-4.5032,-4.5203,-4.5468,-4.5709,-4.6242,-4.6595,-4.6499,-4.6762,-4.6993,-4.6862,-4.7059,-4.7282,-3.8259,-3.9188,-3.9507,-3.9564,-3.9381,-3.8973,-3.87,-3.8579,-3.789,-3.7598,-3.7598,-3.7333,-3.7196,-3.7137,-3.6824,0.0,0.0,0.0,-3.626,-3.6166,-3.6001,-3.6013,-3.6108,-3.625,-3.6452,-3.6675,-3.6943,-3.7176,-3.7361,-3.75,-3.8004,-3.8774,0.0,0.0,-3.9895,-4.0156,-4.0243,-4.0286,-4.0488,-4.0588,-4.0631,-4.0972,-4.1254,-4.1464,-4.1479,-4.1492,-4.1617,-4.1617,-4.1239,-4.0459,-4.0662,-4.0137,0.0,0.0,0.0,0.0,0.0,0.0,0.0,0.0,0.0,0.0,0.0,-3.9884,-3.99,0.0,0.0,0.0,-4.0056,-4.0071,-4.0071,-4.0071,0.0,0.0,0.0,0.0,0.0,0.0,0.0,-4.0056,-4.0056,-4.0126,-4.0351,-4.0799,-4.1239,-4.162,-4.1899,-4.2158,-4.2302,0.0,-4.2634,-4.2805,-4.2959,-4.3113,-4.319,-4.3281,-4.3386,-4.3611,-4.3848,-4.4051,-4.4093,-4.4338,-4.4525,-4.462,-4.4769,-4.4988,-4.514,-4.558,-4.6038,-4.6308,-4.6666,-4.6921,-4.7012,-4.7327,-4.7606,-3.6677,-3.6937,-3.7368,-3.7618,-3.7705,-3.7431,-3.7318,-3.7282,-3.6529,-3.6223,-3.6137,-3.5709,-3.5464,-3.5427,-3.5415,0.0,0.0,-3.503,-3.4896,-3.4677,-3.4689,-3.4823,-3.5078,-3.5126,-3.5404,-3.5858,-3.5918,-3.6143,-3.6581,-3.6615,-3.6909,-3.7413,-3.8291,-3.8863,-3.9203,-3.9397,-3.9516,-3.953,-3.9807,-3.9908,-3.9952,-4.0142,-4.0358,-4.0645,-4.0645,-4.073,-4.0916,-4.0916,-4.0717,-4.0343,-4.0912,-4.0413,-3.8688,0.0,0.0,0.0,0.0,0.0,0.0,0.0,0.0,0.0,0.0,0.0,0.0,0.0,0.0,0.0,-3.9307,0.0,-3.9292,-3.9292,0.0,0.0,0.0,-3.961,-3.9625,-3.9595,-3.9559,-3.9364,0.0,0.0,-3.961,0.0,-4.0146,-4.1039,-4.1357,-4.1588,-4.18,-4.1931,-4.2109,-4.2318,-4.246,-4.2601,-4.2775,-4.2837,-4.2976,-4.3251,-4.3449,-4.3582,-4.3713,-4.3935,-4.4097,-4.4207,-4.4378,-4.4547,-4.4748,-4.4988,-4.5292,-4.5811,-4.6235,-4.6542,-4.6613,-4.6921,-4.7236,-3.5091,-3.5113,-3.5239,-3.6044,-3.7202,-3.6756,-3.6537,-3.649,-3.59,-3.5399,-3.507,-3.474,-3.4281,-3.3782,-3.3782,-3.3732,-3.3683,-3.3683,-3.3633,-3.3583,-3.3793,-3.3892,-3.3979,-3.4384,-3.4677,-3.4811,-3.5211,-3.5452,-3.5548,-3.5966,-3.6345,-3.664,-3.7049,-3.7638,-3.8427,-3.8711,-3.8845,-3.8845,-3.9056,-3.9353,-3.9706,-3.9736,-3.9881,-4.017,-4.017,-4.017,-4.0257,-4.0243,-4.0051,-3.969,-3.9788,-3.955,-3.8774,-3.8434,0.0,0.0,0.0,0.0,0.0,0.0,0.0,0.0,0.0,-3.8501,-3.8486,0.0,-3.8501,0.0,-3.8501,-3.8501,-3.8486,-3.8486,0.0,0.0,-3.8775,-3.8848,-3.9017,-3.9017,-3.8965,-3.8929,-3.8929,-3.9002,-3.9213,-3.9271,-3.94,-3.9829,-4.037,-4.0901,-4.1254,-4.1305,-4.1472,-4.172,-4.1916,-4.2077,-4.2141,-4.2366,-4.2571,-4.2759,-4.2945,-4.3099,-4.3248,-4.3522,-4.3747,-4.3759,-4.3993,-4.4253,-4.4519,-4.4631,-4.478,-4.5177,-4.5632,-4.6062,-4.6259,-4.6548,-4.6824,-3.3695,-3.3695,-3.3685,-3.4235,-3.5134,-3.5369,-3.5472,-3.5415,-3.468,-3.4214,-3.397,-3.3373,-3.2881,-3.2493,-3.2482,-3.2493,-3.2482,-3.2482,-3.2493,-3.2482,-3.2734,-3.2935,-3.3085,-3.3484,-3.3793,-3.404,-3.4335,-3.458,-3.4872,-3.5259,-3.5584,-3.5883,-3.6203,-3.6709,-3.7374,-3.7985,-3.8285,-3.8272,-3.8607,-3.8877,-3.9145,-3.9145,-3.9203,-3.9394,-3.9394,-3.9424,-3.9499,-3.9499,-3.9481,-3.9353,-3.9383,-3.9137,-3.8642,-3.8311,-3.7869,0.0,0.0,0.0,0.0,0.0,0.0,0.0,0.0,0.0,0.0,0.0,-3.7658,0.0,-3.7672,0.0,-3.7672,-3.7749,-3.7863,-3.8066,-3.8179,-3.8277,-3.8375,-3.8412,-3.8375,-3.8277,-3.8277,-3.8352,-3.8538,-3.8575,-3.8686,-3.8965,-3.9328,-3.9844,-4.0439,-4.0578,-4.0699,-4.1156,-4.1339,-4.1488,-4.1604,-4.1947,-4.2206,-4.2302,-4.2524,-4.2728,-4.2883,-4.3099,-4.3298,-4.3402,-4.3658,-4.3923,-4.408,-4.4236,-4.4406,-4.4697,-4.4981,-4.5354,-4.576,-4.6144,-4.6477,-3.2571,-3.2581,-3.2571,-3.2581,-3.2685,-3.3631,-3.4114,-3.4171,-3.3291,-3.2921,-3.2811,-3.1867,-3.1476,-3.1527,-3.1476,-3.1527,-3.1476,-3.1476,-3.1476,-3.1527,-3.1772,-3.2015,-3.2269,-3.2594,-3.2946,-3.3385,-3.3496,-3.3744,-3.4286,-3.4543,-3.4823,-3.5126,-3.5631,-3.6026,-3.6323,-3.7201,-3.771,-3.7815,-3.8181,-3.8466,-3.8498,-3.8512,-3.8557,-3.8615,-3.8615,-3.8679,-3.8863,-3.8863,-3.8966,-3.9203,-3.9216,-3.8973,-3.8384,-3.8276,-3.7763,0.0,-3.652,0.0,0.0,0.0,0.0,0.0,0.0,0.0,0.0,-3.706,-3.7032,-3.6948,-3.6948,-3.692,-3.6875,-3.7031,-3.7226,-3.7419,-3.7634,-3.7772,-3.7772,-3.781,-3.7787,-3.761,-3.761,-3.7687,-3.7848,-3.7848,-3.8014,-3.8329,-3.8441,-3.8797,-3.9508,-3.9773,-4.0056,-4.0593,-4.073,-4.0919,-4.1189,-4.1554,-4.18,-4.1866,-4.2109,-4.2366,-4.2492,-4.2744,-4.2914,-4.3021,-4.3312,-4.3568,-4.3598,-4.3864,-4.4126,-4.4406,-4.4519,-4.4725,-4.5283,-4.576,-4.6087,-3.196,-3.196,-3.195,-3.196,-3.1988,-3.1783,-3.2024,-3.2528,-3.235,-3.1967,-3.1455,-3.0894,-3.0765,-3.0931,-3.0931,-3.0931,-3.0931,-3.0931,-3.0931,-3.0931,-3.123,-3.1373,-3.1476,-3.1924,-3.2218,-3.2319,-3.2745,-3.317,-3.3519,-3.3694,-3.4188,-3.4884,-3.4969,-3.5271,-3.5752,0.0,0.0,0.0,-3.7341,-3.7618,-3.7998,-3.8031,-3.8239,-3.8602,-3.8615,0.0,-3.8647,-3.8692,-3.8679,-3.8737,-3.8724,0.0,0.0,0.0,0.0,0.0,0.0,0.0,0.0,0.0,0.0,0.0,-3.5845,-3.6272,-3.7219,-3.7315,-3.7152,-3.673,-3.6675,-3.6524,-3.6246,-3.623,-3.6324,-3.6575,-3.6797,-3.6978,-3.7134,-3.7327,-3.7443,-3.7572,-3.7572,-3.761,-3.761,-3.7649,-3.7687,-3.7801,-3.7929,-3.8142,-3.8501,-3.909,-3.9574,-3.9859,-4.0281,-4.0627,-4.0867,-4.1086,-4.1355,-4.1587,-4.1703,-4.1883,-4.2142,-4.2429,-4.2634,-4.268,-4.2943,-4.3295,-4.3522,-4.3658,-4.3789,-4.4126,-4.4253,-4.4519,-4.5123,-4.5415,-4.5606,-3.1082,0.0,-3.1276,-3.1344,0.0,-3.0859,-3.0757,-3.0893,-3.0948,-3.0632,-3.0103,-2.9856,-2.9869,-2.9984,-2.9984,-2.9984,-2.9994,-2.9931,-3.0036,-3.0193,-3.0495,-3.0672,-3.0806,-3.1219,-3.1476,-3.1618,-3.2037,-3.2392,-3.2695,-3.3208,-3.3656,-3.4064,-3.4298,-3.464,-3.503,-3.5404,-3.6013,-3.6875,-3.6922,-3.7095,-3.7479,-3.7526,-3.7618,-3.7861,0.0,0.0,0.0,0.0,0.0,0.0,0.0,0.0,0.0,0.0,0.0,-3.6625,-3.5766,-3.5171,-3.4887,-3.4386,-3.4351,-3.5076,-3.5635,-3.6254,-3.7032,-3.7104,-3.6983,-3.6744,-3.6703,-3.6503,-3.602,-3.6089,-3.6103,-3.5939,-3.6151,-3.6389,-3.6508,-3.6719,-3.6889,-3.7007,-3.7099,-3.7162,-3.7176,-3.7226,-3.7341,-3.7433,-3.7548,-3.7725,-3.8028,-3.8553,-3.9083,-3.9481,-3.9859,-4.0176,-4.0366,-4.0643,-4.0848,-4.1021,-4.1205,-4.1472,-4.1785,-4.198,-4.2142,-4.2333,-4.2618,-4.2945,-4.3068,-4.3235,-4.3462,-4.3759,-4.3923,-4.4109,-4.4547,-4.4934,-4.53,-3.0333,-3.0333,-3.0577,-3.0665,-3.0558,-3.0102,-2.9682,-2.9205,0.0,0.0,0.0,-2.9026,-2.9079,-2.9132,-2.9132,-2.9132,-2.9132,-2.9132,-2.9237,-2.9501,-2.9722,-2.9984,-3.0183,-3.0516,-3.0776,-3.0972,-3.1322,-3.1618,-3.1964,-3.2656,-3.3069,-3.322,-3.3729,-3.4075,-3.4335,-3.4787,-3.5452,-3.6238,-3.6439,-3.6615,-3.6875,-3.6909,-3.6922,-3.6981,-3.6968,-3.6968,-3.6968,-3.6968,-3.6968,-3.6968,-3.6968,-3.6968,-3.6922,-3.6922,-3.6671,-3.6213,-3.562,-3.5124,-3.4653,-3.4005,-3.387,-3.4441,-3.5443,-3.6322,-3.6832,-3.6862,-3.6823,-3.6717,-3.6747,-3.6522,-3.6008,-3.6167,-3.6094,-3.5546,-3.5791,-3.5967,-3.5978,-3.6138,-3.6298,-3.6405,-3.6549,-3.6628,-3.6668,-3.685,-3.6993,-3.7148,-3.7264,-3.7419,-3.7815,-3.8254,-3.8738,-3.9177,-3.9517,-3.9747,-3.9889,-4.0191,-4.0401,-4.0489,-4.078,-4.1086,-4.1357,-4.1474,-4.1638,-4.1948,-4.227,-4.2476,-4.2602,-4.2836,-4.3113,-4.3432,-4.3522,-4.3628,-4.3952,-4.4395,-4.4824,-2.999,-2.9981,-3.0049,-2.983,-2.9508,-2.9098,-2.8433,-2.7774,-2.8247,-2.8627,-2.8727,-2.8781,-2.8877,-2.9132,-2.9132,-2.9132,-2.9132,-2.9132,-2.9132,0.0,-2.9185,-2.9237,-2.9343,-2.9837,-3.0151,-3.0203,-3.0672,-3.1178,-3.1618,-3.1783,-3.219,-3.2807,-3.322,-3.3679,-3.4125,-3.4211,-3.4408,-3.4714,-3.5404,-3.5883,-3.6156,-3.6156,-3.625,-3.6499,-3.6499,-3.6499,-3.6499,-3.6512,-3.6499,-3.6499,-3.6499,-3.6405,-3.6156,-3.6156,-3.6036,-3.5711,-3.5182,-3.4848,-3.4749,-3.3822,-3.3469,-3.3966,-3.4787,-3.5756,-3.6913,-3.7062,-3.6856,-3.6438,-3.6541,-3.6486,-3.6153,-3.6292,-3.63,-3.5883,-3.586,-3.5894,-3.5778,-3.5791,-3.5952,-3.6325,-3.6445,-3.6445,-3.647,-3.6628,-3.6761,-3.6839,-3.7239,-3.7437,-3.7777,-3.8142,-3.8538,-3.887,-3.9213,-3.9409,-3.9517,-3.9818,-4.0086,-4.0216,-4.042,-4.0662,-4.0901,-4.1156,-4.139,-4.1621,-4.185,-4.2125,-4.2476,-4.2634,-4.2805,-4.3082,-4.3143,-4.3265,-4.3582,-4.3789,-4.4006,-2.9686,-2.9648,-2.9617,-2.9458,-2.9231,-2.8662,-2.8,-2.745,-2.7701,-2.7872,-2.797,-2.8023,-2.8077,-2.8174,-2.8388,-2.8441,-2.8432,-2.8601,-2.8708,-2.8877,-2.8887,-2.8983,-2.9132,-2.9353,-2.9617,-2.9827,-3.0203,-3.0557,-3.095,-3.1362,-3.1783,-3.2139,-3.2656,-3.3019,-3.3358,-3.3408,-3.3496,-3.3744,-3.4531,-3.5066,-3.5356,-3.5343,-3.5404,-3.55,-3.5548,-3.5536,-3.5536,-3.5644,-3.5752,-3.574,-3.5895,-3.5847,-3.5596,-3.556,-3.5452,-3.515,-3.4772,-3.4562,-3.4574,-3.398,-3.3855,-3.4367,-3.474,-3.5365,-3.6402,-3.6607,-3.6673,-3.6724,-3.6816,-3.6676,-3.627,-3.6339,-3.6251,-3.5896,-3.593,-3.5894,-3.5713,-3.5746,-3.5831,-3.5885,-3.5938,-3.6058,-3.6246,-3.6405,-3.6676,-3.6979,-3.7618,-3.8161,-3.8374,-3.8781,-3.8924,-3.8602,-3.8738,-3.8973,-3.9177,-3.9481,-3.9732,-3.9915,-4.0106,-4.0331,-4.0574,-4.0799,-4.0969,-4.1254,-4.1488,-4.1687,-4.2013,-4.2158,-4.2349,-4.2618,-4.2774,-4.2929,-4.3176,-4.3419,-4.3818,-2.9153,-2.9166,-2.9051,-2.8953,-2.8766,-2.806,-2.7571,-2.7225,-2.7225,-2.7225,-2.7269,-2.7323,-2.7431,-2.7431,-2.7647,-2.7799,-2.7853,-2.8077,-2.8291,-2.8514,-2.8568,-2.8727,-2.892,-2.8973,-2.9132,-2.9406,-2.9722,-3.0047,-3.0349,-3.1013,-3.1414,-3.1629,-3.2077,-3.2443,-3.2695,-3.2757,-3.2857,-3.3047,-3.3645,-3.4139,-3.4531,-3.458,-3.464,-3.464,-3.464,-3.464,-3.464,-3.4835,-3.4945,-3.4993,-3.5138,-3.5187,-3.4981,-3.4932,-3.4884,-3.4653,-3.4463,-3.4317,-3.4231,-3.409,-3.412,-3.4495,-3.4531,-3.4858,-3.5623,-3.5945,-3.6322,-3.682,-3.693,-3.6811,-3.6499,-3.6455,-3.6328,-3.5993,-3.6093,-3.6096,-3.5802,-3.5897,-3.5883,-3.5598,-3.5723,-3.5913,-3.6006,-3.6262,-3.6766,-3.7468,-3.8226,-3.8778,-3.9024,-3.9242,-3.9093,-3.8717,-3.8574,-3.8714,-3.8981,-3.9141,-3.9322,-3.9523,-3.9747,-3.9945,-4.0226,-4.0366,-4.0539,-4.0864,-4.1052,-4.1256,-4.1456,-4.1637,-4.1915,-4.2222,-4.2349,-4.2524,-4.2806,-4.3146,-4.3611,-2.814,-2.8137,-2.8048,-2.7767,-2.7381,-2.694,-2.6746,-2.67,-2.6691,-2.67,-2.6745,-2.7171,-2.7377,-2.7431,-2.7422,-2.7431,-2.7485,-2.7799,-2.796,-2.8014,-2.8237,-2.8344,-2.8398,-2.8621,-2.8727,-2.8887,-2.9353,-2.9774,-3.0036,-3.0391,-3.0899,-3.1527,-3.168,-3.1936,-3.2443,-3.2493,-3.2544,-3.2544,-3.2645,-3.2996,-3.3694,-3.4014,-3.4162,-3.4174,-3.4174,-3.4174,-3.4113,-3.4174,-3.4223,-3.4223,-3.4211,-3.4211,-3.4223,-3.4211,-3.4211,-3.4162,-3.4164,-3.4049,-3.3803,-3.3911,-3.3943,-3.3752,-3.3788,-3.4147,-3.4883,-3.5152,-3.5653,-3.6326,-3.6628,-3.6671,-3.6692,-3.6853,-3.6716,-3.6321,-3.6425,-3.643,-3.6144,-3.6288,-3.631,-3.5896,-3.6026,-3.6086,-3.5804,-3.6361,-3.7209,-3.7993,-3.8422,-3.8741,-3.8879,-3.9154,-3.9355,-3.9121,-3.9104,-3.8923,-3.875,-3.8738,-3.8988,-3.9171,-3.9322,-3.9538,-3.9753,-3.9945,-4.0172,-4.0436,-4.0574,-4.0749,-4.1122,-4.1357,-4.1472,-4.1784,-4.1996,-4.2125,-4.2508,-4.279,-4.319,-2.7878,-2.7689,-2.7423,-2.7044,-2.6554,-2.6363,-2.6409,-2.6591,-2.6591,-2.6591,-2.6646,-2.6854,-2.6899,-2.6963,-2.7098,-2.7161,-2.7152,-2.7476,-2.7691,-2.7906,-2.8023,-2.813,-2.8291,-2.8398,-2.8514,-2.8684,-2.893,-2.93,-2.9764,-3.0183,-3.0651,-3.1075,-3.1127,-3.1322,-3.168,-3.1732,-3.1834,-3.1986,-3.2128,-3.2331,-3.2633,-3.2996,-3.3147,-3.3158,-3.317,-3.3147,-3.3158,-3.3469,-3.363,-3.363,-3.3939,-3.4014,-3.3878,-3.3878,-3.3779,-3.363,-3.3767,-3.3932,-3.4099,-3.4209,-3.427,-3.4281,-3.4329,-3.4533,-3.4966,-3.5134,-3.5482,-3.6036,-3.6358,-3.6546,-3.6546,-3.664,-3.6633,-3.6557,-3.6611,-3.6565,-3.6443,-3.6512,-3.6454,-3.6293,-3.6051,-3.6016,-3.6291,-3.7044,-3.783,-3.8469,-3.893,-3.9222,-3.9534,-3.9802,-3.9844,-3.9769,-3.9688,-3.9438,-3.8991,-3.892,-3.8971,-3.8937,-3.898,-3.9104,-3.9322,-3.9517,-3.9732,-4.0016,-4.0121,-4.0316,-4.0715,-4.0817,-4.0935,-4.1321,-4.1653,-4.185,-4.2157,-4.2429,-4.2728,-2.7551,-2.7155,-2.6787,-2.6365,-2.5971,-2.6072,-2.6236,-2.6473,-2.6527,-2.6591,-2.6591,-2.6591,-2.6591,-2.6636,-2.6791,-2.689,-2.6944,-2.7152,-2.7431,-2.7638,-2.7799,-2.8023,-2.8184,-2.8291,-2.8408,-2.8568,-2.8674,-2.9036,-2.9606,-3.0088,-3.0453,-3.0672,-3.0672,-3.0827,-3.1075,-3.1137,-3.127,-3.1476,-3.1772,-3.1874,-3.1913,-3.2139,-3.2342,-3.2493,-3.2493,-3.2493,-3.2493,-3.2869,-3.3069,-3.3081,-3.3469,-3.3568,-3.3419,-3.3369,-3.3331,-3.3231,-3.353,-3.3878,-3.42,-3.4335,-3.4482,-3.4677,-3.4775,-3.4872,-3.5078,-3.5175,-3.5368,-3.5716,-3.6086,-3.6323,-3.6405,-3.6417,-3.6499,-3.6628,-3.6662,-3.6658,-3.6636,-3.6722,-3.6786,-3.6524,-3.6318,-3.632,-3.6974,-3.7578,-3.8135,-3.8727,-3.924,-3.973,-4.0095,-4.0199,-4.0219,-4.0168,-4.0168,-3.988,-3.9344,-3.9035,-3.8952,-3.8911,-3.884,-3.8797,-3.8943,-3.9141,-3.9373,-3.9625,-3.9747,-3.996,-4.0296,-4.0401,-4.0505,-4.0848,-4.1221,-4.1505,-4.1703,-4.1996,-4.2222,-2.6902,-2.6514,-2.6047,-2.5781,-2.5743,-2.5953,-2.6127,-2.619,-2.6473,-2.6591,-2.6582,-2.6591,-2.6591,-2.6591,-2.6636,-2.6636,-2.6636,-2.689,-2.7043,-2.7152,-2.7638,-2.7906,-2.7906,-2.8184,-2.8291,-2.8354,-2.8568,-2.8993,-2.9554,-2.9879,-3.0151,-3.0401,-3.0401,-3.0557,-3.0827,-3.1023,-3.1178,-3.1281,-3.1465,-3.1618,-3.1618,-3.1669,-3.1936,-3.2392,-3.2493,-3.2443,-3.2443,-3.2505,-3.2555,-3.2544,-3.2606,-3.2594,-3.2606,-3.2594,-3.2718,-3.2942,-3.3381,-3.3679,-3.3767,-3.4101,-3.4384,-3.4482,-3.464,-3.4775,-3.4884,-3.503,-3.5175,-3.5223,-3.5716,-3.6098,-3.6323,-3.637,-3.6405,-3.6439,-3.6581,-3.6684,-3.6718,-3.7027,-3.7136,-3.6819,-3.6881,-3.7139,-3.7568,-3.7665,-3.8091,-3.868,-3.9118,-3.9438,-3.9686,-3.9906,-4.0112,-4.0272,-4.029,-4.0167,-3.9591,-3.933,-3.912,-3.8904,-3.8745,-3.8582,-3.8686,-3.8855,-3.9068,-3.9265,-3.9373,-3.9568,-3.9889,-4.0101,-4.0207,-4.052,-4.0864,-4.112,-4.1239,-4.1456,-4.1687,-2.6705,-2.6071,-2.5448,-2.5258,-2.5404,-2.5505,-2.5734,-2.6127,-2.6236,-2.6418,-2.6591,-2.6591,-2.6591,-2.6591,-2.6591,-2.6591,-2.6591,-2.6682,-2.6845,-2.7043,-2.7422,-2.7691,-2.7906,-2.8184,-2.8301,-2.8291,-2.8398,-2.8717,-2.9237,-2.9606,-2.9879,-3.0088,-3.0151,-3.0308,-3.0505,-3.0661,-3.0858,-3.1178,-3.1322,-3.1424,-3.1567,-3.1567,-3.1732,-3.1924,-3.1936,-3.1924,-3.1936,-3.2077,-3.2179,-3.219,-3.2392,-3.2493,-3.2493,-3.2493,-3.2555,-3.2656,-3.298,-3.3281,-3.3419,-3.3767,-3.4101,-3.4384,-3.4482,-3.4628,-3.4787,-3.4872,-3.503,-3.5175,-3.5368,-3.5656,-3.6038,-3.6275,-3.6417,-3.6405,-3.6452,-3.6581,-3.6675,-3.6862,-3.6972,-3.6991,-3.7215,-3.7475,-3.7566,-3.782,-3.8214,-3.8612,-3.889,-3.9158,-3.9407,-3.9628,-3.9862,-4.0067,-4.014,-4.0145,-4.0167,-3.9867,-3.9556,-3.8982,-3.863,-3.8442,-3.8434,-3.8545,-3.8716,-3.8826,-3.8936,-3.9141,-3.943,-3.9732,-3.9874,-4.0137,-4.0486,-4.0677,-4.0765,-4.1021,-4.1272,-2.6168,-2.5675,-2.496,-2.4812,-2.5072,-2.5174,-2.5505,-2.5962,-2.6072,-2.63,-2.6591,-2.6591,-2.6591,-2.6591,-2.6591,-2.6591,-2.6591,-2.6591,-2.6691,-2.6899,-2.7152,-2.7422,-2.7745,-2.8023,-2.8237,-2.8291,-2.8398,-2.8664,-2.9079,-2.9438,-2.9711,-2.9994,-2.9994,-3.0099,-3.0245,-3.0339,-3.0599,-3.092,-3.1127,-3.127,-3.1476,-3.1578,-3.1567,-3.1567,-3.1567,-3.1567,-3.1629,-3.1772,-3.1863,-3.1913,-3.2077,-3.2179,-3.2229,-3.2291,-3.2331,-3.2392,-3.2617,-3.288,-3.3131,-3.3431,-3.3779,-3.415,-3.4335,-3.4482,-3.4677,-3.4726,-3.4872,-3.503,-3.5175,-3.5368,-3.5716,-3.6038,-3.6323,-3.637,-3.6417,-3.6452,-3.6593,-3.6662,-3.6815,-3.7036,-3.7222,-3.7344,-3.7384,-3.7684,-3.8024,-3.8317,-3.8562,-3.8787,-3.9038,-3.9261,-3.954,-3.9747,-3.9834,-4.0009,-4.0074,-3.9956,-3.9899,-3.9437,-3.875,-3.847,-3.8313,-3.835,-3.8387,-3.8433,-3.8553,-3.876,-3.898,-3.9286,-3.9553,-3.9783,-3.9996,-4.0211,-4.0385,-4.0608,-4.0799,-2.5194,-2.5293,-2.4679,-2.4543,-2.4812,-2.5072,-2.5395,-2.5679,-2.5962,-2.6245,-2.6527,-2.6591,-2.6591,-2.6591,-2.6591,-2.6591,-2.6591,-2.6591,-2.6636,-2.6691,-2.689,-2.7161,-2.7422,-2.7799,-2.8077,-2.8291,-2.8568,-2.8834,-2.9122,-2.9396,-2.9711,-2.9942,-2.9994,-2.9994,-3.0047,-3.0245,-3.0401,-3.0547,-3.0909,-3.1178,-3.123,-3.1424,-3.1567,-3.1567,-3.1567,-3.1567,-3.1567,-3.1629,-3.1618,-3.1618,-3.1618,-3.1618,-3.1669,-3.1874,-3.2015,-3.2077,-3.2342,-3.2606,-3.283,-3.3142,-3.3431,-3.3717,-3.4113,-3.4347,-3.4482,-3.4628,-3.4775,-3.4872,-3.5017,-3.5211,-3.532,-3.5668,-3.6038,-3.637,-3.6358,-3.6405,-3.6452,-3.6581,-3.6815,-3.7015,-3.7121,-3.7108,-3.7142,-3.7374,-3.7631,-3.7848,-3.8122,-3.8349,-3.8589,-3.88,-3.9024,-3.9247,-3.9482,-3.9659,-3.9834,-3.9984,-4.0025,-3.9886,-3.9185,-3.8649,-3.8539,-3.8505,-3.8366,-3.8379,-3.8298,-3.8508,-3.8649,-3.8943,-3.9141,-3.9358,-3.9574,-3.9753,-3.9895,-4.0071,-4.0281,-2.5052,-2.5078,-2.4631,-2.4432,-2.4543,-2.4812,-2.5072,-2.5395,-2.5679,-2.5962,-2.6245,-2.6473,-2.6591,-2.6591,-2.6591,-2.6591,-2.6591,-2.6591,-2.6591,-2.6646,-2.689,-2.7152,-2.7431,-2.7745,-2.8023,-2.8291,-2.8398,-2.8654,-2.9026,-2.9185,-2.9511,-2.9889,-2.9994,-2.9994,-2.9994,-3.0088,-3.0193,-3.0401,-3.0547,-3.0713,-3.0931,-3.1178,-3.1322,-3.1322,-3.1516,-3.1567,-3.1567,-3.1567,-3.1567,-3.1567,-3.1567,-3.1567,-3.1629,-3.168,-3.1732,-3.1772,-3.1975,-3.2179,-3.2342,-3.2729,-3.3131,-3.3431,-3.3717,-3.4064,-3.4335,-3.4482,-3.4628,-3.4726,-3.4872,-3.4969,-3.5175,-3.532,-3.5656,-3.6051,-3.6275,-3.6417,-3.6417,-3.6452,-3.6581,-3.6769,-3.6815,-3.6922,-3.7062,-3.7214,-3.7248,-3.7374,-3.771,-3.8044,-3.8135,-3.8453,-3.8679,-3.8814,-3.9038,-3.9261,-3.9438,-3.9615,-3.9786,-3.9799,-3.934,-3.8912,-3.8805,-3.862,-3.8449,-3.8285,-3.8207,-3.8185,-3.8366,-3.8538,-3.8738,-3.8958,-3.9177,-3.9286,-3.9394,-3.9634,-3.9939,-2.4628,-2.4622,-2.4338,-2.432,-2.4432,-2.4654,-2.497,-2.5229,-2.5569,-2.5852,-2.6127,-2.6418,-2.6591,-2.6591,-2.6591,-2.6591,-2.6591,-2.6591,-2.6591,-2.6646,-2.6791,-2.7053,-2.7431,-2.7853,-2.813,-2.8291,-2.8291,-2.8504,-2.893,-2.9079,-2.9343,-2.9774,-2.9942,-2.9994,-2.9994,-2.9994,-3.0099,-3.0245,-3.0339,-3.0495,-3.0672,-3.0931,-3.1023,-3.1086,-3.123,-3.1333,-3.1424,-3.1487,-3.1465,-3.1578,-3.1567,-3.1567,-3.1567,-3.1567,-3.1567,-3.1618,-3.1772,-3.1924,-3.2015,-3.2353,-3.2718,-3.3081,-3.3381,-3.3729,-3.4101,-3.4237,-3.4482,-3.4628,-3.4775,-3.4884,-3.503,-3.5163,-3.538,-3.5668,-3.6038,-3.6275,-3.637,-3.6417,-3.6452,-3.6581,-3.6581,-3.6675,-3.6781,-3.6922,-3.6956,-3.7002,-3.7341,-3.7618,-3.771,-3.8044,-3.8226,-3.8408,-3.8679,-3.8859,-3.9051,-3.923,-3.9482,-3.9516,-3.9461,-3.9187,-3.9005,-3.8813,-3.8589,-3.83,-3.8165,-3.7887,-3.7976,-3.8142,-3.8329,-3.8553,-3.8738,-3.8922,-3.9061,-3.9512,-3.9866,-2.4031,-2.3982,-2.39,-2.4089,-2.4376,-2.4654,-2.4923,-2.5174,-2.5514,-2.5798,-2.6081,-2.6354,-2.6591,-2.6591,-2.6591,-2.6591,-2.6591,-2.6591,-2.6591,-2.6591,-2.6691,-2.6909,-2.7422,-2.797,-2.8237,-2.8291,-2.8301,-2.8461,-2.8737,-2.8973,-2.928,-2.9606,-2.9879,-2.9994,-2.9994,-2.9994,-2.9994,-3.0047,-3.0245,-3.0349,-3.0401,-3.0672,-3.0776,-3.0776,-3.0827,-3.0972,-3.1127,-3.1178,-3.1322,-3.1516,-3.1567,-3.1567,-3.1567,-3.1567,-3.1567,-3.1567,-3.1629,-3.1772,-3.1913,-3.2066,-3.2291,-3.2768,-3.3081,-3.3392,-3.3679,-3.4052,-3.4298,-3.4384,-3.4592,-3.4775,-3.4823,-3.4981,-3.5175,-3.5284,-3.5764,-3.6086,-3.631,-3.637,-3.6405,-3.6405,-3.6417,-3.6417,-3.6499,-3.6581,-3.6675,-3.6722,-3.6956,-3.7095,-3.7201,-3.7526,-3.7802,-3.8044,-3.8272,-3.8485,-3.8679,-3.8917,-3.9083,-3.9152,-3.9216,-3.9257,-3.9212,-3.9033,-3.8652,-3.8399,-3.8182,-3.789,-3.7739,-3.7992,-3.8045,-3.8156,-3.8329,-3.8538,-3.8891,-3.9362,-3.9852,-2.3914,-2.363,-2.3844,-2.3968,-2.4089,-2.4599,-2.4821,-2.4915,-2.5238,-2.5514,-2.5852,-2.6081,-2.6354,-2.6591,-2.6591,-2.6591,-2.6591,-2.6591,-2.6591,-2.6591,-2.6591,-2.6899,-2.7431,-2.8023,-2.8301,-2.8301,-2.8291,-2.8451,-2.8674,-2.8973,-2.9237,-2.9606,-2.9837,-2.9994,-2.9994,-2.9994,-2.9994,-2.9994,-3.0047,-3.0099,-3.0151,-3.036,-3.0505,-3.0505,-3.0672,-3.0776,-3.0879,-3.0931,-3.1127,-3.1567,-3.1567,-3.1567,-3.1567,-3.1567,-3.1567,-3.1567,-3.1567,-3.1618,-3.1721,-3.1874,-3.2077,-3.224,-3.2718,-3.3081,-3.3392,-3.3668,-3.3965,-3.4162,-3.4408,-3.4494,-3.4531,-3.4775,-3.4981,-3.5223,-3.562,-3.6003,-3.6098,-3.6275,-3.6417,-3.6417,-3.6417,-3.6417,-3.6405,-3.6452,-3.6499,-3.6546,-3.6687,-3.6815,-3.6909,-3.7062,-3.7387,-3.7631,-3.7861,-3.8076,-3.8304,-3.8544,-3.8679,-3.8724,-3.8899,-3.9169,-3.9193,-3.9252,-3.8838,-3.8379,-3.8412,-3.8166,-3.806,-3.8147,-3.8057,-3.8026,-3.8285,-3.8654,-3.8895,-3.9305,-3.9833,-2.3769,-2.3308,-2.361,-2.3809,-2.3977,-2.4423,-2.471,-2.4821,-2.5072,-2.5395,-2.5679,-2.6017,-2.6291,-2.6591,-2.6591,-2.6591,-2.6591,-2.6591,-2.6591,-2.6636,-2.6854,-2.7116,-2.7485,-2.8023,-2.8301,-2.8301,-2.8301,-2.8398,-2.8568,-2.893,-2.9175,-2.9396,-2.9827,-2.9994,-2.9994,-2.9994,-3.0005,-2.9994,-2.9994,-2.9994,-2.9994,-3.0151,-3.0245,-3.0245,-3.0412,-3.0516,-3.0609,-3.0724,-3.1023,-3.1322,-3.1424,-3.1476,-3.1567,-3.1567,-3.1567,-3.1567,-3.1567,-3.1567,-3.1618,-3.1772,-3.1874,-3.2026,-3.2392,-3.2718,-3.3081,-3.3381,-3.363,-3.3927,-3.4162,-3.4298,-3.4433,-3.4628,-3.4835,-3.503,-3.5416,-3.5716,-3.5824,-3.6051,-3.6181,-3.6228,-3.6323,-3.6417,-3.6417,-3.6417,-3.6417,-3.6405,-3.6487,-3.6534,-3.6628,-3.6815,-3.7015,-3.7248,-3.7492,-3.7723,-3.7939,-3.8167,-3.8317,-3.8349,-3.844,-3.8769,-3.9054,-3.9237,-3.8954,-3.8544,-3.8589,-3.8531,-3.8347,-3.8273,-3.8349,-3.8425,-3.8589,-3.878,-3.9056,-3.9479,-3.9995,-2.3649,-2.3014,-2.3368,-2.3641,-2.3921,-2.4264,-2.4543,-2.4821,-2.5026,-2.534,-2.5679,-2.5962,-2.6236,-2.6591,-2.6591,-2.6591,-2.6591,-2.6591,-2.6591,-2.6745,-2.7062,-2.7377,-2.7431,-2.8014,-2.8237,-2.8301,-2.8301,-2.8291,-2.8451,-2.8814,-2.9079,-2.9268,-2.972,-2.9983,-3.0056,-3.0056,-3.0056,-3.0005,-2.9994,-2.9994,-2.9994,-3.0047,-3.0047,-3.0047,-3.0047,-3.0193,-3.0349,-3.0557,-3.0827,-3.1127,-3.1116,-3.1281,-3.1476,-3.1527,-3.1578,-3.1567,-3.1567,-3.1567,-3.1567,-3.1618,-3.1721,-3.1924,-3.1975,-3.219,-3.2667,-3.3019,-3.3281,-3.353,-3.3878,-3.4064,-3.4347,-3.458,-3.4738,-3.4775,-3.503,-3.5271,-3.5476,-3.5764,-3.5968,-3.6015,-3.6241,-3.6323,-3.6417,-3.6417,-3.6417,-3.6417,-3.6452,-3.6452,-3.6487,-3.6581,-3.6722,-3.6862,-3.7108,-3.7366,-3.7585,-3.7756,-3.7893,-3.7985,-3.8031,-3.8304,-3.8657,-3.8803,-3.8853,-3.874,-3.8716,-3.8541,-3.8352,-3.8394,-3.8533,-3.8627,-3.868,-3.8996,-3.9384,-3.9893,-4.0428,-2.3649,-2.3014,-2.3352,-2.3641,-2.3921,-2.4264,-2.4543,-2.4821,-2.4868,-2.5191,-2.5633,-2.5789,-2.6081,-2.6591,-2.6591,-2.6591,-2.6591,-2.6591,-2.6591,-2.6691,-2.7171,-2.7377,-2.7539,-2.8023,-2.8291,-2.8301,-2.8301,-2.8301,-2.8398,-2.8611,-2.8877,-2.9192,-2.9764,-3.0124,-3.0118,-3.0356,-3.0336,-3.0077,-2.9994,-2.9994,-2.9994,-2.9994,-2.9994,-2.9994,-2.9994,-3.0047,-3.0047,-3.0151,-3.0297,-3.0557,-3.0765,-3.0972,-3.123,-3.1281,-3.1384,-3.1527,-3.1578,-3.1567,-3.1567,-3.1567,-3.1618,-3.1721,-3.1874,-3.2066,-3.2179,-3.2493,-3.2757,-3.3031,-3.3342,-3.3618,-3.4064,-3.4347,-3.4494,-3.4531,-3.4726,-3.4932,-3.5017,-3.5416,-3.5729,-3.592,-3.6063,-3.6181,-3.637,-3.6405,-3.6405,-3.6417,-3.6417,-3.6417,-3.6452,-3.6439,-3.6534,-3.6628,-3.6815,-3.7062,-3.7201,-3.7433,-3.7526,-3.7618,-3.7664,-3.7756,-3.816,-3.8405,-3.8448,-3.8581,-3.8795,-3.859,-3.8417,-3.8464,-3.8637,-3.8697,-3.8755,-3.9061,-3.948,-4.0125,-4.0492,-2.3699,-2.303,-2.3191,-2.3528,-2.3865,-2.4097,-2.4423,-2.4765,-2.4821,-2.5145,-2.5624,-2.5679,-2.6026,-2.6591,-2.6591,-2.6591,-2.6591,-2.6591,-2.6591,-2.6745,-2.7116,-2.7377,-2.7539,-2.797,-2.8301,-2.8301,-2.8301,-2.8301,-2.8354,-2.8587,-2.8996,-2.9434,-2.9964,-3.0409,-3.0584,-3.0688,-3.0553,-3.0336,-3.0087,-2.9994,-2.9994,-2.9994,-2.9994,-2.9994,-2.9994,-2.9994,-2.9994,-2.9994,-3.0088,-3.0193,-3.0349,-3.062,-3.0931,-3.1034,-3.1137,-3.1384,-3.1424,-3.1476,-3.1527,-3.1567,-3.1567,-3.1567,-3.171,-3.1874,-3.1975,-3.2179,-3.2392,-3.2656,-3.2869,-3.3119,-3.3668,-3.4064,-3.4211,-3.4298,-3.4494,-3.4628,-3.4677,-3.5066,-3.5416,-3.5656,-3.5812,-3.6003,-3.6193,-3.6275,-3.6405,-3.6405,-3.6417,-3.6417,-3.6417,-3.6452,-3.6439,-3.6534,-3.6615,-3.6756,-3.6909,-3.7049,-3.7201,-3.7248,-3.7294,-3.7353,-3.7559,-3.7789,-3.8018,-3.8277,-3.8522,-3.8675,-3.8562,-3.8654,-3.8661,-3.8795,-3.8942,-3.9155,-3.9424,-3.9863,-4.0147,-2.3602,-2.3014,-2.3014,-2.3352,-2.3857,-2.3921,-2.4256,-2.4765,-2.4821,-2.5145,-2.5633,-2.5679,-2.6026,-2.6473,-2.6591,-2.6591,-2.6591,-2.6591,-2.6591,-2.6691,-2.7171,-2.7377,-2.7539,-2.797,-2.8301,-2.8301,-2.8301,-2.8301,-2.8354,-2.8544,-2.8926,-2.9607,-3.0113,-3.0557,-3.1055,-3.1102,-3.0853,-3.0615,-3.0325,-3.0077,-3.0015,-2.9994,-2.9994,-2.9994,-2.9994,-2.9994,-2.9994,-2.9994,-2.9994,-2.9994,-2.9994,-3.0266,-3.0527,-3.0734,-3.0827,-3.1127,-3.1178,-3.1333,-3.1476,-3.1527,-3.1567,-3.1567,-3.1618,-3.1669,-3.1874,-3.1975,-3.2128,-3.2342,-3.2544,-3.2706,-3.317,-3.3618,-3.3878,-3.4014,-3.42,-3.4347,-3.4445,-3.4775,-3.5017,-3.5271,-3.556,-3.5764,-3.6003,-3.6181,-3.6263,-3.6405,-3.6405,-3.6417,-3.6417,-3.6417,-3.6405,-3.6452,-3.6534,-3.6581,-3.6687,-3.6734,-3.6875,-3.6922,-3.6968,-3.7015,-3.7074,-3.7248,-3.7526,-3.7952,-3.82,-3.831,-3.8387,-3.8371,-3.8505,-3.8774,-3.8912,-3.8955,-3.9275,-3.9662,-3.9763,-2.3387,-2.3014,-2.3014,-2.3352,-2.3857,-2.3921,-2.4256,-2.4765,-2.4821,-2.5145,-2.5624,-2.5734,-2.6026,-2.6473,-2.6591,-2.6591,-2.6591,-2.6591,-2.6591,-2.6691,-2.7116,-2.7377,-2.7539,-2.797,-2.8291,-2.8301,-2.8301,-2.8301,-2.8291,-2.8374,-2.8834,-2.948,-3.0103,-3.0685,-3.1154,-3.1392,-3.136,-3.0905,-3.0615,-3.0367,-3.0139,-3.0015,-2.9994,-2.9994,-2.9994,-2.9994,-2.9994,-2.9994,-2.9994,-2.9994,-2.9994,-3.0047,-3.0203,-3.0349,-3.0609,-3.0817,-3.1023,-3.1178,-3.1281,-3.1476,-3.1578,-3.1567,-3.1578,-3.1567,-3.1669,-3.1721,-3.1874,-3.2077,-3.2342,-3.2555,-3.2594,-3.3108,-3.3381,-3.353,-3.3817,-3.4113,-3.4162,-3.4396,-3.4726,-3.503,-3.5271,-3.5512,-3.5764,-3.6003,-3.6181,-3.6275,-3.637,-3.6417,-3.6417,-3.6417,-3.6417,-3.6417,-3.6417,-3.6452,-3.6465,-3.6499,-3.6559,-3.6606,-3.664,-3.6687,-3.6734,-3.6769,-3.7002,-3.7387,-3.7618,-3.7651,-3.7789,-3.7939,-3.8122,-3.8304,-3.853,-3.8724,-3.889,-3.9069,-3.9145,-2.3282,-2.3022,-2.3014,-2.3352,-2.3865,-2.3921,-2.4256,-2.4765,-2.4821,-2.5145,-2.5569,-2.5743,-2.6026,-2.6473,-2.6591,-2.6591,-2.6591,-2.6591,-2.6591,-2.6745,-2.7116,-2.7431,-2.7485,-2.8014,-2.8237,-2.8301,-2.8301,-2.8301,-2.8291,-2.8291,-2.8805,-2.9639,-3.0289,-3.0848,-3.1462,-3.1824,-3.176,-3.135,-3.0957,-3.0605,-3.0336,-3.016,-3.0015,-2.9994,-2.9994,-2.9994,-2.9994,-2.9994,-2.9994,-2.9994,-2.9994,-2.9994,-3.0047,-3.0151,-3.0297,-3.0557,-3.0765,-3.0868,-3.0972,-3.1127,-3.123,-3.1373,-3.1373,-3.1476,-3.1578,-3.1618,-3.1629,-3.1823,-3.2026,-3.224,-3.228,-3.2645,-3.2869,-3.2969,-3.3369,-3.363,-3.3779,-3.4003,-3.4396,-3.4787,-3.5078,-3.5271,-3.5476,-3.5764,-3.6003,-3.6193,-3.6348,-3.6433,-3.6471,-3.6568,-3.6644,-3.6493,-3.648,-3.6417,-3.6417,-3.6417,-3.6417,-3.6417,-3.6417,-3.6499,-3.6499,-3.6593,-3.6593,-3.6734,-3.6922,-3.7155,-3.7294,-3.7479,-3.7664,-3.7848,-3.8031,-3.8226,-3.8317,-3.8453,-3.853,-2.3219,-2.3014,-2.3014,-2.3352,-2.3857,-2.3921,-2.4256,-2.471,-2.4821,-2.5145,-2.5633,-2.5734,-2.6026,-2.6473,-2.6591,-2.6591,-2.6591,-2.6591,-2.6636,-2.68,-2.7161,-2.7431,-2.7647,-2.797,-2.8301,-2.8301,-2.8301,-2.8301,-2.8301,-2.8301,-2.8849,-2.953,-3.0138,-3.0954,-3.1686,-3.1989,-3.1978,-3.1771,-3.1402,-3.0946,-3.0636,-3.0346,-3.0067,-3.0005,-2.9994,-2.9994,-2.9994,-2.9994,-2.9994,-2.9994,-2.9994,-2.9994,-2.9994,-2.9994,-3.0099,-3.0297,-3.0391,-3.0505,-3.0672,-3.0827,-3.0983,-3.1086,-3.1127,-3.123,-3.1333,-3.1384,-3.1435,-3.1527,-3.168,-3.1874,-3.1975,-3.2229,-3.2392,-3.2493,-3.2857,-3.3181,-3.3331,-3.3618,-3.4014,-3.4396,-3.4787,-3.509,-3.5308,-3.5477,-3.5718,-3.629,-3.6459,-3.678,-3.6853,-3.6998,-3.7021,-3.6719,-3.6568,-3.6443,-3.6417,-3.6417,-3.6417,-3.6417,-3.6417,-3.6465,-3.6465,-3.6465,-3.6477,-3.655,-3.664,-3.6875,-3.6968,-3.7062,-3.7248,-3.7433,-3.7572,-3.7664,-3.7756,-3.7861,-3.7985,-2.3054,-2.3014,-2.3014,-2.3352,-2.3865,-2.3921,-2.4256,-2.4765,-2.4821,-2.5145,-2.5688,-2.5734,-2.6026,-2.6473,-2.6591,-2.6591,-2.6591,-2.6636,-2.6682,-2.6954,-2.7269,-2.7539,-2.7862,-2.813,-2.8291,-2.8301,-2.8301,-2.8301,-2.8301,-2.8301,-2.8535,-2.9123,-2.9842,-3.0462,-3.1291,-3.1972,-3.2122,-3.2039,-3.1853,-3.1474,-3.0833,-3.0626,-3.0367,-3.0139,-3.0005,-2.9994,-2.9994,-2.9994,-2.9994,-2.9994,-2.9994,-2.9994,-2.9994,-2.9994,-2.9994,-3.0099,-3.0256,-3.0453,-3.0505,-3.062,-3.0724,-3.0827,-3.0817,-3.0879,-3.0983,-3.0983,-3.1086,-3.123,-3.1333,-3.1424,-3.1618,-3.1874,-3.2026,-3.2179,-3.2392,-3.2718,-3.293,-3.3231,-3.3618,-3.4014,-3.4396,-3.4835,-3.5163,-3.5332,-3.5526,-3.6075,-3.6615,-3.6935,-3.7207,-3.7267,-3.7327,-3.7064,-3.6973,-3.6895,-3.6895,-3.682,-3.6722,-3.6621,-3.6669,-3.6656,-3.6719,-3.6769,-3.6505,-3.6565,-3.6609,-3.6653,-3.6734,-3.6828,-3.6875,-3.7015,-3.7188,-3.7201,-3.7201,-3.7294,-3.7479,-2.3014,-2.3014,-2.3014,-2.3352,-2.3865,-2.3921,-2.4256,-2.471,-2.4821,-2.5145,-2.5624,-2.5679,-2.6026,-2.6527,-2.6591,-2.6591,-2.6591,-2.6591,-2.6736,-2.6989,-2.7269,-2.7584,-2.7906,-2.813,-2.8291,-2.8301,-2.8301,-2.8301,-2.8301,-2.834,-2.8516,-2.8906,-2.9632,-3.0254,-3.0924,-3.1852,-3.2152,-3.2169,-3.2035,-3.1702,-3.1184,-3.0833,-3.0594,-3.0387,-3.0139,-3.0036,-2.9994,-2.9994,-2.9994,-2.9994,-2.9994,-2.9994,-2.9994,-2.9994,-2.9994,-2.9994,-3.0099,-3.0193,-3.0193,-3.0308,-3.0412,-3.0557,-3.0609,-3.0661,-3.0724,-3.0776,-3.0776,-3.0983,-3.0983,-3.1075,-3.1322,-3.1476,-3.1629,-3.1783,-3.2026,-3.2229,-3.2505,-3.288,-3.3231,-3.3618,-3.4049,-3.4513,-3.5074,-3.5549,-3.5793,-3.621,-3.6702,-3.7109,-3.732,-3.7382,-3.7444,-3.7418,-3.7416,-3.7437,-3.7475,-3.7487,-3.7426,-3.7364,-3.7364,-3.7374,-3.7287,-3.7199,-3.6948,-3.6671,-3.6666,-3.6638,-3.6584,-3.6581,-3.664,-3.6734,-3.6769,-3.6815,-3.6922,-3.7062,-3.7248,-2.3014,-2.3014,-2.3014,-2.336,-2.3921,-2.3921,-2.4256,-2.4765,-2.4821,-2.5145,-2.5641,-2.5852,-2.619,-2.6527,-2.6591,-2.6591,-2.6591,-2.6591,-2.6791,-2.6989,-2.726,-2.7593,-2.7916,-2.813,-2.8301,-2.8301,-2.8301,-2.8301,-2.8301,-2.832,-2.8457,-2.8789,-2.9473,-3.0033,-3.0674,-3.1428,-3.1988,-3.2234,-3.2169,-3.1901,-3.1578,-3.1247,-3.0946,-3.0657,-3.0377,-3.0118,-3.0015,-2.9994,-2.9994,-2.9994,-2.9994,-2.9994,-2.9994,-2.9994,-2.9994,-2.9994,-3.0047,-3.0047,-3.0047,-3.0099,-3.0141,-3.0245,-3.0339,-3.0349,-3.0516,-3.062,-3.0672,-3.0661,-3.0724,-3.0827,-3.1023,-3.1137,-3.1281,-3.1476,-3.1669,-3.1823,-3.2026,-3.2443,-3.2942,-3.3438,-3.3892,-3.4387,-3.5011,-3.5693,-3.61,-3.6361,-3.6781,-3.7276,-3.7501,-3.7665,-3.7653,-3.7679,-3.7506,-3.7543,-3.7556,-3.7705,-3.7817,-3.7954,-3.7954,-3.7804,-3.758,-3.7467,-3.7316,-3.7077,-3.6849,-3.6807,-3.6842,-3.6606,-3.6417,-3.6499,-3.6581,-3.6628,-3.6675,-3.6862,-3.6956,-2.3014,-2.3014,-2.3014,-2.336,-2.3921,-2.3921,-2.4256,-2.4821,-2.4821,-2.5145,-2.5743,-2.6254,-2.6482,-2.6591,-2.6591,-2.6591,-2.6591,-2.6591,-2.6791,-2.6999,-2.726,-2.7584,-2.7906,-2.813,-2.8301,-2.8301,-2.8301,-2.8301,-2.8301,-2.8301,-2.832,-2.8447,-2.9339,-2.9734,-3.0307,-3.1033,-3.1757,-3.2076,-3.2193,-3.2112,-3.1917,-3.1694,-3.145,-3.0905,-3.0667,-3.045,-3.0046,-3.0067,-3.0015,-3.0015,-2.9994,-2.9994,-2.9994,-2.9994,-2.9994,-2.9994,-2.9994,-2.9994,-2.9994,-2.9994,-2.9994,-3.0047,-3.0047,-3.0099,-3.0203,-3.0099,-3.0203,-3.0401,-3.0464,-3.0568,-3.0724,-3.0838,-3.0993,-3.1286,-3.1503,-3.1676,-3.1848,-3.2026,-3.2527,-3.3172,-3.3742,-3.4307,-3.5027,-3.5774,-3.6323,-3.6588,-3.7148,-3.7658,-3.7907,-3.8086,-3.7991,-3.7894,-3.7538,-3.7416,-3.7355,-3.7528,-3.7926,-3.7976,-3.7963,-3.7765,-3.7491,-3.7443,-3.7568,-3.7444,-3.7244,-3.7166,-3.705,-3.6841,-3.6618,-3.6448,-3.649,-3.6625,-3.6562,-3.6593,-3.6675,-2.3014,-2.3014,-2.3191,-2.3528,-2.3921,-2.3921,-2.4256,-2.4765,-2.4821,-2.5145,-2.5734,-2.63,-2.6591,-2.6591,-2.6591,-2.6591,-2.6591,-2.6591,-2.6791,-2.6999,-2.7314,-2.7584,-2.7853,-2.813,-2.8301,-2.8301,-2.8301,-2.8301,-2.8301,-2.8301,-2.8506,-2.8799,-2.9277,-2.9538,-3.0023,-3.0744,-3.1466,-3.1845,-3.196,-3.1954,-3.1899,-3.1799,-3.1579,-3.1302,-3.112,-3.0884,-3.0512,-3.0439,-3.0253,-3.0087,-3.0025,-3.0025,-2.9994,-2.9994,-2.9994,-3.0015,-3.0015,-3.0046,-3.0015,-3.0015,-2.9994,-2.9994,-2.9994,-2.9994,-2.9994,-2.9994,-3.0057,-3.0151,-3.0203,-3.0308,-3.0505,-3.0579,-3.0725,-3.1155,-3.1438,-3.1573,-3.1726,-3.1929,-3.2259,-3.2926,-3.3657,-3.4325,-3.5103,-3.5899,-3.6383,-3.6868,-3.7416,-3.7919,-3.8097,-3.8315,-3.8172,-3.8127,-3.7873,-3.7876,-3.7839,-3.7988,-3.8138,-3.8037,-3.8001,-3.7876,-3.7753,-3.7796,-3.785,-3.774,-3.7542,-3.7357,-3.7196,-3.7023,-3.691,-3.6805,-3.6774,-3.6795,-3.6669,-3.6496,-3.6546,-2.3014,-2.3014,-2.3352,-2.3641,-2.3913,-2.3977,-2.4312,-2.4765,-2.4821,-2.5145,-2.5734,-2.6309,-2.6591,-2.6591,-2.6591,-2.6591,-2.6591,-2.6636,-2.6745,-2.6954,-2.7215,-2.753,-2.7799,-2.8067,-2.8301,-2.8301,-2.8301,-2.8301,-2.8301,-2.8301,-2.8525,-2.8896,-2.9346,-2.9636,-3.0008,-3.0679,-3.1334,-3.1556,-3.1672,-3.174,-3.1775,-3.1744,-3.1543,-3.1477,-3.1394,-3.1175,-3.09,-3.0799,-3.0646,-3.0398,-3.0222,-3.0139,-3.0056,-2.9994,-2.9994,-3.0036,-3.0118,-3.0191,-3.018,-3.0046,-3.0015,-2.9994,-2.9994,-2.9994,-3.0005,-3.0005,-3.0057,-2.9994,-3.0047,-3.0099,-3.0308,-3.0444,-3.0716,-3.118,-3.1487,-3.1657,-3.1813,-3.1958,-3.2282,-3.2712,-3.3496,-3.4366,-3.4978,-3.5749,-3.6402,-3.6867,-3.7381,-3.7695,-3.7849,-3.8043,-3.8178,-3.8182,-3.8174,-3.8327,-3.8477,-3.8254,-3.8056,-3.8092,-3.8092,-3.823,-3.8157,-3.8142,-3.8096,-3.8062,-3.7829,-3.7536,-3.7427,-3.7454,-3.732,-3.7183,-3.7107,-3.7069,-3.6934,-3.6823,-3.6772,-2.3014,-2.3014,-2.336,-2.3641,-2.3977,-2.4264,-2.4552,-2.4821,-2.4876,-2.52,-2.5743,-2.6364,-2.6591,-2.6591,-2.6591,-2.6591,-2.6591,-2.6591,-2.6636,-2.68,-2.7161,-2.7368,-2.7647,-2.797,-2.8301,-2.8301,-2.8301,-2.8301,-2.8301,-2.8301,-2.8545,-2.9043,-2.9541,-2.9912,-3.0215,-3.0644,-3.1044,-3.1276,-3.1325,-3.1498,-3.1594,-3.1649,-3.1486,-3.1341,-3.1503,-3.134,-3.1048,-3.1175,-3.1003,-3.0706,-3.0677,-3.0501,-3.016,-3.0108,-3.0087,-3.0087,-3.0439,-3.0615,-3.0646,-3.0263,-3.018,-3.0212,-3.0325,-3.0253,-3.0118,-3.0067,-3.0087,-3.017,-3.0036,-3.0005,-3.0192,-3.0409,-3.0809,-3.1166,-3.1473,-3.1772,-3.1945,-3.2019,-3.2348,-3.2776,-3.3569,-3.4357,-3.4892,-3.5486,-3.6256,-3.6858,-3.7334,-3.753,-3.7572,-3.7679,-3.7826,-3.7933,-3.7986,-3.8104,-3.8157,-3.8092,-3.7991,-3.8039,-3.8092,-3.8185,-3.825,-3.8146,-3.8162,-3.8275,-3.8096,-3.7758,-3.7812,-3.7954,-3.7747,-3.7501,-3.738,-3.7282,-3.7207,-3.7096,-3.6998,-2.3135,-2.336,-2.3641,-2.3929,-2.4256,-2.432,-2.4535,-2.4812,-2.52,-2.5523,-2.5789,-2.6364,-2.6591,-2.6591,-2.6591,-2.6591,-2.6591,-2.6591,-2.6591,-2.6691,-2.7161,-2.7323,-2.7593,-2.797,-2.8291,-2.8301,-2.8301,-2.8301,-2.8301,-2.8301,-2.875,-2.9307,-2.9951,-3.0478,-3.0644,-3.085,-3.1005,-3.0995,-3.1054,-3.1112,-3.1228,-3.1383,-3.1419,-3.1239,-3.1526,-3.1485,-3.1101,-3.136,-3.1291,-3.0922,-3.0969,-3.0861,-3.05,-3.0396,-3.045,-3.045,-3.0698,-3.0843,-3.1019,-3.0977,-3.0936,-3.0915,-3.0833,-3.0822,-3.0895,-3.0594,-3.0501,-3.0367,-3.018,-3.0108,-3.0067,-3.0429,-3.0815,-3.1244,-3.1592,-3.1934,-3.2131,-3.2189,-3.2373,-3.2998,-3.3704,-3.4362,-3.4945,-3.5143,-3.5761,-3.6266,-3.6657,-3.7089,-3.7197,-3.7239,-3.74,-3.7465,-3.7572,-3.7679,-3.7732,-3.7785,-3.7826,-3.788,-3.7933,-3.8027,-3.808,-3.8039,-3.8027,-3.7967,-3.7976,-3.7984,-3.7899,-3.7839,-3.7887,-3.7794,-3.7518,-3.7382,-3.7313,-3.7216,-3.7132,-2.336,-2.3641,-2.3921,-2.42,-2.4376,-2.4487,-2.4646,-2.4868,-2.5412,-2.5679,-2.5844,-2.6354,-2.6591,-2.6591,-2.6591,-2.6591,-2.6591,-2.6591,-2.6591,-2.6691,-2.7171,-2.7323,-2.7593,-2.797,-2.8237,-2.8301,-2.8301,-2.8301,-2.8301,-2.8301,-2.876,-2.9551,-3.043,-3.0732,-3.0869,-3.0879,-3.0898,-3.0947,-3.0947,-3.0947,-3.1005,-3.1054,-3.116,-3.1179,-3.1391,-3.1464,-3.1378,-3.1398,-3.1426,-3.1213,-3.114,-3.1162,-3.0908,-3.0807,-3.0797,-3.0915,-3.1122,-3.1381,-3.1743,-3.1868,-3.1847,-3.1836,-3.1609,-3.1402,-3.135,-3.106,-3.0967,-3.0801,-3.0481,-3.0429,-3.0481,-3.0822,-3.1114,-3.1553,-3.1896,-3.225,-3.2201,-3.2253,-3.2537,-3.311,-3.3569,-3.4261,-3.4759,-3.4958,-3.5179,-3.5566,-3.595,-3.6375,-3.6754,-3.6862,-3.6916,-3.7036,-3.7197,-3.7304,-3.7411,-3.7518,-3.7572,-3.7667,-3.772,-3.7761,-3.7655,-3.756,-3.7613,-3.772,-3.7636,-3.7601,-3.7607,-3.7607,-3.7589,-3.7582,-3.7491,-3.7429,-3.7463,-3.7404,-3.7331,-2.3641,-2.3977,-2.4264,-2.4376,-2.4432,-2.4654,-2.4765,-2.4876,-2.5412,-2.5679,-2.5734,-2.6309,-2.6591,-2.6591,-2.6591,-2.6591,-2.6591,-2.6591,-2.6591,-2.6745,-2.7161,-2.7323,-2.7593,-2.7979,-2.8247,-2.8301,-2.8301,-2.8301,-2.8301,-2.8545,-2.8984,-2.959,-3.0459,-3.0791,-3.0898,-3.0898,-3.0898,-3.0898,-3.0898,-3.0898,-3.0947,-3.0947,-3.1005,-3.1054,-3.1141,-3.1247,-3.1273,-3.1484,-3.1418,-3.1274,-3.118,-3.1076,-3.0964,-3.0911,-3.1151,-3.1375,-3.1719,-3.2188,-3.2457,-3.2509,-3.254,-3.2375,-3.1919,-3.1588,-3.1485,-3.1505,-3.1412,-3.1257,-3.0998,-3.1102,-3.1226,-3.1371,-3.1536,-3.194,-3.2354,-3.2421,-3.2286,-3.2423,-3.2675,-3.3103,-3.3423,-3.3843,-3.4155,-3.4356,-3.4579,-3.4802,-3.5179,-3.5566,-3.6004,-3.6495,-3.6549,-3.6657,-3.682,-3.7024,-3.7078,-3.7131,-3.7292,-3.74,-3.7346,-3.7346,-3.7185,-3.7185,-3.7346,-3.7346,-3.7239,-3.7185,-3.7334,-3.7334,-3.7215,-3.7222,-3.7323,-3.7358,-3.734,-3.7524,-3.7536,-2.3977,-2.4264,-2.4376,-2.4487,-2.4654,-2.4765,-2.4821,-2.4876,-2.5412,-2.5679,-2.5743,-2.6364,-2.6591,-2.6591,-2.6591,-2.6591,-2.6591,-2.6591,-2.6591,-2.68,-2.7107,-2.7323,-2.7593,-2.797,-2.8184,-2.8301,-2.8301,-2.831,-2.8447,-2.874,-2.915,-2.9734,-3.041,-3.0752,-3.0879,-3.0898,-3.0898,-3.0898,-3.0898,-3.0898,-3.0898,-3.0898,-3.0898,-3.0947,-3.0995,-3.1054,-3.1112,-3.1276,-3.1311,-3.1271,-3.1471,-3.1432,-3.1085,-3.1035,-3.1213,-3.1543,-3.2061,-3.2545,-3.2649,-3.2669,-3.2669,-3.2669,-3.2406,-3.2416,-3.2261,-3.2033,-3.1857,-3.1702,-3.1464,-3.1454,-3.1567,-3.1723,-3.1878,-3.2168,-3.2463,-3.2571,-3.2457,-3.2535,-3.2788,-3.2979,-3.331,-3.348,-3.3738,-3.3805,-3.4019,-3.4142,-3.4423,-3.4802,-3.5246,-3.5785,-3.6114,-3.6223,-3.6332,-3.6495,-3.67,-3.6754,-3.697,-3.7131,-3.697,-3.6862,-3.6916,-3.6916,-3.7078,-3.697,-3.6808,-3.6916,-3.7131,-3.7024,-3.6754,-3.7024,-3.715,-3.7215,-3.7292,-3.74,-3.7453,-2.4256,-2.4543,-2.4543,-2.4654,-2.4765,-2.4821,-2.4876,-2.5026,-2.5523,-2.5679,-2.5798,-2.6309,-2.6591,-2.6591,-2.6591,-2.6591,-2.6591,-2.6591,-2.6591,-2.6691,-2.7053,-2.7152,-2.7422,-2.7799,-2.8067,-2.8184,-2.8237,-2.8301,-2.8476,-2.8896,-2.9336,-2.9685,-3.0322,-3.0654,-3.084,-3.0898,-3.0898,-3.0898,-3.0898,-3.0898,-3.0898,-3.0898,-3.0898,-3.0898,-3.0898,-3.0898,-3.0947,-3.1112,-3.1112,-3.117,-3.1392,-3.1399,-3.1167,-3.1271,-3.1442,-3.1777,-3.2148,-3.2436,-3.2545,-3.2669,-3.2669,-3.2669,-3.2669,-3.2628,-3.2556,-3.237,-3.2297,-3.224,-3.193,-3.1723,-3.1868,-3.1946,-3.2101,-3.2313,-3.2452,-3.2649,-3.2659,-3.2649,-3.2773,-3.2944,-3.3126,-3.3285,-3.3353,-3.3399,-3.3512,-3.3749,-3.3918,-3.4076,-3.4579,-3.5179,-3.5522,-3.5742,-3.5797,-3.5961,-3.6114,-3.6266,-3.632,-3.6386,-3.6223,-3.6223,-3.6429,-3.6429,-3.6277,-3.6332,-3.632,-3.6429,-3.6483,-3.6375,-3.6211,-3.6495,-3.6549,-3.644,-3.6592,-3.697,-3.7024,-2.4607,-2.4821,-2.4821,-2.4821,-2.4821,-2.4821,-2.497,-2.5221,-2.5569,-2.5734,-2.5852,-2.6354,-2.6591,-2.6591,-2.6591,-2.6591,-2.6591,-2.6591,-2.6591,-2.6636,-2.689,-2.7043,-2.7206,-2.752,-2.7799,-2.796,-2.8014,-2.8087,-2.8301,-2.868,-2.9137,-2.957,-3.0029,-3.0459,-3.084,-3.0889,-3.0898,-3.0898,-3.0898,-3.0898,-3.0898,-3.0898,-3.0898,-3.0898,-3.0898,-3.0898,-3.0898,-3.0957,-3.0898,-3.0898,-3.0947,-3.1092,-3.1237,-3.1496,-3.1622,-3.1795,-3.2045,-3.218,-3.2315,-3.244,-3.2612,-3.2612,-3.2669,-3.2669,-3.2618,-3.2587,-3.2525,-3.2494,-3.225,-3.2199,-3.2313,-3.2246,-3.2318,-3.2432,-3.2576,-3.2669,-3.2669,-3.2669,-3.2727,-3.2841,-3.2841,-3.3012,-3.3069,-3.3126,-3.3182,-3.3409,-3.3579,-3.3636,-3.3907,-3.4524,-3.4858,-3.5146,-3.5368,-3.5478,-3.5533,-3.5632,-3.5577,-3.5522,-3.5522,-3.5632,-3.5895,-3.5742,-3.5478,-3.5632,-3.5895,-3.5687,-3.5632,-3.5687,-3.573,-3.5742,-3.5742,-3.5522,-3.5797,-3.6266,-3.6429,-2.4757,-2.4821,-2.4821,-2.4821,-2.4821,-2.4821,-2.497,-2.5221,-2.5569,-2.5789,-2.6072,-2.6418,-2.6591,-2.6591,-2.6591,-2.6591,-2.6591,-2.6591,-2.6591,-2.6691,-2.6836,-2.6944,-2.7053,-2.7314,-2.753,-2.753,-2.7593,-2.7809,-2.8003,-2.8394,-2.892,-2.957,-2.9961,-3.0361,-3.0859,-3.0898,-3.0898,-3.0898,-3.0898,-3.0898,-3.0898,-3.0898,-3.0898,-3.0898,-3.0898,-3.0898,-3.0898,-3.0898,-3.0898,-3.0898,-3.0898,-3.0947,-3.0995,-3.1276,-3.1383,-3.1498,-3.173,-3.1913,-3.2028,-3.2201,-3.2373,-3.2498,-3.2555,-3.2612,-3.2669,-3.2669,-3.2659,-3.2628,-3.2618,-3.2618,-3.2664,-3.2545,-3.2504,-3.2597,-3.2669,-3.2669,-3.2669,-3.2669,-3.2669,-3.2669,-3.2669,-3.2727,-3.2851,-3.2851,-3.2851,-3.3022,-3.3193,-3.3306,-3.3409,-3.3805,-3.4142,-3.4423,-3.4924,-3.5035,-3.5035,-3.5035,-3.4969,-3.508,-3.5135,-3.5246,-3.5312,-3.5135,-3.4969,-3.5312,-3.5478,-3.5202,-3.508,-3.5368,-3.5412,-3.5191,-3.5135,-3.4969,-3.5035,-3.5455,-3.5566,-2.4821,-2.4821,-2.4821,-2.4821,-2.4821,-2.4821,-2.5026,-2.5404,-2.5624,-2.5907,-2.6291,-2.6527,-2.6591,-2.6591,-2.6591,-2.6591,-2.6591,-2.6591,-2.6591,-2.6691,-2.6736,-2.6791,-2.6944,-2.7107,-2.7215,-2.7215,-2.7377,-2.7558,-2.7695,-2.8074,-2.8604,-2.9325,-2.977,-3.0244,-3.0762,-3.0898,-3.0898,-3.0898,-3.0898,-3.0898,-3.0898,-3.0898,-3.0898,-3.0898,-3.0898,-3.0898,-3.0898,-3.0898,-3.0898,-3.0898,-3.0898,-3.0898,-3.0947,-3.1054,-3.1102,-3.1218,-3.1392,-3.1566,-3.1672,-3.1845,-3.2076,-3.2143,-3.2201,-3.2258,-3.2201,-3.2201,-3.244,-3.2467,-3.2649,-3.2649,-3.2649,-3.2607,-3.2597,-3.2649,-3.2669,-3.2669,-3.2669,-3.2669,-3.2669,-3.2669,-3.2669,-3.2669,-3.2727,-3.2727,-3.2784,-3.2794,-3.2965,-3.3022,-3.3079,-3.3193,-3.3477,-3.3703,-3.4199,-3.4367,-3.4255,-3.43,-3.4356,-3.4524,-3.4747,-3.4579,-3.4468,-3.4524,-3.4579,-3.4691,-3.4691,-3.4524,-3.4524,-3.4747,-3.4635,-3.4356,-3.4412,-3.4468,-3.4579,-3.4646,-3.4635,-2.4821,-2.4821,-2.4821,-2.4821,-2.4821,-2.4876,-2.5136,-2.5633,-2.5743,-2.6072,-2.6527,-2.6582,-2.6591,-2.6591,-2.6591,-2.6591,-2.6591,-2.6591,-2.6591,-2.6591,-2.6636,-2.6691,-2.6736,-2.6845,-2.6899,-2.6999,-2.7116,-2.7215,-2.7387,-2.7672,-2.815,-2.8959,-2.9531,-3.0019,-3.0635,-3.0898,-3.0898,-3.0898,-3.0898,-3.0898,-3.0898,-3.0898,-3.0898,-3.0898,-3.0898,-3.0898,-3.0898,-3.0898,-3.0898,-3.0898,-3.0898,-3.0898,-3.0898,-3.0947,-3.0947,-3.0995,-3.1112,-3.1218,-3.1334,-3.1556,-3.1672,-3.173,-3.173,-3.1787,-3.1797,-3.1913,-3.2143,-3.2315,-3.2498,-3.2669,-3.2669,-3.2669,-3.2669,-3.2669,-3.2669,-3.2669,-3.2669,-3.2669,-3.2669,-3.2669,-3.2669,-3.2669,-3.2669,-3.2669,-3.2669,-3.2669,-3.2669,-3.2669,-3.2727,-3.2898,-3.3126,-3.3239,-3.3466,-3.3523,-3.3636,-3.3738,-3.3907,-3.3963,-3.4076,-3.3794,-3.3681,-3.3907,-3.4019,-3.3851,-3.3794,-3.3907,-3.3851,-3.4019,-3.3794,-3.3681,-3.3907,-3.4076,-3.3963,-3.3963,-3.3738,-2.4821,-2.4821,-2.4821,-2.4821,-2.4821,-2.5017,-2.5348,-2.5688,-2.5907,-2.6245,-2.6527,-2.6591,-2.6591,-2.6591,-2.6591,-2.6591,-2.6591,-2.6591,-2.6591,-2.6591,-2.6591,-2.6591,-2.6636,-2.6691,-2.6691,-2.6745,-2.6854,-2.6909,-2.7053,-2.7253,-2.7839,-2.9008,-2.9132,-2.9773,-3.0732,-3.0898,-3.0898,-3.0898,-3.0898,-3.0898,-3.0898,-3.0898,-3.0898,-3.0898,-3.0898,-3.0898,-3.0898,-3.0898,-3.0898,-3.0898,-3.0898,-3.0898,-3.0898,-3.0898,-3.0898,-3.0898,-3.1005,-3.1005,-3.1112,-3.1276,-3.1392,-3.145,-3.1498,-3.1682,-3.1682,-3.1672,-3.1855,-3.1913,-3.2143,-3.243,-3.2498,-3.2612,-3.2669,-3.2669,-3.2669,-3.2669,-3.2669,-3.2669,-3.2669,-3.2669,-3.2669,-3.2669,-3.2669,-3.2669,-3.2669,-3.2669,-3.2669,-3.2669,-3.2669,-3.2784,-3.2841,-3.2898,-3.2955,-3.3239,-3.3523,-3.3523,-3.3568,-3.3568,-3.3568,-3.3399,-3.3455,-3.3568,-3.3568,-3.3399,-3.3455,-3.3625,-3.3568,-3.3399,-3.3523,-3.3523,-3.3568,-3.3681,-3.3512,-3.3409,-3.3296]},{"header":{"parameterUnit":"m.s-1","parameterCategory":1,"la1":31.0,"la2":29.5877,"lo1":-88.7671,"lo2":-86.6584,"dy":0.0162,"dx":0.0185,"nx":115,"ny":88,"refTime":"2023-04-19T12:00:00:Z","depth":0,"parameterNumber":3,"parameterNumberName":"V-component_of_WINDS"},"data":[0.0,0.0,0.0,0.0,0.0,0.0,0.0,0.0,0.0,0.0,0.0,0.0,0.0,0.0,0.0,0.0,0.0,0.0,0.0,0.0,0.0,0.0,0.0,0.0,0.0,0.0,0.0,0.0,0.0,0.0,0.0,0.0,0.0,0.0,0.0,0.0,0.0,0.0,0.0,0.0,0.0,0.0,0.0,0.0,0.0,0.0,0.0,0.0,0.0,0.0,0.0,0.0,0.0,0.0,0.0,0.0,0.0,0.0,0.0,0.0,0.0,0.0,0.0,0.0,0.0,0.0,0.0,0.0,0.0,0.0,0.0,0.0,0.0,0.0,0.0,0.0,0.0,0.0,0.0,0.0,0.0,0.0,0.0,0.0,0.0,0.0,0.0,0.0,0.0,0.0,0.0,0.0,0.0,0.0,0.0,0.0,0.0,0.0,0.0,0.0,0.0,0.0,0.0,0.0,0.0,0.0,0.0,0.0,0.0,0.0,0.0,0.0,0.0,0.0,0.0,0.0,0.0,0.0,0.0,0.0,0.0,0.0,0.0,0.0,0.0,0.0,0.0,0.0,0.0,0.0,0.0,0.0,0.0,0.0,0.0,0.0,0.0,0.0,0.0,0.0,0.0,0.0,0.0,0.0,0.0,0.0,0.0,0.0,0.0,0.0,0.0,0.0,0.0,0.0,0.0,0.0,0.0,0.0,0.0,0.0,0.0,0.0,0.0,0.0,0.0,0.0,0.0,0.0,0.0,0.0,0.0,0.0,0.0,0.0,0.0,0.0,0.0,0.0,0.0,0.0,0.0,0.0,0.0,0.0,0.0,0.0,0.0,0.0,0.0,0.0,0.0,0.0,0.0,0.0,0.0,0.0,0.0,0.0,0.0,0.0,0.0,0.0,0.0,0.0,0.0,0.0,0.0,0.0,0.0,0.0,0.0,0.0,0.0,0.0,0.0,0.0,0.0,0.0,0.0,0.0,0.0,0.0,0.0,0.0,0.0,0.0,0.0,0.0,0.0,0.0,0.0,0.0,0.0,0.0,0.0,0.0,0.0,0.0,0.0,0.0,0.0,0.0,0.0,0.0,0.0,0.0,0.0,0.0,0.0,0.0,0.0,0.0,0.0,0.0,0.0,0.0,0.0,0.0,0.0,0.0,0.0,0.0,0.0,0.0,0.0,0.0,0.0,0.0,0.0,0.0,0.0,0.0,0.0,0.0,0.0,0.0,0.0,0.0,0.0,0.0,0.0,0.0,0.0,0.0,0.0,0.0,0.0,0.0,0.0,0.0,0.0,0.0,0.0,0.0,0.0,0.0,0.0,0.0,0.0,0.0,0.0,0.0,0.0,0.0,0.0,0.0,0.0,0.0,0.0,0.0,0.0,0.0,0.0,0.0,0.0,0.0,0.0,0.0,0.0,0.0,0.0,0.0,0.0,0.0,0.0,0.0,0.0,0.0,0.0,0.0,0.0,0.0,0.0,0.0,0.0,0.0,0.0,0.0,0.0,0.0,0.0,0.0,0.0,0.0,0.0,0.0,0.0,0.0,0.0,0.0,0.0,0.0,0.0,0.0,0.0,0.0,0.0,0.0,0.0,0.0,0.0,0.0,0.0,0.0,0.0,0.0,0.0,0.0,0.0,0.0,0.0,0.0,0.0,0.0,0.0,0.0,0.0,0.0,0.0,0.0,0.0,0.0,0.0,0.0,0.0,0.0,0.0,0.0,0.0,0.0,0.0,0.0,0.0,0.0,0.0,0.0,0.0,0.0,0.0,0.0,0.0,0.0,0.0,0.0,0.0,0.0,0.0,0.0,0.0,0.0,0.0,0.0,0.0,0.0,0.0,0.0,0.0,0.0,0.0,0.0,0.0,0.0,0.0,0.0,0.0,0.0,0.0,0.0,0.0,0.0,0.0,0.0,0.0,0.0,0.0,0.0,0.0,0.0,0.0,0.0,0.0,0.0,0.0,0.0,0.0,0.0,0.0,0.0,0.0,0.0,0.0,0.0,0.0,0.0,0.0,0.0,0.0,0.0,0.0,0.0,0.0,0.0,0.0,0.0,0.0,0.0,0.0,0.0,0.0,0.0,0.0,0.0,0.0,0.0,0.0,0.0,0.0,0.0,0.0,0.0,0.0,0.0,0.0,0.0,0.0,0.0,0.0,0.0,0.0,0.0,0.0,0.0,0.0,0.0,0.0,0.0,0.0,0.0,0.0,0.0,0.0,0.0,0.0,0.0,0.0,0.0,0.0,0.0,0.0,0.0,0.0,0.0,0.0,0.0,0.0,0.0,0.0,0.0,0.0,0.0,0.0,0.0,0.0,0.0,0.0,0.0,0.0,0.0,0.0,0.0,0.0,0.0,0.0,0.0,0.0,0.0,0.0,0.0,0.0,0.0,0.0,0.0,0.0,0.0,0.0,0.0,0.0,0.0,0.0,0.0,0.0,0.0,0.0,0.0,0.0,0.0,0.0,0.0,0.0,0.0,0.0,0.0,0.0,0.0,0.0,0.0,0.0,0.0,0.0,0.0,0.0,0.0,0.0,0.0,0.0,0.0,0.0,0.0,0.0,0.0,0.0,0.0,0.0,0.0,0.0,0.0,0.0,0.0,0.0,0.0,0.0,0.0,0.0,0.0,0.0,0.0,0.0,0.0,0.0,0.0,0.0,0.0,0.0,0.0,0.0,0.0,0.0,0.0,0.0,0.0,0.0,0.0,0.0,0.0,0.0,0.0,0.0,0.0,0.0,0.0,0.0,0.0,0.0,0.0,0.0,0.0,0.0,0.0,0.0,0.0,0.0,0.0,0.0,0.0,0.0,0.0,0.0,0.0,0.0,0.0,0.0,0.0,0.0,0.0,0.0,0.0,0.0,0.0,0.0,0.0,0.0,0.0,0.0,0.0,0.0,0.0,0.0,0.0,0.0,0.0,0.0,0.0,0.0,0.0,0.0,0.0,0.0,0.0,0.0,0.0,0.0,0.0,0.0,0.0,0.0,0.0,0.0,0.0,0.0,0.0,0.0,0.0,0.0,0.0,0.0,0.0,0.0,0.0,0.0,0.0,0.0,0.0,0.0,0.0,0.0,0.0,0.0,0.0,0.0,0.0,0.0,0.0,0.0,0.0,0.0,0.0,0.0,0.0,0.0,0.0,0.0,0.0,0.0,0.0,0.0,0.0,0.0,0.0,0.0,0.0,0.0,0.0,0.0,0.0,0.0,0.0,0.0,0.0,0.0,0.0,0.0,0.0,0.0,0.0,0.0,0.0,0.0,0.0,0.0,0.0,0.0,0.0,0.0,0.0,0.0,0.0,0.0,0.0,0.0,0.0,0.0,0.0,0.0,0.0,0.0,0.0,0.0,0.0,0.0,0.0,0.0,0.0,0.0,0.0,0.0,0.0,0.0,0.0,0.0,0.0,0.0,0.0,0.0,0.0,0.0,0.0,0.0,0.0,0.0,0.0,0.0,0.0,0.0,0.0,0.0,0.0,0.0,0.0,0.0,0.0,0.0,0.0,0.0,0.0,0.0,0.0,0.0,0.0,0.0,0.0,0.0,0.0,0.0,0.0,0.0,0.0,0.0,0.0,0.0,0.0,0.0,0.0,0.0,0.0,0.0,0.0,0.0,0.0,0.0,0.0,0.0,0.0,0.0,0.0,0.0,0.0,0.0,0.0,0.0,0.0,0.0,0.0,0.0,0.0,0.0,0.0,0.0,0.0,0.0,0.0,0.0,0.0,0.0,0.0,0.0,0.0,0.0,0.0,0.0,0.0,0.0,0.0,0.0,0.0,0.0,0.0,0.0,0.0,0.0,0.0,0.0,0.0,0.0,0.0,0.0,0.0,0.0,0.0,0.0,0.0,0.0,0.0,0.0,0.0,0.0,0.0,0.0,0.0,0.0,0.0,0.0,0.0,0.0,0.0,0.0,0.0,0.0,0.0,0.0,0.0,0.0,0.0,0.0,0.0,0.0,0.0,0.0,0.0,0.0,0.0,0.0,0.0,0.0,0.0,0.0,0.0,0.0,0.0,0.0,0.0,0.0,0.0,0.0,0.0,0.0,0.0,0.0,0.0,0.0,0.0,0.0,0.0,0.0,0.0,0.0,0.0,0.0,0.0,0.0,0.0,0.0,0.0,0.0,0.0,0.0,0.0,0.0,0.0,0.0,0.0,0.0,0.0,0.0,0.0,0.0,0.0,0.0,0.0,0.0,0.0,0.0,0.0,0.0,0.0,0.0,0.0,0.0,0.0,0.0,0.0,0.0,0.0,0.0,0.0,0.0,0.0,1.2976,0.0,0.0,0.0,0.0,0.0,0.0,0.0,0.0,0.0,0.0,0.0,0.0,0.0,0.0,0.0,0.0,0.0,0.0,0.0,0.0,0.0,0.0,0.0,0.0,0.0,0.0,0.0,0.0,0.0,0.0,0.0,0.0,0.0,0.0,0.0,0.0,0.0,0.0,0.0,0.0,0.0,0.0,0.0,0.0,0.0,0.0,0.0,0.0,0.0,0.0,0.0,0.0,0.0,0.0,0.0,0.0,0.0,0.0,0.0,0.0,0.0,0.0,0.0,0.0,0.0,0.0,0.0,0.0,0.0,0.0,0.0,0.0,0.0,0.0,0.0,0.0,0.0,0.0,0.0,0.0,0.0,0.0,0.0,0.0,0.0,0.0,0.0,0.0,0.0,0.0,0.0,0.0,0.0,0.0,0.0,0.0,0.0,0.0,0.0,0.0,0.0,0.0,0.0,0.0,0.0,0.0,0.0,0.0,0.0,0.0,1.2718,1.2713,1.2985,1.3259,1.3635,0.0,0.0,0.0,0.0,0.0,0.0,0.0,0.0,0.0,0.0,0.0,0.0,0.0,0.0,0.0,0.0,0.0,0.0,0.0,0.0,0.0,0.0,0.0,0.0,0.0,0.0,0.0,0.0,0.0,0.0,0.0,0.0,0.0,0.0,0.0,0.0,0.0,0.0,0.0,0.0,0.0,0.0,0.0,0.0,0.0,0.0,0.0,0.0,0.0,0.0,0.0,0.0,0.0,0.0,0.0,0.0,0.0,0.0,0.0,0.0,0.0,0.0,0.0,0.0,0.0,0.0,0.0,0.0,0.0,0.0,0.0,0.0,0.0,0.0,0.0,0.0,0.0,0.0,0.0,0.0,0.0,0.0,0.0,0.0,0.0,0.0,0.0,0.0,0.0,0.0,0.0,0.0,0.0,0.0,0.0,0.0,0.0,0.0,0.0,0.0,0.0,0.0,0.0,0.0,0.0,0.0,0.0,0.0,0.0,0.0,0.0,0.0,1.364,1.404,1.4452,0.0,0.0,0.0,0.0,0.0,0.0,0.0,0.0,0.0,0.0,0.0,0.0,0.0,0.0,0.0,0.0,0.0,0.0,0.0,0.0,0.0,0.0,0.0,0.0,0.0,0.0,0.0,0.0,0.0,0.0,0.0,0.0,0.0,0.0,0.0,0.0,0.0,0.0,0.0,0.0,0.0,0.0,0.0,0.0,0.0,0.0,0.0,0.0,0.0,0.0,0.0,0.0,0.0,0.0,0.0,0.0,0.0,0.0,0.0,0.0,0.0,0.0,0.0,0.0,0.0,0.0,0.0,0.0,0.0,0.0,0.0,0.0,0.0,0.0,0.0,0.0,0.0,0.0,0.0,0.0,0.0,0.0,0.0,0.0,0.0,0.0,0.0,0.0,0.0,0.0,0.0,0.0,0.0,0.0,0.0,0.0,0.0,0.0,0.0,0.0,0.0,0.0,0.0,0.0,0.0,0.0,0.0,0.0,0.0,0.0,1.332,1.3315,1.3846,0.0,1.5321,0.0,0.0,0.0,0.0,0.0,0.0,0.0,0.0,0.0,0.0,0.0,0.0,0.0,0.0,0.0,0.0,0.0,0.0,0.0,0.0,0.0,0.0,0.0,0.0,0.0,0.0,0.0,0.0,0.0,0.0,0.0,0.0,0.0,0.0,0.0,0.0,0.0,0.0,0.0,0.0,0.0,0.0,0.0,0.0,0.0,0.0,0.0,0.0,0.0,0.0,0.0,0.0,0.0,0.0,0.0,0.0,0.0,0.0,0.0,0.0,0.0,0.0,0.0,0.0,0.0,0.0,0.0,0.0,0.0,0.0,0.0,0.0,0.0,0.0,0.0,0.0,0.0,0.0,0.0,0.0,0.0,0.0,0.0,0.0,0.0,0.0,0.0,0.0,0.0,0.0,0.0,0.0,0.0,0.0,0.0,0.0,0.0,0.0,0.0,0.0,0.0,0.0,0.0,0.0,0.0,0.0,0.0,0.0,0.0,0.0,1.4018,1.3862,1.4396,1.4984,0.0,0.0,0.0,0.0,0.0,0.0,0.0,0.0,0.0,0.0,0.0,0.0,0.0,0.0,0.0,0.0,0.0,0.0,0.0,0.0,0.0,0.0,0.0,0.0,0.0,0.0,0.0,0.0,0.0,0.0,0.0,0.0,0.0,0.0,0.0,0.0,0.0,0.0,0.0,0.0,0.0,0.0,0.0,0.0,0.0,0.0,0.0,0.0,0.0,0.0,0.0,0.0,0.0,0.0,0.0,0.0,0.0,0.0,0.0,0.0,0.0,0.0,0.0,0.0,0.0,0.0,0.0,0.0,0.0,0.0,0.0,0.0,0.0,0.0,0.0,0.0,0.0,0.0,0.0,0.0,0.0,0.0,0.0,0.0,0.0,0.0,0.0,0.0,0.0,0.0,0.0,0.0,0.0,0.0,0.0,0.0,0.0,0.0,0.0,0.0,0.0,0.0,0.0,0.0,0.0,0.0,0.0,0.0,0.0,0.0,1.486,1.4729,1.4559,1.4973,1.5517,1.6092,0.0,0.0,0.0,0.0,0.0,0.0,0.0,0.0,0.0,0.0,0.0,0.0,0.0,0.0,0.0,0.0,0.0,0.0,0.0,0.0,0.0,0.0,0.0,0.0,0.0,0.0,0.0,0.0,0.0,0.0,0.0,0.0,0.0,0.0,0.0,0.0,0.0,0.0,0.0,0.0,0.0,0.0,0.0,0.0,0.0,0.0,0.0,0.0,0.0,0.0,0.0,0.0,0.0,0.0,0.0,0.0,0.0,0.0,0.0,0.0,0.0,0.0,0.0,0.0,0.0,0.0,0.0,0.0,0.0,0.0,0.0,0.0,0.0,0.0,0.0,0.0,0.0,0.0,0.0,0.0,0.0,0.0,0.0,0.0,0.0,0.0,0.0,0.0,0.0,0.0,0.0,0.0,0.0,0.0,0.0,0.0,0.0,0.0,0.0,0.0,0.0,0.0,0.0,0.0,0.0,0.0,0.0,0.0,1.5794,1.5468,1.5361,1.5335,1.5701,1.6099,0.0,0.0,0.0,0.0,0.0,0.0,0.0,0.0,0.0,0.0,0.0,0.0,0.0,0.0,0.0,0.0,0.0,0.0,0.0,0.0,0.0,0.0,0.0,0.0,0.0,0.0,0.0,0.0,0.0,0.0,0.0,0.0,0.0,0.0,0.0,0.0,0.0,0.0,0.0,0.0,0.0,0.0,0.0,0.0,0.0,0.0,0.0,0.0,0.0,0.0,0.0,0.0,0.0,0.0,0.0,0.0,0.0,0.0,0.0,0.0,0.0,0.0,0.0,0.0,0.0,0.0,0.0,0.0,0.0,0.0,0.0,0.0,0.0,0.0,0.0,0.0,0.0,0.0,0.0,0.0,0.0,0.0,0.0,0.0,0.0,0.0,0.0,0.0,0.0,0.0,0.0,0.0,0.0,0.0,0.0,0.0,0.0,0.0,0.0,0.0,0.0,0.0,0.0,0.0,0.0,0.0,0.0,0.0,0.0,1.6127,1.584,1.5669,1.5759,1.597,1.6437,0.0,0.0,0.0,0.0,0.0,0.0,0.0,0.0,0.0,0.0,0.0,0.0,0.0,0.0,0.0,0.0,0.0,0.0,0.0,0.0,0.0,0.0,0.0,0.0,0.0,0.0,0.0,0.0,0.0,0.0,0.0,0.0,0.0,0.0,0.0,0.0,0.0,0.0,0.0,0.0,0.0,0.0,0.0,0.0,0.0,0.0,0.0,0.0,0.0,0.0,0.0,0.0,0.0,0.0,0.0,0.0,0.0,0.0,0.0,0.0,0.0,0.0,0.0,0.0,0.0,0.0,0.0,0.0,0.0,0.0,0.0,0.0,0.0,0.0,0.0,0.0,0.0,0.0,0.0,0.0,0.0,0.0,0.0,0.0,0.0,0.0,0.0,0.0,0.0,0.0,0.0,0.0,0.0,0.0,0.0,0.0,0.0,0.0,0.0,0.0,0.0,0.0,0.0,0.0,0.0,0.0,0.0,0.0,0.0,1.6549,0.0,1.6071,1.6109,1.6496,1.6921,0.0,0.0,0.0,0.0,0.0,0.0,0.0,0.0,0.0,0.0,0.0,0.0,0.0,0.0,0.0,0.0,0.0,0.0,0.0,0.0,0.0,0.0,0.0,0.0,0.0,0.0,0.0,0.0,0.0,0.0,0.0,0.0,0.0,0.0,0.0,0.0,0.0,0.0,0.0,0.0,0.0,0.0,0.0,0.0,0.0,0.0,0.0,0.0,0.0,0.0,0.0,0.0,0.0,0.0,0.0,0.0,0.0,0.0,0.0,0.0,0.0,0.0,0.0,0.0,0.0,0.0,0.0,0.0,0.0,0.0,0.0,0.0,0.0,0.0,0.0,0.0,0.0,0.0,0.0,0.0,0.0,0.0,0.0,0.0,0.0,0.0,0.0,0.0,0.0,0.0,0.0,0.0,0.0,0.0,0.0,0.0,0.0,0.0,0.0,0.0,0.0,0.0,0.0,0.0,0.0,0.0,0.0,0.0,1.7941,1.7067,1.6744,1.6612,1.6644,1.7266,1.758,0.0,0.0,0.0,0.0,0.0,0.0,0.0,0.0,0.0,0.0,0.0,0.0,0.0,0.0,0.0,0.0,0.0,0.0,0.0,0.0,0.0,0.0,0.0,0.0,0.0,0.0,0.0,0.0,0.0,0.0,0.0,0.0,0.0,0.0,0.0,0.0,0.0,0.0,0.0,0.0,0.0,0.0,0.0,0.0,0.0,0.0,0.0,0.0,0.0,0.0,0.0,0.0,0.0,0.0,0.0,0.0,0.0,0.0,0.0,0.0,0.0,0.0,0.0,0.0,0.0,0.0,0.0,0.0,0.0,0.0,0.0,0.0,0.0,0.0,0.0,0.0,0.0,0.0,0.0,0.0,0.0,0.0,0.0,0.0,0.0,0.0,0.0,0.0,0.0,0.0,0.0,0.0,0.0,0.0,0.0,0.0,0.0,0.0,0.0,0.0,0.0,0.0,0.0,0.0,0.0,0.0,0.0,0.0,0.0,1.7367,1.7283,1.7231,1.7307,1.765,1.8081,0.0,0.0,0.0,0.0,0.0,0.0,0.0,0.0,0.0,0.0,0.0,0.0,0.0,0.0,0.0,0.0,0.0,0.0,0.0,0.0,0.0,0.0,0.0,0.0,0.0,0.0,0.0,0.0,0.0,0.0,0.0,0.0,0.0,0.0,0.0,0.0,0.0,0.0,0.0,0.0,0.0,0.0,0.0,0.0,0.0,0.0,0.0,0.0,0.0,0.0,0.0,0.0,0.0,0.0,0.0,0.0,0.0,0.0,0.0,0.0,0.0,0.0,0.0,0.0,0.0,0.0,0.0,0.0,0.0,0.0,0.0,0.0,0.0,0.0,0.0,0.0,0.0,0.0,0.0,0.0,0.0,0.0,0.0,0.0,0.0,0.0,0.0,0.0,0.0,0.0,0.0,0.0,0.0,0.0,0.0,0.0,0.0,0.0,0.0,0.0,0.0,0.0,0.0,0.0,0.0,0.0,0.0,0.0,0.0,1.7866,1.7598,1.7591,1.778,1.8009,1.844,1.9059,0.0,0.0,0.0,0.0,0.0,0.0,0.0,0.0,0.0,0.0,0.0,0.0,0.0,0.0,0.0,0.0,0.0,0.0,0.0,0.0,0.0,0.0,0.0,0.0,0.0,0.0,0.0,0.0,0.0,0.0,0.0,0.0,0.0,0.0,0.0,0.0,0.0,0.0,0.0,0.0,0.0,0.0,0.0,0.0,0.0,0.0,0.0,0.0,0.0,0.0,0.0,0.0,0.0,0.0,0.0,0.0,0.0,0.0,0.0,0.0,0.0,0.0,0.0,0.0,0.0,0.0,0.0,0.0,0.0,0.0,0.0,0.0,0.0,0.0,0.0,0.0,0.0,0.0,0.0,0.0,0.0,0.0,0.0,0.0,0.0,0.0,0.0,0.0,0.0,0.0,0.0,0.0,0.0,0.0,0.0,0.0,0.0,0.0,0.0,0.0,0.0,0.0,0.0,0.0,0.0,0.0,0.0,0.0,1.8489,1.7885,1.7698,1.8014,1.8279,1.8748,0.0,0.0,0.0,0.0,0.0,0.0,0.0,0.0,0.0,0.0,0.0,0.0,0.0,0.0,0.0,0.0,0.0,0.0,0.0,0.0,0.0,0.0,0.0,0.0,0.0,0.0,0.0,0.0,0.0,0.0,0.0,0.0,0.0,0.0,0.0,0.0,0.0,0.0,0.0,0.0,0.0,0.0,0.0,0.0,0.0,0.0,0.0,0.0,0.0,0.0,0.0,0.0,0.0,0.0,0.0,0.0,0.0,0.0,0.0,0.0,0.0,0.0,0.0,0.0,0.0,0.0,0.0,0.0,0.0,0.0,0.0,0.0,0.0,0.0,0.0,0.0,0.0,0.0,0.0,0.0,0.0,0.0,0.0,0.0,0.0,0.0,0.0,0.0,0.0,0.0,0.0,0.0,0.0,0.0,0.0,0.0,0.0,0.0,0.0,0.0,0.0,0.0,0.0,0.0,0.0,0.0,0.0,0.0,0.0,1.9067,1.8667,1.8485,1.8559,1.8728,1.9111,0.0,0.0,0.0,0.0,0.0,0.0,0.0,0.0,0.0,0.0,0.0,0.0,0.0,0.0,0.0,0.0,0.0,0.0,0.0,0.0,0.0,0.0,0.0,0.0,0.0,0.0,0.0,0.0,0.0,0.0,0.0,0.0,0.0,0.0,0.0,0.0,0.0,0.0,0.0,0.0,0.0,0.0,0.0,0.0,0.0,0.0,0.0,0.0,0.0,0.0,0.0,0.0,0.0,0.0,0.0,0.0,0.0,0.0,0.0,0.0,0.0,0.0,0.0,0.0,0.0,0.0,0.0,0.0,0.0,0.0,0.0,0.0,0.0,0.0,0.0,0.0,0.0,0.0,0.0,0.0,0.0,0.0,0.0,0.0,0.0,0.0,0.0,0.0,0.0,0.0,0.0,0.0,0.0,0.0,0.0,0.0,0.0,0.0,0.0,0.0,0.0,0.0,0.0,0.0,0.0,0.0,0.0,0.0,2.0025,1.9667,1.9232,1.9111,1.9367,1.9173,1.9456,0.0,0.0,0.0,0.0,0.0,0.0,0.0,0.0,0.0,0.0,0.0,0.0,0.0,0.0,0.0,0.0,0.0,0.0,0.0,0.0,0.0,0.0,0.0,0.0,0.0,0.0,0.0,0.0,0.0,0.0,0.0,0.0,0.0,0.0,0.0,0.0,0.0,0.0,0.0,0.0,0.0,0.0,0.0,0.0,0.0,0.0,0.0,0.0,0.0,0.0,0.0,0.0,0.0,0.0,0.0,0.0,0.0,0.0,0.0,0.0,0.0,0.0,0.0,0.0,0.0,0.0,0.0,0.0,0.0,0.0,0.0,0.0,0.0,0.0,0.0,0.0,0.0,0.0,0.0,0.0,0.0,0.0,0.0,0.0,0.0,0.0,0.0,0.0,0.0,0.0,0.0,0.0,0.0,0.0,0.0,0.0,0.0,0.0,0.0,0.0,0.0,0.0,0.0,0.0,0.0,0.0,0.0,0.0,2.075,2.0328,1.9759,1.9685,2.0167,1.9693,1.9777,0.0,0.0,0.0,0.0,0.0,0.0,0.0,0.0,0.0,0.0,0.0,0.0,0.0,0.0,0.0,0.0,0.0,0.0,0.0,0.0,0.0,0.0,0.0,0.0,0.0,0.0,0.0,0.0,0.0,0.0,0.0,0.0,0.0,0.0,0.0,0.0,0.0,0.0,0.0,0.0,0.0,0.0,0.0,0.0,0.0,0.0,0.0,0.0,0.0,0.0,0.0,0.0,0.0,0.0,0.0,0.0,0.0,0.0,0.0,0.0,0.0,0.0,0.0,0.0,0.0,0.0,0.0,0.0,0.0,0.0,0.0,0.0,0.0,0.0,0.0,0.0,0.0,0.0,0.0,0.0,0.0,0.0,0.0,0.0,0.0,0.0,0.0,0.0,0.0,0.0,0.0,0.0,0.0,0.0,0.0,0.0,0.0,0.0,0.0,0.0,0.0,0.0,0.0,0.0,0.0,0.0,0.0,0.0,2.1898,2.1299,2.0926,2.0577,2.0187,2.0356,2.0565,0.0,0.0,0.0,0.0,0.0,0.0,0.0,0.0,0.0,0.0,0.0,0.0,0.0,0.0,0.0,0.0,0.0,0.0,0.0,0.0,0.0,0.0,0.0,0.0,0.0,0.0,0.0,0.0,0.0,0.0,0.0,0.0,0.0,0.0,0.0,0.0,0.0,0.0,0.0,0.0,0.0,0.0,0.0,0.0,0.0,0.0,0.0,0.0,1.2989,0.0,0.0,0.0,0.0,0.0,0.0,0.0,0.0,0.0,0.0,0.0,0.0,0.0,0.0,0.0,0.0,0.0,0.0,0.0,0.0,0.0,0.0,0.0,0.0,0.0,0.0,0.0,0.0,0.0,0.0,0.0,0.0,0.0,0.0,0.0,0.0,0.0,0.0,0.0,0.0,0.0,0.0,0.0,0.0,0.0,0.0,0.0,0.0,0.0,0.0,0.0,0.0,0.0,0.0,0.0,0.0,0.0,0.0,0.0,2.2714,2.2065,2.1888,2.1569,2.1108,2.151,2.1652,0.0,0.0,0.0,0.0,0.0,0.0,0.0,0.0,0.0,0.0,0.0,0.0,0.0,0.0,0.0,0.0,0.0,0.0,0.0,0.0,0.0,0.0,0.0,0.0,0.0,0.0,0.0,0.0,0.0,0.0,0.0,0.0,0.0,0.0,0.0,0.0,0.0,0.0,0.0,0.0,0.0,0.0,0.0,0.0,0.0,0.0,0.0,0.0,0.0,0.0,0.0,0.0,0.0,0.0,0.0,0.0,0.0,0.0,0.0,0.0,0.0,0.0,0.0,0.0,0.0,0.0,0.0,0.0,0.0,0.0,0.0,0.0,0.0,0.0,0.0,0.0,0.0,0.0,0.0,0.0,0.0,0.0,0.0,0.0,0.0,0.0,0.0,0.0,0.0,0.0,0.0,0.0,0.0,0.0,0.0,0.0,0.0,0.0,0.0,0.0,0.0,0.0,0.0,0.0,0.0,0.0,0.0,2.4082,2.3492,2.2859,2.2813,2.2621,2.2303,2.2811,2.2894,2.2277,0.0,0.0,0.0,0.0,0.0,0.0,0.0,0.0,0.0,0.0,0.0,0.0,0.0,0.0,0.0,0.0,0.0,0.0,0.0,0.0,0.0,0.0,0.0,0.0,0.0,0.0,0.0,0.0,0.0,0.0,0.0,0.0,0.0,0.0,0.0,0.0,0.0,0.0,1.9428,1.8475,0.0,0.0,0.0,0.0,0.0,0.0,0.0,0.0,1.4169,0.0,0.0,0.0,0.0,0.0,0.0,0.0,0.0,0.0,0.0,0.0,0.0,0.0,0.0,0.0,0.0,0.0,0.0,0.0,0.0,0.0,0.0,0.0,0.0,0.0,0.0,0.0,0.0,0.0,0.0,0.0,0.0,0.0,0.0,0.0,0.0,0.0,0.0,0.0,0.0,0.0,0.0,0.0,0.0,0.0,0.0,0.0,0.0,0.0,0.0,0.0,0.0,0.0,0.0,0.0,0.0,2.5926,2.5383,2.4687,2.3831,2.3809,2.3535,2.3012,2.3508,2.3909,2.4116,0.0,0.0,0.0,0.0,0.0,0.0,0.0,0.0,0.0,0.0,0.0,0.0,0.0,0.0,0.0,0.0,0.0,0.0,0.0,0.0,0.0,0.0,0.0,0.0,0.0,0.0,0.0,0.0,0.0,0.0,0.0,0.0,0.0,0.0,0.0,0.0,0.0,0.0,0.0,1.9272,1.8803,0.0,0.0,0.0,0.0,0.0,0.0,0.0,0.0,1.5083,0.0,0.0,0.0,0.0,0.0,0.0,0.0,0.0,0.0,0.0,0.0,0.0,0.0,0.0,0.0,0.0,0.0,0.0,0.0,0.0,0.0,0.0,0.0,0.0,0.0,0.0,0.0,0.0,0.0,0.0,0.0,0.0,0.0,0.0,0.0,0.0,0.0,0.0,0.0,0.0,0.0,0.0,0.0,0.0,0.0,0.0,0.0,0.0,0.0,0.0,0.0,0.0,0.0,0.0,0.0,2.6648,2.611,2.5502,2.4795,2.4798,2.4571,2.4055,2.4509,2.4958,0.0,0.0,0.0,0.0,0.0,0.0,0.0,0.0,0.0,0.0,0.0,0.0,0.0,0.0,0.0,0.0,0.0,0.0,0.0,0.0,0.0,0.0,0.0,0.0,0.0,0.0,0.0,0.0,0.0,0.0,0.0,0.0,0.0,0.0,0.0,0.0,0.0,0.0,0.0,0.0,2.0034,1.962,1.9302,0.0,0.0,0.0,0.0,0.0,0.0,1.6205,1.6045,0.0,0.0,0.0,0.0,0.0,0.0,0.0,0.0,0.0,0.0,0.0,0.0,0.0,0.0,0.0,0.0,0.0,0.0,0.0,0.0,0.0,0.0,0.0,0.0,0.0,0.0,0.0,0.0,0.0,0.0,0.0,0.0,0.0,0.0,0.0,0.0,0.0,0.0,0.0,0.0,0.0,0.0,0.0,0.0,0.0,0.0,0.0,0.0,0.0,0.0,0.0,0.0,0.0,0.0,0.0,2.7345,2.6835,2.6281,2.5654,2.5695,2.5545,2.5177,2.5459,2.5878,0.0,0.0,0.0,0.0,0.0,0.0,0.0,0.0,0.0,0.0,0.0,0.0,0.0,0.0,0.0,0.0,0.0,0.0,0.0,0.0,0.0,0.0,0.0,0.0,0.0,0.0,0.0,0.0,0.0,0.0,0.0,0.0,0.0,0.0,0.0,0.0,0.0,0.0,0.0,0.0,0.0,2.0388,2.0336,1.9457,0.0,0.0,0.0,0.0,1.749,1.7213,0.0,0.0,0.0,0.0,0.0,0.0,0.0,0.0,0.0,0.0,0.0,0.0,0.0,0.0,0.0,0.0,0.0,0.0,0.0,0.0,0.0,0.0,0.0,0.0,0.0,0.0,0.0,0.0,0.0,0.0,0.0,0.0,0.0,0.0,0.0,0.0,0.0,0.0,0.0,0.0,0.0,0.0,0.0,0.0,0.0,0.0,0.0,0.0,0.0,0.0,0.0,0.0,0.0,0.0,0.0,0.0,2.8179,2.7893,2.7252,2.6188,2.6456,2.6439,2.607,2.6317,2.6819,0.0,0.0,0.0,0.0,0.0,0.0,0.0,0.0,0.0,0.0,0.0,0.0,0.0,0.0,0.0,0.0,0.0,0.0,0.0,0.0,0.0,0.0,0.0,0.0,0.0,0.0,0.0,0.0,0.0,0.0,0.0,0.0,0.0,0.0,0.0,0.0,0.0,0.0,0.0,0.0,0.0,2.142,2.1216,2.0644,2.0174,0.0,0.0,1.9153,1.837,1.8213,0.0,0.0,0.0,0.0,0.0,0.0,0.0,0.0,0.0,0.0,0.0,0.0,0.0,0.0,0.0,0.0,0.0,0.0,0.0,0.0,0.0,0.0,0.0,0.0,0.0,0.0,0.0,0.0,0.0,0.0,0.0,0.0,0.0,0.0,0.0,0.0,0.0,0.0,0.0,0.0,0.0,0.0,0.0,0.0,0.0,0.0,0.0,0.0,0.0,0.0,0.0,0.0,0.0,0.0,0.0,2.9838,2.9006,2.8769,2.8228,2.7484,2.7605,2.7605,2.7438,2.7595,2.7829,0.0,0.0,0.0,0.0,0.0,0.0,0.0,0.0,0.0,0.0,0.0,0.0,0.0,0.0,0.0,0.0,0.0,0.0,0.0,0.0,0.0,0.0,0.0,0.0,0.0,0.0,0.0,0.0,0.0,0.0,0.0,0.0,0.0,0.0,0.0,0.0,0.0,0.0,0.0,0.0,0.0,0.0,2.2232,2.1768,0.0,0.0,0.0,2.0344,1.9509,0.0,0.0,0.0,0.0,0.0,0.0,0.0,0.0,0.0,0.0,0.0,0.0,0.0,0.0,0.0,0.0,0.0,0.0,0.0,0.0,0.0,0.0,0.0,0.0,0.0,0.0,0.0,0.0,0.0,0.0,0.0,0.0,0.0,0.0,0.0,0.0,0.0,0.0,0.0,0.0,0.0,0.0,0.0,0.0,0.0,0.0,0.0,0.0,0.0,0.0,0.0,0.0,0.0,0.0,0.0,0.0,0.0,3.0057,2.9691,2.9283,2.8794,2.8705,2.8705,2.8696,2.8705,0.0,0.0,0.0,0.0,0.0,0.0,0.0,0.0,0.0,0.0,0.0,0.0,0.0,0.0,0.0,0.0,0.0,0.0,0.0,0.0,0.0,0.0,0.0,0.0,0.0,0.0,0.0,2.3953,0.0,0.0,0.0,0.0,0.0,0.0,0.0,0.0,0.0,0.0,0.0,0.0,0.0,0.0,2.3229,2.312,2.2778,2.2384,0.0,0.0,2.1412,2.0593,2.049,2.0344,0.0,0.0,0.0,0.0,0.0,0.0,0.0,0.0,0.0,0.0,0.0,0.0,0.0,0.0,0.0,0.0,0.0,0.0,0.0,0.0,0.0,0.0,0.0,0.0,0.0,0.0,0.0,0.0,0.0,0.0,0.0,0.0,0.0,0.0,0.0,0.0,0.0,0.0,0.0,0.0,0.0,0.0,0.0,0.0,0.0,0.0,0.0,0.0,0.0,0.0,0.0,0.0,0.0,0.0,0.0,3.1465,3.095,3.0432,2.9816,2.9564,2.9416,2.9406,2.9416,2.9669,0.0,0.0,0.0,0.0,0.0,0.0,0.0,0.0,0.0,0.0,0.0,0.0,0.0,0.0,0.0,0.0,0.0,0.0,0.0,0.0,0.0,0.0,0.0,0.0,0.0,0.0,0.0,0.0,0.0,0.0,0.0,0.0,0.0,0.0,0.0,0.0,0.0,0.0,0.0,0.0,0.0,2.4183,2.3728,2.3628,2.3429,0.0,0.0,2.2526,2.1717,2.1564,2.142,2.0865,0.0,0.0,0.0,0.0,0.0,0.0,0.0,0.0,0.0,0.0,0.0,0.0,0.0,0.0,0.0,0.0,0.0,0.0,0.0,0.0,0.0,0.0,0.0,0.0,0.0,0.0,0.0,0.0,0.0,0.0,0.0,0.0,0.0,0.0,0.0,0.0,0.0,0.0,0.0,0.0,0.0,0.0,0.0,0.0,0.0,0.0,0.0,0.0,0.0,0.0,0.0,0.0,0.0,3.2784,3.2319,3.2156,3.1739,3.1238,3.1073,3.0981,3.0785,3.0795,3.0888,0.0,0.0,0.0,0.0,0.0,0.0,0.0,0.0,0.0,0.0,0.0,0.0,0.0,0.0,0.0,0.0,0.0,0.0,0.0,0.0,0.0,0.0,0.0,0.0,0.0,0.0,0.0,0.0,2.6129,2.62,2.6177,0.0,0.0,0.0,0.0,0.0,0.0,0.0,0.0,0.0,0.0,2.4677,2.4489,2.443,0.0,0.0,2.3628,2.3379,2.2577,2.2283,2.208,2.1674,2.1165,0.0,0.0,0.0,0.0,0.0,0.0,0.0,0.0,0.0,0.0,0.0,0.0,0.0,0.0,0.0,0.0,0.0,0.0,0.0,0.0,0.0,0.0,0.0,0.0,0.0,0.0,0.0,0.0,0.0,0.0,0.0,0.0,0.0,0.0,0.0,0.0,0.0,0.0,0.0,0.0,0.0,0.0,0.0,0.0,0.0,0.0,0.0,0.0,0.0,0.0,0.0,0.0,3.3782,3.3411,3.33,3.3101,3.27,3.2561,3.2409,3.2218,3.2128,3.2077,0.0,0.0,0.0,0.0,0.0,0.0,0.0,0.0,0.0,0.0,0.0,0.0,0.0,0.0,0.0,0.0,0.0,0.0,0.0,0.0,0.0,0.0,0.0,0.0,0.0,0.0,0.0,0.0,2.7146,2.7098,2.6832,0.0,0.0,0.0,0.0,0.0,0.0,0.0,0.0,0.0,0.0,2.5333,2.5274,2.5226,2.4981,2.4538,2.4381,2.4084,2.3379,2.3088,2.287,2.2535,0.0,0.0,0.0,0.0,0.0,0.0,0.0,0.0,0.0,0.0,0.0,0.0,0.0,0.0,0.0,0.0,0.0,0.0,0.0,0.0,0.0,0.0,0.0,0.0,0.0,0.0,0.0,0.0,0.0,0.0,0.0,0.0,0.0,0.0,0.0,0.0,0.0,0.0,0.0,0.0,0.0,0.0,0.0,0.0,0.0,0.0,0.0,0.0,0.0,0.0,0.0,0.0,0.0,3.4775,3.4775,3.4495,3.4385,3.4337,3.3845,3.3598,3.3549,3.3273,3.3135,3.3124,0.0,0.0,0.0,0.0,0.0,0.0,0.0,0.0,0.0,0.0,0.0,0.0,0.0,0.0,0.0,0.0,0.0,0.0,0.0,0.0,0.0,0.0,0.0,0.0,0.0,0.0,2.7951,2.7998,2.7846,0.0,0.0,0.0,0.0,0.0,0.0,0.0,0.0,0.0,0.0,2.6448,2.6342,2.61,2.5849,2.5606,2.5323,2.5039,2.4677,2.4183,2.4084,2.3935,0.0,0.0,0.0,0.0,0.0,0.0,0.0,0.0,0.0,0.0,0.0,0.0,0.0,0.0,0.0,0.0,0.0,0.0,0.0,0.0,0.0,0.0,0.0,0.0,0.0,0.0,0.0,3.6153,3.6496,0.0,0.0,0.0,0.0,0.0,0.0,0.0,0.0,0.0,0.0,0.0,3.897,3.9015,0.0,0.0,0.0,0.0,0.0,0.0,0.0,0.0,0.0,0.0,0.0,0.0,3.5835,3.5883,3.5775,3.5667,3.5475,3.5126,3.4824,3.4678,3.4421,3.412,3.3813,0.0,0.0,0.0,0.0,0.0,0.0,0.0,0.0,0.0,0.0,0.0,0.0,0.0,0.0,0.0,0.0,0.0,0.0,0.0,0.0,0.0,0.0,0.0,0.0,0.0,2.8757,0.0,0.0,0.0,0.0,0.0,0.0,0.0,0.0,0.0,0.0,0.0,2.6955,2.6955,2.686,2.6716,2.662,2.638,2.6149,0.0,0.0,0.0,0.0,0.0,0.0,0.0,0.0,0.0,0.0,0.0,0.0,0.0,0.0,1.9957,1.8867,1.7995,1.7371,1.6977,0.0,0.0,0.0,0.0,0.0,0.0,0.0,0.0,0.0,0.0,0.0,0.0,0.0,0.0,0.0,0.0,3.816,0.0,0.0,0.0,0.0,0.0,0.0,0.0,0.0,4.0114,4.0201,4.0201,4.0187,4.0158,0.0,3.9924,3.9486,0.0,0.0,0.0,0.0,0.0,0.0,0.0,0.0,3.6909,3.6862,3.6896,3.6803,3.6602,3.6285,3.6048,3.5858,3.5536,3.5233,3.4938,3.4695,3.4181,0.0,0.0,0.0,0.0,0.0,0.0,0.0,0.0,0.0,0.0,0.0,0.0,0.0,0.0,0.0,0.0,0.0,0.0,0.0,0.0,0.0,0.0,0.0,2.9485,0.0,0.0,0.0,0.0,0.0,0.0,0.0,0.0,0.0,2.7835,2.7657,2.762,2.762,2.7431,2.7289,2.7289,0.0,0.0,0.0,0.0,0.0,0.0,0.0,2.502,2.4913,2.4677,2.4381,2.4026,2.3637,2.3229,2.297,0.0,0.0,2.0363,1.933,1.8641,1.8339,1.7724,1.7086,1.662,1.6199,1.5853,0.0,0.0,0.0,0.0,0.0,0.0,0.0,0.0,3.9179,3.9401,0.0,3.9648,0.0,0.0,0.0,0.0,0.0,0.0,0.0,0.0,4.1338,4.1338,4.1338,4.1338,4.1212,4.1085,4.1029,4.093,4.0688,3.9821,0.0,0.0,0.0,0.0,0.0,0.0,3.7854,3.7867,3.7854,3.7808,3.7808,3.7361,3.7108,3.7095,3.6687,3.6452,3.6427,3.5936,3.5395,3.4783,3.4791,0.0,0.0,0.0,0.0,0.0,0.0,0.0,0.0,0.0,0.0,0.0,0.0,0.0,0.0,0.0,0.0,0.0,0.0,0.0,0.0,3.0261,0.0,0.0,0.0,0.0,0.0,0.0,0.0,0.0,0.0,0.0,2.891,2.8617,2.8452,2.8441,0.0,0.0,0.0,0.0,2.7309,2.7309,2.688,2.6448,2.6187,2.6139,2.6042,2.58,0.0,0.0,2.4637,2.4332,2.4084,2.3786,2.3529,2.3029,2.1954,2.0904,2.0051,1.9709,1.8832,1.8036,1.7732,1.7095,1.6572,4.3531,0.0,0.0,0.0,0.0,4.1153,4.1117,4.1307,4.0886,4.0745,4.0831,4.0944,0.0,0.0,0.0,0.0,0.0,0.0,4.2181,4.2263,4.2441,4.2508,4.2522,4.236,4.2266,4.2225,4.1867,4.1701,4.1632,4.1212,4.0645,3.9911,0.0,0.0,0.0,0.0,3.8877,3.8877,3.8684,3.8581,3.8581,3.8109,3.7789,3.7579,3.7441,3.7407,3.7394,3.7252,3.6618,3.557,3.5506,0.0,0.0,0.0,0.0,0.0,0.0,0.0,0.0,0.0,0.0,0.0,0.0,0.0,0.0,0.0,0.0,0.0,0.0,0.0,3.125,3.125,3.1217,0.0,0.0,0.0,0.0,0.0,0.0,0.0,0.0,0.0,3.0611,2.9909,2.9473,0.0,0.0,2.8746,2.8571,2.829,2.8019,2.7809,0.0,0.0,0.0,2.7003,2.6802,2.6562,2.6187,2.581,2.5654,2.5265,2.4932,2.4833,2.448,2.3985,2.3479,2.2367,2.1481,2.1129,2.0393,1.9706,1.9411,1.8715,1.8091,4.6826,4.528,4.4167,4.3748,4.3833,4.357,4.3551,4.3606,4.3016,4.2779,4.2779,4.257,4.2508,4.2534,4.2831,0.0,0.0,0.0,4.3309,4.3388,4.3576,4.3591,4.3512,4.3394,4.325,4.3036,4.278,4.2578,4.2415,4.2293,4.184,4.1128,0.0,0.0,4.0069,3.9807,3.9719,3.9675,3.9441,3.9367,3.9322,3.8966,3.8639,3.8413,3.8427,3.8355,3.8219,3.8219,3.7706,3.659,3.6773,3.6219,0.0,0.0,0.0,0.0,0.0,0.0,0.0,0.0,0.0,0.0,0.0,3.237,3.2382,0.0,0.0,0.0,3.222,3.2232,3.2232,3.2232,0.0,0.0,0.0,0.0,0.0,0.0,0.0,3.222,3.222,3.2133,3.1881,3.1306,3.0724,3.0239,2.9817,2.9451,2.9277,0.0,2.8757,2.8466,2.8233,2.7998,2.7914,2.7773,2.7573,2.7251,2.687,2.6534,2.6428,2.6052,2.5771,2.5567,2.5265,2.4873,2.4637,2.3728,2.2828,2.2274,2.1514,2.0952,2.0747,1.9968,1.9294,4.9566,4.9128,4.6768,4.5736,4.5638,4.5813,4.5879,4.5834,4.5413,4.5133,4.5026,4.4393,4.4089,4.4043,4.4028,0.0,0.0,4.4335,4.4465,4.4685,4.4701,4.4572,4.4396,4.4358,4.4112,4.3693,4.3669,4.3457,4.3115,4.3061,4.2835,4.2474,4.1604,4.1043,4.0773,4.0531,4.0388,4.0402,4.0156,4.0083,4.0039,3.9793,3.9574,3.9336,3.9336,3.9247,3.8997,3.8997,3.8639,3.7868,3.8318,3.7851,3.6236,0.0,0.0,0.0,0.0,0.0,0.0,0.0,0.0,0.0,0.0,0.0,0.0,0.0,0.0,0.0,3.3129,0.0,3.3116,3.3116,0.0,0.0,0.0,3.2797,3.281,3.2785,3.2828,3.3031,0.0,0.0,3.2797,0.0,3.2077,3.0925,3.0532,3.0216,3.0023,2.9772,2.9485,2.922,2.8978,2.8735,2.8581,2.8488,2.8243,2.782,2.7547,2.7299,2.7051,2.6726,2.6496,2.6235,2.5945,2.5654,2.5382,2.4873,2.4273,2.3279,2.2426,2.1827,2.1674,2.0952,2.0233,5.0701,5.0615,4.9978,4.9158,4.8264,4.7793,4.7617,4.7555,4.6998,4.6447,4.5911,4.5893,4.57,4.5342,4.5342,4.5379,4.5416,4.5416,4.5452,4.5489,4.5358,4.5284,4.5194,4.4911,4.4685,4.4556,4.4266,4.4073,4.3996,4.363,4.3314,4.309,4.2714,4.217,4.1479,4.1241,4.1114,4.1114,4.0887,4.0574,4.0229,4.0172,4.0055,3.9821,3.9821,3.9821,3.9733,3.9719,3.9358,3.858,3.8676,3.8276,3.728,3.6873,0.0,0.0,0.0,0.0,0.0,0.0,0.0,0.0,0.0,3.4063,3.405,0.0,3.4063,0.0,3.4063,3.4063,3.405,3.405,0.0,0.0,3.3781,3.3696,3.3471,3.3471,3.3501,3.3543,3.3543,3.3458,3.327,3.3172,3.2988,3.2469,3.1825,3.1172,3.0736,3.0634,3.0408,3.0034,2.976,2.96,2.9508,2.9185,2.885,2.8571,2.829,2.8055,2.7752,2.7394,2.7071,2.7013,2.663,2.6197,2.5703,2.5509,2.5206,2.4529,2.3628,2.2778,2.2375,2.1768,2.1216,5.1639,5.1639,5.1623,5.1236,5.0528,4.9815,4.9501,4.9422,4.8507,4.7855,4.7405,4.6896,4.6526,4.6298,4.6282,4.6298,4.6282,4.6282,4.6298,4.6282,4.6104,4.5961,4.5853,4.5562,4.5358,4.5173,4.4949,4.4761,4.4534,4.4228,4.3942,4.3723,4.3433,4.2981,4.243,4.191,4.1689,4.1675,4.1311,4.1057,4.0802,4.0802,4.0773,4.0616,4.0616,4.0559,4.0459,4.0459,4.0176,3.9698,3.9641,3.9308,3.8642,3.8228,3.7786,0.0,0.0,0.0,0.0,0.0,0.0,0.0,0.0,0.0,0.0,0.0,3.4964,0.0,3.4977,0.0,3.4977,3.4895,3.4771,3.4577,3.4452,3.4314,3.4176,3.4134,3.4176,3.4314,3.4314,3.423,3.4021,3.3979,3.3852,3.3501,3.3074,3.2481,3.1737,3.156,3.1371,3.0802,3.0589,3.042,3.0227,2.9783,2.9416,2.9277,2.8954,2.8617,2.8384,2.8055,2.7783,2.7584,2.7214,2.6784,2.6486,2.6187,2.5897,2.5353,2.4805,2.4115,2.3379,2.2568,2.192,5.2378,5.2395,5.2378,5.2395,5.2307,5.1541,5.1176,5.102,4.9823,4.9154,4.8875,4.758,4.6996,4.6961,4.6996,4.6961,4.6996,4.6996,4.6996,4.6961,4.6772,4.6582,4.6407,4.6227,4.5977,4.5635,4.5578,4.5395,4.4986,4.4814,4.4572,4.4358,4.3903,4.3606,4.3384,4.2607,4.2158,4.209,4.1758,4.1522,4.1465,4.148,4.1438,4.141,4.141,4.1297,4.1043,4.1043,4.0972,4.0773,4.0787,4.0534,4.0097,3.9984,3.9448,0.0,3.815,0.0,0.0,0.0,0.0,0.0,0.0,0.0,0.0,3.6102,3.6075,3.5993,3.5993,3.5966,3.5844,3.5683,3.548,3.5277,3.5018,3.484,3.484,3.4799,3.4853,3.5072,3.5072,3.499,3.4758,3.4758,3.4605,3.4285,3.416,3.3725,3.2859,3.2568,3.222,3.1572,3.1395,3.1116,3.0758,3.0329,3.0023,2.9931,2.9554,2.9185,2.8932,2.8628,2.8337,2.8139,2.7726,2.7357,2.7309,2.688,2.6448,2.5897,2.5703,2.5304,2.4332,2.3379,2.2728,5.2799,5.2799,5.2782,5.2799,5.2714,5.1992,5.1499,5.1182,5.0902,5.0058,4.8785,4.7915,4.7487,4.7403,4.7403,4.7403,4.7403,4.7403,4.7403,4.7403,4.7183,4.7064,4.6996,4.6668,4.6442,4.6372,4.612,4.5864,4.5609,4.5431,4.5061,4.4549,4.4458,4.4243,4.3856,0.0,0.0,0.0,4.2485,4.224,4.1924,4.1868,4.1731,4.1396,4.141,0.0,4.1354,4.1311,4.1297,4.1269,4.1255,0.0,0.0,0.0,0.0,0.0,0.0,0.0,0.0,0.0,0.0,0.0,3.8439,3.8306,3.829,3.8305,3.8055,3.754,3.7484,3.7249,3.6563,3.6468,3.6403,3.6178,3.5924,3.571,3.5548,3.5345,3.5223,3.5113,3.5113,3.5072,3.5072,3.5031,3.499,3.4867,3.4756,3.4494,3.4063,3.3386,3.284,3.2494,3.1969,3.1528,3.1217,3.096,3.0601,3.0284,3.0091,2.9806,2.9439,2.9024,2.8757,2.8653,2.8222,2.7715,2.7394,2.7214,2.6965,2.6448,2.6197,2.5703,2.4627,2.4084,2.3678,5.3298,0.0,5.323,5.3212,0.0,5.2388,5.1699,5.1162,5.0626,4.9743,4.8646,4.8247,4.8033,4.7984,4.7984,4.7984,4.8001,4.8017,4.7951,4.7853,4.7638,4.7571,4.7437,4.7167,4.6996,4.6876,4.6615,4.6369,4.6156,4.5812,4.5484,4.5204,4.5002,4.4739,4.4435,4.4112,4.3591,4.289,4.285,4.2673,4.2363,4.2322,4.224,4.2049,0.0,0.0,0.0,0.0,0.0,0.0,0.0,0.0,0.0,0.0,0.0,4.1397,4.0515,3.9841,3.9519,3.8867,3.8741,3.9299,3.9926,4.0,3.928,3.9185,3.9057,3.872,3.8677,3.8382,3.7709,3.7535,3.7304,3.6892,3.6547,3.631,3.6191,3.6005,3.5858,3.5737,3.567,3.5575,3.5589,3.548,3.5358,3.529,3.5168,3.4949,3.4618,3.4034,3.3454,3.2982,3.2494,3.2101,3.1893,3.154,3.1273,3.0982,3.0769,3.0408,2.9943,2.9669,2.9439,2.9163,2.8746,2.829,2.8102,2.7809,2.7489,2.7013,2.6784,2.6438,2.5654,2.4971,2.4341,5.375,5.375,5.3634,5.3517,5.333,5.2534,5.1671,5.0841,0.0,0.0,0.0,4.8547,4.8515,4.8483,4.8483,4.8483,4.8483,4.8483,4.842,4.826,4.8147,4.7984,4.7836,4.7671,4.7504,4.7352,4.7098,4.6876,4.6617,4.6207,4.5936,4.5828,4.5478,4.522,4.4949,4.4625,4.4073,4.3379,4.3235,4.3061,4.289,4.2835,4.285,4.2824,4.2809,4.2809,4.2809,4.2809,4.2809,4.2809,4.2809,4.2809,4.285,4.285,4.2653,4.212,4.1522,4.0944,4.0395,3.9639,3.9395,3.9882,4.0953,4.1144,4.0107,4.0052,4.0009,3.9894,3.984,3.9596,3.8953,3.8699,3.8285,3.7621,3.7225,3.7001,3.6772,3.6615,3.6457,3.6405,3.6232,3.6152,3.6112,3.5898,3.5723,3.5562,3.544,3.5277,3.488,3.4369,3.3823,3.3313,3.2939,3.2692,3.2519,3.2113,3.1849,3.1705,3.1362,3.096,3.0532,3.034,3.0114,2.9715,2.9255,2.8989,2.8803,2.842,2.7998,2.7536,2.7394,2.7262,2.6736,2.5955,2.5167,5.3965,5.3948,5.3932,5.354,5.2825,5.2092,5.1031,4.9722,4.9297,4.8964,4.8769,4.8738,4.8658,4.8483,4.8483,4.8483,4.8483,4.8483,4.8483,0.0,4.8452,4.842,4.8356,4.8099,4.7902,4.7869,4.7571,4.7217,4.6876,4.6789,4.6509,4.61,4.5828,4.5515,4.5182,4.5092,4.4942,4.4632,4.4112,4.3723,4.3472,4.3472,4.3394,4.321,4.321,4.321,4.321,4.3225,4.321,4.321,4.321,4.329,4.3472,4.3472,4.3521,4.3611,4.306,4.2652,4.2531,4.1397,4.0601,4.039,4.0821,4.1405,4.2184,4.2262,4.2027,4.1458,4.1211,4.0789,4.0064,3.978,3.9269,3.8564,3.8371,3.799,3.713,3.6982,3.6825,3.6484,3.6365,3.6365,3.6312,3.6152,3.6046,3.5965,3.5805,3.5371,3.5151,3.4494,3.4021,3.3641,3.327,3.3068,3.2939,3.2605,3.2245,3.1989,3.1793,3.1484,3.1172,3.0802,3.0487,3.017,2.992,2.9497,2.8989,2.8757,2.8466,2.8045,2.7951,2.7762,2.7299,2.6965,2.6572,5.411,5.4042,5.3569,5.3143,5.2733,5.1575,5.0513,4.9522,4.9337,4.9263,4.9185,4.9155,4.9124,4.9046,4.8923,4.8892,4.8875,4.8798,4.8736,4.8658,4.8675,4.8595,4.8483,4.8373,4.8212,4.8082,4.7869,4.7621,4.732,4.7048,4.6789,4.6545,4.6207,4.5972,4.5703,4.5667,4.5578,4.5395,4.4799,4.4381,4.4151,4.4135,4.4112,4.4035,4.3996,4.3981,4.3981,4.3918,4.3856,4.384,4.3738,4.3778,4.3957,4.4011,4.4073,4.4289,4.3617,4.316,4.3175,4.2149,4.1622,4.1784,4.1957,4.2428,4.319,4.2579,4.2187,4.2246,4.2166,4.1821,4.1086,4.0894,4.0527,3.9692,3.9555,3.9085,3.8214,3.7916,3.7593,3.6999,3.6811,3.6693,3.6563,3.6405,3.6437,3.6658,3.6566,3.6452,3.6257,3.5849,3.5201,3.4302,3.3823,3.3581,3.3313,3.2982,3.268,3.2394,3.2189,3.1937,3.1629,3.1306,3.1083,3.0736,3.042,3.008,2.9623,2.9451,2.9174,2.8746,2.8513,2.8279,2.7972,2.7594,2.6918,5.4399,5.4281,5.3367,5.2775,5.2298,5.1015,5.0125,4.9624,4.9624,4.9624,4.9577,4.9547,4.9488,4.9488,4.9367,4.926,4.9229,4.9124,4.9001,4.8894,4.8863,4.8769,4.861,4.8578,4.8483,4.834,4.8147,4.7968,4.7754,4.7302,4.7014,4.6892,4.6563,4.6333,4.6156,4.6136,4.6064,4.5905,4.5468,4.5098,4.4799,4.4761,4.4739,4.4739,4.4739,4.4739,4.4739,4.4587,4.4526,4.4488,4.4374,4.4335,4.4473,4.4511,4.4549,4.4655,4.411,4.3629,4.3422,4.2762,4.2513,4.2788,4.2834,4.3047,4.3406,4.2554,4.2154,4.2731,4.2765,4.2533,4.2079,4.1936,4.1607,4.0862,4.0616,4.0089,3.9328,3.9003,3.8564,3.776,3.7399,3.7189,3.6881,3.674,3.6927,3.7386,3.7564,3.7529,3.7358,3.7158,3.6375,3.54,3.4656,3.4176,3.3662,3.3356,3.3142,3.2871,3.2692,3.2419,3.2069,3.1893,3.1673,3.1285,3.1005,3.0668,3.0397,3.0182,2.9829,2.9359,2.9174,2.8954,2.8535,2.8019,2.7251,5.493,5.4778,5.3879,5.2637,5.1227,5.04,5.0039,4.9952,4.9935,4.9952,4.9906,4.9654,4.9518,4.9488,4.9471,4.9488,4.9458,4.926,4.9168,4.9138,4.9032,4.897,4.894,4.8832,4.8769,4.8675,4.8373,4.8115,4.7951,4.7704,4.7354,4.6961,4.6858,4.6684,4.6333,4.6298,4.6262,4.6262,4.6191,4.5941,4.5431,4.5241,4.5129,4.5145,4.5145,4.5145,4.5167,4.5145,4.5108,4.5108,4.5092,4.5092,4.5108,4.5092,4.5092,4.5129,4.503,4.4676,4.3954,4.3599,4.3153,4.2432,4.2478,4.2641,4.3077,4.2833,4.2773,4.3101,4.3076,4.2936,4.2866,4.2676,4.233,4.169,4.1444,4.0996,4.023,3.9863,3.9366,3.8578,3.8296,3.7944,3.7483,3.7489,3.7699,3.8076,3.8171,3.8071,3.7957,3.7646,3.7265,3.6802,3.5989,3.4969,3.4283,3.3823,3.3594,3.3381,3.3142,3.2884,3.2624,3.2419,3.2169,3.1805,3.1629,3.1339,3.0847,3.0532,3.0408,3.0011,2.9748,2.9565,2.8943,2.8524,2.7914,5.4713,5.4196,5.3388,5.2089,5.0605,5.0241,5.0063,5.0011,5.0011,5.0011,4.9982,4.9848,4.9801,4.9789,4.9649,4.9637,4.9619,4.9441,4.932,4.9199,4.9155,4.9094,4.9001,4.894,4.8894,4.8818,4.8627,4.8405,4.8098,4.7836,4.7538,4.7285,4.7251,4.7098,4.6858,4.6823,4.6754,4.6649,4.6528,4.6388,4.6175,4.5941,4.5832,4.5848,4.5864,4.5832,4.5848,4.5646,4.5552,4.5552,4.5346,4.5241,4.5368,4.5368,4.5442,4.5552,4.5426,4.5132,4.4539,4.4381,4.4161,4.3681,4.3644,4.3707,4.3762,4.3678,4.3622,4.3521,4.3329,4.317,4.317,4.309,4.2892,4.252,4.2395,4.197,4.1011,4.0818,4.0398,3.9434,3.8914,3.8707,3.8663,3.8866,3.9003,3.9061,3.91,3.9222,3.902,3.8774,3.8393,3.7822,3.7254,3.6376,3.5185,3.4738,3.4327,3.3773,3.3513,3.3398,3.3142,3.2939,3.268,3.2332,3.2201,3.1925,3.1383,3.125,3.1128,3.0646,3.0193,2.992,2.9519,2.9093,2.8617,5.466,5.3875,5.2858,5.1604,5.0291,5.0217,5.0132,5.0051,5.0022,5.0011,5.0011,5.0011,5.0011,4.9964,4.986,4.9784,4.9755,4.9619,4.9488,4.935,4.926,4.9155,4.9063,4.9001,4.8956,4.8863,4.8801,4.8564,4.8195,4.7919,4.7688,4.7571,4.7571,4.747,4.7285,4.7267,4.7132,4.6996,4.6772,4.6703,4.6652,4.6545,4.6404,4.6298,4.6298,4.6298,4.6298,4.608,4.5936,4.5952,4.5646,4.5573,4.5682,4.5719,4.5771,4.5844,4.5625,4.5368,4.5077,4.4949,4.4836,4.4685,4.461,4.4534,4.4396,4.432,4.4166,4.391,4.3581,4.3384,4.329,4.3305,4.321,4.3076,4.3021,4.2638,4.196,4.1781,4.1306,4.0387,3.9809,3.9463,3.9736,3.9947,4.0011,3.9929,4.0193,4.0342,4.0007,3.9763,3.9437,3.8705,3.8536,3.7762,3.6132,3.5457,3.4995,3.4425,3.4062,3.3725,3.3556,3.3356,3.3111,3.281,3.2692,3.2431,3.1981,3.1849,3.1717,3.1273,3.0781,3.0363,3.0091,2.968,2.9359,5.5004,5.4063,5.2529,5.1287,5.0387,5.0257,5.0189,5.0178,5.0051,5.0011,4.9993,5.0011,5.0011,5.0011,4.9964,4.9964,4.9964,4.9784,4.9679,4.9619,4.935,4.9199,4.9199,4.9063,4.9001,4.8987,4.8863,4.8612,4.8227,4.8049,4.7902,4.7721,4.7721,4.7621,4.747,4.7319,4.7217,4.7149,4.6979,4.6876,4.6876,4.6842,4.6684,4.6369,4.6298,4.6333,4.6333,4.6314,4.6278,4.6262,4.6243,4.6227,4.6243,4.6227,4.6187,4.6076,4.5735,4.5515,4.5426,4.5151,4.4911,4.4836,4.4739,4.461,4.4549,4.4435,4.432,4.4281,4.391,4.3596,4.3384,4.3344,4.329,4.3235,4.3115,4.2951,4.2896,4.25,4.2067,4.1434,4.096,4.0619,4.0464,4.048,4.067,4.076,4.0774,4.0573,4.0385,4.0168,3.9851,3.9662,3.942,3.8959,3.7243,3.6436,3.5769,3.5106,3.4582,3.4059,3.3852,3.3628,3.3441,3.324,3.3111,3.2909,3.2519,3.2257,3.2125,3.1729,3.1285,3.0916,3.0724,3.0397,3.008,5.4753,5.3454,5.1888,5.0937,5.0537,5.0464,5.0369,5.0189,5.0132,5.008,5.0011,5.0011,5.0011,5.0011,5.0011,5.0011,5.0011,4.9918,4.983,4.9679,4.9471,4.932,4.9199,4.9063,4.9018,4.9001,4.894,4.8753,4.842,4.8195,4.8049,4.7919,4.7902,4.7803,4.7654,4.7554,4.7404,4.7217,4.7098,4.703,4.6911,4.6911,4.6823,4.6668,4.6684,4.6668,4.6684,4.6563,4.6493,4.6509,4.6369,4.6298,4.6298,4.6298,4.6278,4.6207,4.6024,4.5807,4.5682,4.5426,4.5151,4.4911,4.4836,4.4723,4.4625,4.4534,4.4435,4.432,4.4166,4.3934,4.3621,4.3423,4.3305,4.329,4.325,4.3115,4.3036,4.2875,4.2625,4.2273,4.1971,4.1529,4.0997,4.1003,4.125,4.1226,4.1071,4.0816,4.063,4.0414,4.0211,3.998,3.9878,3.9623,3.8959,3.7833,3.6967,3.6035,3.5321,3.4918,3.4607,3.4102,3.3878,3.3751,3.3624,3.3356,3.3013,3.268,3.2506,3.2213,3.1773,3.1496,3.135,3.0982,3.0679,5.4253,5.3081,5.1605,5.0873,5.0702,5.063,5.0464,5.0274,5.0217,5.012,5.0011,5.0011,5.0011,5.0011,5.0011,5.0011,5.0011,5.0011,4.9935,4.9801,4.9619,4.9471,4.929,4.9155,4.9032,4.9001,4.894,4.8784,4.8515,4.8275,4.813,4.8001,4.8001,4.7935,4.782,4.7737,4.7571,4.7386,4.7251,4.7132,4.6996,4.6927,4.6911,4.6911,4.6911,4.6911,4.6892,4.6772,4.6687,4.6652,4.6563,4.6493,4.6458,4.6439,4.6388,4.6369,4.6259,4.6096,4.5916,4.5698,4.5442,4.5114,4.4949,4.4836,4.4685,4.4648,4.4534,4.4435,4.432,4.4166,4.391,4.3621,4.3384,4.3344,4.3305,4.325,4.313,4.3021,4.2915,4.2699,4.2537,4.2117,4.161,4.1761,4.1769,4.1633,4.1353,4.1142,4.0958,4.0744,4.0501,4.027,4.0184,4.0009,3.964,3.8924,3.8111,3.7179,3.6056,3.5639,3.5262,3.4758,3.4337,3.4228,3.4034,3.3768,3.3513,3.3185,3.2896,3.2649,3.2388,3.2057,3.1837,3.1584,3.1306,5.357,5.3178,5.174,5.1025,5.0873,5.0702,5.0519,5.0397,5.0274,5.0149,5.0022,5.0011,5.0011,5.0011,5.0011,5.0011,5.0011,5.0011,4.9964,4.9935,4.9784,4.9637,4.9471,4.926,4.9124,4.9001,4.8863,4.8707,4.8467,4.8324,4.813,4.8033,4.8001,4.8001,4.7968,4.782,4.7721,4.7605,4.737,4.7217,4.7183,4.703,4.6911,4.6911,4.6911,4.6911,4.6911,4.6892,4.6876,4.6876,4.6876,4.6876,4.6842,4.6703,4.6582,4.6563,4.6404,4.6243,4.6132,4.5932,4.5698,4.5463,4.5167,4.4964,4.4836,4.4723,4.461,4.4534,4.4419,4.4266,4.4205,4.3949,4.3621,4.3344,4.3329,4.329,4.325,4.3115,4.2915,4.2769,4.2703,4.2688,4.2633,4.243,4.2254,4.2034,4.1785,4.1577,4.1381,4.1156,4.0944,4.073,4.053,4.0357,4.0184,3.9897,3.9161,3.835,3.7104,3.6278,3.5938,3.5515,3.5002,3.4785,3.4408,3.4144,3.3894,3.3556,3.3356,3.3099,3.284,3.2624,3.245,3.2232,3.1969,5.3572,5.3323,5.1784,5.1079,5.1025,5.0873,5.0702,5.0519,5.0397,5.0274,5.0149,5.0051,5.0011,5.0011,5.0011,5.0011,5.0011,5.0011,5.0011,4.9982,4.9784,4.9619,4.9488,4.929,4.9155,4.9001,4.894,4.8767,4.8547,4.8452,4.8276,4.8066,4.8001,4.8001,4.8001,4.7919,4.7853,4.7721,4.7605,4.7521,4.7403,4.7217,4.7098,4.7098,4.6945,4.6911,4.6911,4.6911,4.6911,4.6911,4.6911,4.6911,4.6892,4.6858,4.6823,4.6772,4.6633,4.6493,4.6404,4.6203,4.5916,4.5698,4.5463,4.5204,4.4949,4.4836,4.4723,4.4648,4.4534,4.4458,4.432,4.4205,4.3934,4.3636,4.3423,4.3305,4.3305,4.325,4.3115,4.2955,4.2915,4.285,4.2729,4.2622,4.2566,4.243,4.2158,4.1883,4.18,4.1507,4.1297,4.117,4.0958,4.0744,4.0573,4.04,3.9873,3.9196,3.8156,3.725,3.6824,3.6251,3.5776,3.5235,3.4857,3.4533,3.4243,3.4021,3.3823,3.3569,3.3313,3.3185,3.3056,3.289,3.2704,5.3575,5.3105,5.175,5.1132,5.1079,5.0972,5.0774,5.0602,5.0453,5.0331,5.0189,5.008,5.0011,5.0011,5.0011,5.0011,5.0011,5.0011,5.0011,4.9982,4.986,4.9696,4.9488,4.9229,4.9094,4.9001,4.9001,4.8877,4.8627,4.8515,4.8356,4.8115,4.8033,4.8001,4.8001,4.8001,4.7935,4.782,4.7737,4.7638,4.7571,4.7403,4.7319,4.7301,4.7183,4.7115,4.703,4.7012,4.6979,4.6927,4.6911,4.6911,4.6911,4.6911,4.6911,4.6876,4.6772,4.6668,4.6582,4.642,4.6187,4.5952,4.5735,4.5478,4.5151,4.5024,4.4836,4.4723,4.461,4.4549,4.4435,4.4305,4.4181,4.3949,4.3621,4.3423,4.3344,4.3305,4.325,4.3115,4.3115,4.3036,4.297,4.285,4.2795,4.2754,4.2485,4.224,4.2158,4.1883,4.1717,4.1549,4.1297,4.1128,4.0972,4.0801,4.053,3.9949,3.9204,3.8509,3.7997,3.7155,3.654,3.5793,3.5279,3.4946,3.4647,3.4494,3.4285,3.4034,3.3823,3.3611,3.3509,3.3672,3.3526,5.3503,5.2625,5.1695,5.122,5.1105,5.0972,5.0819,5.063,5.0481,5.0359,5.0235,5.0092,5.0011,5.0011,5.0011,5.0011,5.0011,5.0011,5.0011,5.0011,4.9935,4.9818,4.9471,4.9185,4.9032,4.9001,4.9018,4.8925,4.8786,4.8578,4.8371,4.8195,4.8049,4.8001,4.8001,4.8001,4.8001,4.7968,4.782,4.7754,4.7721,4.7571,4.7504,4.7504,4.747,4.7352,4.7251,4.7217,4.7098,4.6945,4.6911,4.6911,4.6911,4.6911,4.6911,4.6911,4.6892,4.6772,4.6652,4.6547,4.6439,4.6152,4.5952,4.575,4.5515,4.5188,4.5002,4.4911,4.4776,4.461,4.4572,4.4473,4.432,4.4258,4.3871,4.3581,4.3369,4.3344,4.329,4.329,4.3305,4.3305,4.321,4.3115,4.3036,4.2996,4.2795,4.2673,4.2607,4.2322,4.2075,4.1883,4.1675,4.1451,4.1297,4.11,4.0915,4.0632,4.0081,3.9601,3.8956,3.8108,3.7407,3.6599,3.5918,3.5488,3.5192,3.512,3.4861,3.4507,3.4285,3.4021,3.4182,3.4444,3.4566,5.3555,5.2763,5.1721,5.1255,5.122,5.0998,5.0891,5.0801,5.062,5.0481,5.0331,5.0235,5.0092,5.0011,5.0011,5.0011,5.0011,5.0011,5.0011,5.0011,5.0011,4.9801,4.9488,4.9155,4.9018,4.9018,4.9001,4.8909,4.8801,4.8578,4.842,4.8195,4.8099,4.8001,4.8001,4.8001,4.8001,4.8001,4.7968,4.7935,4.7902,4.777,4.7654,4.7654,4.7571,4.7504,4.7436,4.7403,4.7251,4.6911,4.6911,4.6911,4.6911,4.6911,4.6911,4.6911,4.6911,4.6876,4.6807,4.6703,4.6563,4.6474,4.6187,4.5952,4.575,4.5499,4.5278,4.5129,4.4942,4.4852,4.4799,4.461,4.4473,4.4281,4.3988,4.3675,4.3596,4.3423,4.3305,4.3305,4.3305,4.3305,4.329,4.325,4.321,4.317,4.305,4.2915,4.2835,4.2729,4.2444,4.2254,4.2049,4.1827,4.1619,4.1423,4.1297,4.1255,4.0901,4.0561,3.9883,3.9081,3.8417,3.7798,3.7094,3.6616,3.6275,3.6042,3.5567,3.5228,3.5235,3.5265,3.5407,3.5624,3.5709,5.3385,5.235,5.1657,5.135,5.1272,5.1061,5.0945,5.0891,5.0702,5.0519,5.0397,5.0246,5.0103,5.0011,5.0011,5.0011,5.0011,5.0011,5.0011,4.9964,4.9848,4.9683,4.9458,4.9155,4.9018,4.9018,4.9018,4.894,4.8863,4.8627,4.8435,4.8324,4.8082,4.8001,4.8001,4.8001,4.8017,4.8001,4.8001,4.8001,4.8001,4.7902,4.782,4.782,4.7737,4.7671,4.7588,4.7537,4.7319,4.7098,4.703,4.6996,4.6911,4.6911,4.6911,4.6911,4.6911,4.6911,4.6876,4.6772,4.6703,4.6598,4.6369,4.6187,4.5952,4.5735,4.5552,4.5331,4.5129,4.5002,4.4874,4.4723,4.4587,4.4435,4.4127,4.391,4.3847,4.3636,4.3503,4.3463,4.3384,4.3305,4.3305,4.3305,4.3305,4.329,4.3195,4.3155,4.3076,4.2915,4.2769,4.2566,4.2377,4.2172,4.1951,4.1744,4.1633,4.1577,4.1493,4.1213,4.0618,3.9841,3.9296,3.8713,3.817,3.7699,3.7356,3.704,3.6792,3.6543,3.654,3.6481,3.65,3.6734,3.6809,5.3118,5.169,5.1574,5.1428,5.1298,5.1158,5.1025,5.0891,5.0747,5.0547,5.0397,5.0274,5.0132,5.0011,5.0011,5.0011,5.0011,5.0011,5.0011,4.9906,4.9713,4.9518,4.9488,4.9138,4.9032,4.9018,4.9018,4.9001,4.8909,4.8673,4.8515,4.847,4.8263,4.81,4.81,4.81,4.81,4.8017,4.8001,4.8001,4.8001,4.7968,4.7968,4.7968,4.7968,4.7853,4.7754,4.7621,4.747,4.7251,4.7235,4.7149,4.6996,4.6961,4.6927,4.6911,4.6911,4.6911,4.6911,4.6876,4.6807,4.6668,4.6633,4.6509,4.6223,4.5972,4.5807,4.5625,4.5368,4.5204,4.4964,4.4761,4.4663,4.461,4.4435,4.4243,4.4104,4.3871,4.3729,4.369,4.3478,4.3384,4.3305,4.3305,4.3305,4.3305,4.325,4.325,4.3195,4.3115,4.2996,4.2875,4.2688,4.2514,4.2295,4.2117,4.1993,4.191,4.1868,4.1619,4.1184,4.0534,3.9971,3.9508,3.9312,3.8963,3.8435,3.8144,3.7949,3.7629,3.7434,3.7331,3.7292,3.7692,3.7865,5.3118,5.169,5.1538,5.1428,5.1298,5.1158,5.1025,5.0891,5.0846,5.0665,5.0443,5.0341,5.0235,5.0011,5.0011,5.0011,5.0011,5.0011,5.0011,4.9935,4.9654,4.9518,4.9428,4.9155,4.9001,4.9018,4.9018,4.9018,4.894,4.8815,4.8658,4.8584,4.8809,4.8679,4.8199,4.858,4.8547,4.8133,4.8001,4.8001,4.8001,4.8001,4.8001,4.8001,4.8001,4.7968,4.7968,4.7902,4.7787,4.7621,4.7487,4.7352,4.7183,4.7149,4.708,4.6961,4.6927,4.6911,4.6911,4.6911,4.6876,4.6807,4.6703,4.6547,4.6493,4.6298,4.6136,4.5988,4.5787,4.5536,4.5204,4.4964,4.4852,4.4799,4.4648,4.4511,4.4419,4.4127,4.3925,4.3769,4.3651,4.3503,4.3344,4.329,4.329,4.3305,4.3305,4.3305,4.325,4.3235,4.3155,4.3076,4.2915,4.2729,4.2607,4.2404,4.2322,4.224,4.2199,4.2117,4.1645,4.1365,4.0871,4.0745,4.0704,4.0224,3.9522,3.9313,3.9061,3.8697,3.8418,3.8469,3.8544,3.8833,3.8847,5.3074,5.1726,5.1632,5.1479,5.1324,5.1237,5.1061,5.0918,5.0891,5.071,5.0425,5.0397,5.0263,5.0011,5.0011,5.0011,5.0011,5.0011,5.0011,4.9906,4.9683,4.9518,4.9428,4.9185,4.9018,4.9018,4.9018,4.9018,4.8987,4.8897,4.886,4.8986,4.9258,4.9261,4.8945,4.911,4.8895,4.8547,4.815,4.8001,4.8001,4.8001,4.8001,4.8001,4.8001,4.8001,4.8001,4.8001,4.7919,4.7853,4.7754,4.7604,4.7403,4.7335,4.7267,4.708,4.703,4.6996,4.6961,4.6911,4.6911,4.6911,4.6791,4.6703,4.6633,4.6493,4.6369,4.6207,4.608,4.59,4.5499,4.5204,4.5092,4.5002,4.4852,4.4723,4.4685,4.4381,4.4127,4.3934,4.3832,4.3675,4.3518,4.3423,4.329,4.329,4.3305,4.3305,4.3305,4.325,4.3235,4.3155,4.3061,4.2941,4.2835,4.2714,4.2607,4.2566,4.2526,4.25,4.2266,4.2061,4.1854,4.159,4.131,4.1113,4.0548,4.0379,4.021,3.9999,3.9801,3.9757,3.9683,3.9603,3.9538,5.301,5.169,5.169,5.1538,5.1307,5.1298,5.1141,5.0918,5.0891,5.071,5.0443,5.0397,5.0263,5.0051,5.0011,5.0011,5.0011,5.0011,5.0011,4.9935,4.9654,4.9518,4.9428,4.9185,4.9018,4.9018,4.9018,4.9018,4.8987,4.8945,4.9106,4.9519,4.9625,4.9743,4.994,4.9773,4.9375,4.8995,4.8531,4.8133,4.8034,4.8001,4.8001,4.8001,4.8001,4.8001,4.8001,4.8001,4.8001,4.8001,4.8001,4.7853,4.7687,4.7554,4.747,4.7251,4.7217,4.7115,4.6996,4.6961,4.6911,4.6911,4.6876,4.6842,4.6703,4.6633,4.6528,4.6404,4.6262,4.6171,4.5864,4.5536,4.5368,4.5241,4.5077,4.4964,4.4889,4.461,4.4419,4.4243,4.4011,4.3871,4.3675,4.3503,4.3409,4.329,4.329,4.3305,4.3305,4.3305,4.329,4.325,4.3155,4.3115,4.305,4.301,4.289,4.285,4.2809,4.2769,4.2743,4.2566,4.2322,4.1966,4.1688,4.1534,4.1436,4.1238,4.1112,4.1128,4.0916,4.0605,4.0405,4.0272,4.0199,5.2529,5.169,5.169,5.1538,5.1307,5.1298,5.1141,5.0918,5.0891,5.071,5.0425,5.0369,5.0263,5.0051,5.0011,5.0011,5.0011,5.0011,5.0011,4.9935,4.9683,4.9518,4.9428,4.9185,4.9001,4.9018,4.9018,4.9018,4.9001,4.9021,4.9318,4.9799,5.0224,5.0443,5.0591,5.0605,5.0187,4.9458,4.8995,4.8597,4.8233,4.8034,4.8001,4.8001,4.8001,4.8001,4.8001,4.8001,4.8001,4.8001,4.8001,4.7968,4.7869,4.7754,4.7588,4.7454,4.7319,4.7217,4.7149,4.6996,4.6927,4.6911,4.6927,4.6911,4.6842,4.6807,4.6703,4.6563,4.6404,4.6278,4.6227,4.5884,4.5735,4.5625,4.5389,4.5167,4.5129,4.4927,4.4648,4.4435,4.4243,4.405,4.3871,4.3675,4.3503,4.3423,4.3344,4.3305,4.3305,4.3305,4.3305,4.3305,4.3305,4.325,4.3265,4.321,4.3185,4.3145,4.309,4.305,4.301,4.2955,4.2754,4.2444,4.224,4.2184,4.2061,4.1951,4.1785,4.1619,4.1409,4.1255,4.1071,4.0901,4.0802,5.2447,5.1708,5.169,5.1538,5.1324,5.1298,5.1141,5.0918,5.0891,5.071,5.0453,5.0387,5.0263,5.0051,5.0011,5.0011,5.0011,5.0011,5.0011,4.9906,4.9683,4.9488,4.9458,4.9138,4.9032,4.9018,4.9018,4.9018,4.9001,4.9001,4.9516,5.0318,5.0659,5.0961,5.1341,5.1302,5.0951,5.0171,4.9541,4.8978,4.8547,4.8266,4.8034,4.8001,4.8001,4.8001,4.8001,4.8001,4.8001,4.8001,4.8001,4.8001,4.7968,4.7902,4.7787,4.7621,4.7487,4.742,4.7352,4.7251,4.7183,4.7064,4.7064,4.6996,4.6927,4.6876,4.6892,4.6738,4.6598,4.6474,4.6423,4.6191,4.608,4.6008,4.5719,4.5552,4.5442,4.5225,4.4927,4.4625,4.4396,4.4243,4.4104,4.3871,4.3675,4.3518,4.3414,4.3419,4.3464,4.3484,4.3574,4.3394,4.3379,4.3305,4.3305,4.3305,4.3305,4.3305,4.3305,4.321,4.321,4.313,4.313,4.301,4.285,4.2648,4.2526,4.2363,4.2199,4.2034,4.1868,4.1717,4.1633,4.1507,4.1409,5.2304,5.169,5.169,5.1538,5.1307,5.1298,5.1141,5.0945,5.0891,5.071,5.0443,5.0369,5.0263,5.0051,5.0011,5.0011,5.0011,5.0011,4.9964,4.9877,4.9637,4.9488,4.9367,4.9185,4.9018,4.9018,4.9018,4.9018,4.9018,4.9018,4.9717,5.0382,5.0658,5.1262,5.196,5.182,5.1551,5.0967,5.0253,4.9525,4.9028,4.8564,4.8117,4.8017,4.8001,4.8001,4.8001,4.8001,4.8001,4.8001,4.8001,4.8001,4.8001,4.8001,4.7935,4.7787,4.7704,4.7654,4.7571,4.747,4.7369,4.7301,4.7251,4.7183,4.7115,4.708,4.7046,4.6961,4.6858,4.6703,4.6633,4.6458,4.6369,4.6298,4.6064,4.588,4.5771,4.5536,4.5241,4.4927,4.4625,4.4412,4.4289,4.4204,4.4009,4.4122,4.4033,4.4223,4.4213,4.4092,4.4022,4.3663,4.3484,4.3334,4.3305,4.3305,4.3305,4.3305,4.3305,4.3265,4.3265,4.3265,4.328,4.327,4.309,4.289,4.2809,4.2729,4.2566,4.2404,4.2281,4.2199,4.2117,4.2049,4.191,5.1779,5.169,5.169,5.1538,5.1324,5.1298,5.1141,5.0918,5.0891,5.071,5.0415,5.0369,5.0263,5.0051,5.0011,5.0011,5.0011,4.9964,4.9918,4.9772,4.9577,4.9428,4.9246,4.9094,4.9001,4.9018,4.9018,4.9018,4.9018,4.9018,4.9424,5.019,5.0788,5.1329,5.1948,5.2174,5.2036,5.1398,5.11,5.0369,4.9342,4.9011,4.8597,4.8233,4.8017,4.8001,4.8001,4.8001,4.8001,4.8001,4.8001,4.8001,4.8001,4.8001,4.8001,4.7935,4.7836,4.7688,4.7654,4.7604,4.7537,4.747,4.7454,4.7436,4.7369,4.7369,4.7301,4.7183,4.7115,4.703,4.6876,4.6703,4.6598,4.6493,4.6369,4.6187,4.606,4.5844,4.5536,4.5241,4.4927,4.4687,4.4504,4.4419,4.4364,4.4549,4.4714,4.4906,4.4935,4.4809,4.4683,4.4368,4.4062,4.3873,4.3873,4.3783,4.3763,4.3643,4.3604,4.3589,4.3663,4.3723,4.3409,4.3384,4.3245,4.3105,4.301,4.293,4.289,4.2769,4.2592,4.2607,4.2607,4.2526,4.2363,5.169,5.169,5.169,5.1538,5.1324,5.1298,5.1141,5.0945,5.0891,5.071,5.0425,5.0397,5.0263,5.0022,5.0011,5.0011,5.0011,5.0011,4.9889,4.9708,4.9577,4.9381,4.9199,4.9094,4.9001,4.9018,4.9018,4.9018,4.9018,4.9086,4.939,5.0067,5.0684,5.1361,5.1849,5.2362,5.2339,5.1984,5.1516,5.0734,4.9906,4.9342,4.8961,4.863,4.8233,4.8067,4.8001,4.8001,4.8001,4.8001,4.8001,4.8001,4.8001,4.8001,4.8001,4.8001,4.7935,4.7853,4.7853,4.7803,4.7737,4.7621,4.7588,4.7554,4.7537,4.7504,4.7504,4.7369,4.7369,4.7285,4.7098,4.6996,4.6892,4.6789,4.6598,4.6458,4.6314,4.6096,4.5844,4.5536,4.5288,4.5182,4.5095,4.5194,4.52,4.5218,4.5424,4.5622,4.5576,4.5449,4.5322,4.5191,4.4888,4.4616,4.4661,4.4676,4.4702,4.4627,4.4627,4.4541,4.4436,4.4332,4.4032,4.3703,4.3504,4.3374,4.3215,4.3115,4.309,4.301,4.2955,4.2915,4.285,4.2729,4.2566,5.169,5.169,5.169,5.1556,5.1298,5.1298,5.1141,5.0918,5.0891,5.071,5.046,5.0331,5.0178,5.0022,5.0011,5.0011,5.0011,5.0011,4.986,4.9708,4.956,4.9398,4.9216,4.9094,4.9018,4.9018,4.9018,4.9018,4.9018,4.9052,4.9289,4.9864,5.0664,5.1242,5.1816,5.2435,5.2714,5.2472,5.1984,5.13,5.0535,5.0005,4.9525,4.9061,4.8614,4.8199,4.8034,4.8001,4.8001,4.8001,4.8001,4.8001,4.8001,4.8001,4.8001,4.8001,4.7968,4.7968,4.7968,4.7935,4.7886,4.782,4.7737,4.7754,4.7671,4.7604,4.7571,4.7554,4.7537,4.747,4.7319,4.7267,4.7149,4.6996,4.6842,4.6738,4.6598,4.6333,4.6076,4.5813,4.5698,4.5841,4.5834,4.6098,4.6102,4.6021,4.6137,4.6341,4.631,4.6202,4.6085,4.6014,4.56,4.5341,4.5357,4.5436,4.547,4.5533,4.5533,4.5455,4.5285,4.5049,4.4768,4.4383,4.4013,4.3768,4.3713,4.3529,4.3305,4.321,4.3115,4.3076,4.3036,4.2875,4.2795,5.169,5.169,5.169,5.1556,5.1298,5.1298,5.1141,5.0891,5.0891,5.071,5.0387,5.0166,5.0068,5.0011,5.0011,5.0011,5.0011,5.0011,4.986,4.9725,4.956,4.9381,4.9199,4.9094,4.9018,4.9018,4.9018,4.9018,4.9018,4.9018,4.9052,4.9272,5.0561,5.0986,5.1579,5.2421,5.2853,5.2729,5.2405,5.2019,5.1451,5.0969,5.0453,4.9458,4.9077,4.873,4.8084,4.8117,4.8034,4.8034,4.8001,4.8001,4.8001,4.8001,4.8001,4.8001,4.8001,4.8001,4.8001,4.8001,4.8001,4.7968,4.7968,4.7935,4.7869,4.7935,4.7869,4.7721,4.7704,4.7637,4.7537,4.7486,4.7385,4.738,4.7259,4.7073,4.6886,4.6598,4.6346,4.6079,4.6124,4.6363,4.6801,4.7045,4.7018,4.6936,4.7017,4.7236,4.7337,4.7243,4.7019,4.6796,4.6355,4.6102,4.6026,4.6137,4.6316,4.6377,4.6362,4.6221,4.6092,4.5828,4.5574,4.5322,4.498,4.4588,4.4252,4.4198,4.4028,4.3534,4.3295,4.3359,4.3285,4.313,4.3036,5.169,5.169,5.1632,5.1479,5.1298,5.1298,5.1141,5.0918,5.0891,5.071,5.0369,5.012,5.0011,5.0011,5.0011,5.0011,5.0011,5.0011,4.986,4.9725,4.953,4.9381,4.9229,4.9094,4.9018,4.9018,4.9018,4.9018,4.9018,4.9018,4.9373,4.9881,5.071,5.1033,5.161,5.2455,5.289,5.2868,5.2799,5.2529,5.231,5.1639,5.1155,5.0706,4.9923,4.9425,4.8829,4.8713,4.8415,4.815,4.805,4.805,4.8001,4.8001,4.8001,4.8034,4.8034,4.8084,4.8034,4.8034,4.8001,4.8001,4.8001,4.8001,4.8001,4.8001,4.7985,4.7902,4.7869,4.7803,4.7654,4.7654,4.7653,4.7746,4.7724,4.7588,4.7369,4.7114,4.6936,4.6805,4.6861,4.7028,4.7547,4.8075,4.7955,4.7831,4.7999,4.8101,4.811,4.8061,4.7775,4.7611,4.7189,4.7087,4.7041,4.7121,4.7202,4.7182,4.7137,4.7087,4.6935,4.6674,4.6429,4.6191,4.5949,4.552,4.5223,4.5112,4.4775,4.4253,4.3923,4.3753,4.3604,4.3494,4.3554,5.169,5.169,5.1538,5.1428,5.1281,5.1272,5.1114,5.0918,5.0891,5.071,5.0369,5.0138,5.0011,5.0011,5.0011,5.0011,5.0011,4.9964,4.9906,4.9772,4.9607,4.9411,4.926,4.9107,4.9018,4.9018,4.9018,4.9018,4.9018,4.9018,4.9407,5.005,5.0828,5.1202,5.1844,5.2606,5.3195,5.3041,5.2972,5.2955,5.2751,5.2313,5.1727,5.1492,5.0856,5.0256,4.9691,4.9409,4.9044,4.8647,4.8365,4.8233,4.81,4.8001,4.8001,4.8067,4.8199,4.8315,4.8299,4.8084,4.8034,4.8001,4.8001,4.8001,4.8017,4.8017,4.7985,4.8001,4.7968,4.7935,4.7803,4.8018,4.8215,4.8359,4.8602,4.8515,4.8178,4.7942,4.7748,4.7596,4.7837,4.8179,4.8365,4.8867,4.8748,4.8593,4.8496,4.8574,4.8553,4.8475,4.832,4.8217,4.8099,4.8076,4.8157,4.7985,4.7843,4.7889,4.7889,4.7954,4.7862,4.7524,4.7361,4.7213,4.6924,4.6457,4.6219,4.6046,4.5576,4.5006,4.4815,4.4669,4.4705,4.467,4.4509,5.169,5.169,5.1556,5.1428,5.1272,5.1158,5.1043,5.0891,5.0863,5.0682,5.0387,5.0109,5.0011,5.0011,5.0011,5.0011,5.0011,5.0011,4.9964,4.9877,4.9637,4.95,4.9367,4.9185,4.9018,4.9018,4.9018,4.9018,4.9018,4.9018,4.9441,5.0304,5.1166,5.1809,5.2334,5.3078,5.3365,5.323,5.3179,5.3076,5.2973,5.2804,5.2401,5.2032,5.166,5.1142,5.0542,5.0256,4.9857,4.926,4.9094,4.8812,4.8266,4.8183,4.815,4.815,4.8713,4.8995,4.9044,4.8431,4.8299,4.8349,4.8531,4.8415,4.8199,4.8117,4.815,4.8282,4.8067,4.8017,4.82,4.8547,4.8711,4.904,4.9284,4.9395,4.9073,4.8721,4.8527,4.8592,4.9187,4.9641,4.9601,4.9635,4.956,4.9358,4.9097,4.9021,4.8965,4.8883,4.8744,4.8661,4.862,4.8552,4.851,4.8537,4.8517,4.8578,4.8537,4.8438,4.8412,4.8171,4.8083,4.8118,4.7786,4.7256,4.7113,4.6974,4.6613,4.631,4.5955,4.5834,4.5844,4.5708,4.5385,5.1658,5.1556,5.1428,5.1316,5.1141,5.1132,5.1008,5.0873,5.0682,5.0499,5.0341,5.0109,5.0011,5.0011,5.0011,5.0011,5.0011,5.0011,5.0011,4.9935,4.9637,4.9547,4.9398,4.9185,4.9001,4.9018,4.9018,4.9018,4.9018,4.9018,4.9796,5.076,5.1877,5.279,5.3078,5.3433,5.3433,5.3416,5.3382,5.3348,5.328,5.3144,5.2941,5.2639,5.2468,5.2014,5.1379,5.1175,5.069,5.0091,4.9924,4.9509,4.8928,4.8763,4.873,4.873,4.9127,4.9359,4.9641,4.9574,4.9508,4.9475,4.9342,4.9326,4.9442,4.8961,4.8812,4.8597,4.8299,4.8183,4.8117,4.8696,4.9076,4.9638,4.9949,5.0126,4.9953,4.9567,4.9377,4.9619,5.0087,5.0231,5.0256,5.0189,5.0135,4.9916,4.9653,4.9331,4.925,4.9194,4.9072,4.9047,4.8965,4.8883,4.8841,4.88,4.8744,4.8702,4.8661,4.8563,4.8521,4.8578,4.8563,4.8486,4.828,4.8074,4.7967,4.7891,4.7952,4.7727,4.7272,4.6681,4.6387,4.6164,4.5855,5.1556,5.1428,5.1298,5.1167,5.1105,5.1052,5.0954,5.0846,5.0554,5.0397,5.0313,5.0092,5.0011,5.0011,5.0011,5.0011,5.0011,5.0011,5.0011,4.9935,4.9654,4.9547,4.9398,4.9185,4.9032,4.9018,4.9018,4.9018,4.9018,4.9018,4.9813,5.1183,5.2706,5.323,5.3467,5.3484,5.3518,5.3467,5.3467,5.3467,5.3433,5.3382,5.3298,5.3196,5.3026,5.2755,5.2351,5.1998,5.1661,5.1059,5.0691,5.0357,4.9825,4.9542,4.9526,4.9475,4.9806,5.022,5.08,5.0999,5.0966,5.0949,5.0585,5.0253,5.0171,4.9707,4.9558,4.9293,4.8779,4.8696,4.8779,4.9326,4.9673,5.0251,5.0797,5.0989,5.0789,5.0385,5.0342,5.0622,5.0717,5.0795,5.0811,5.0745,5.0711,5.0441,5.0168,4.9836,4.9557,4.9477,4.9437,4.9372,4.925,4.9169,4.9087,4.9006,4.8965,4.8867,4.8826,4.8769,4.8852,4.8949,4.8908,4.8826,4.8718,4.8671,4.879,4.879,4.8656,4.8538,4.8312,4.7691,4.6992,4.6814,4.6722,5.1428,5.1272,5.1158,5.1105,5.1079,5.0972,5.0918,5.0863,5.0554,5.0397,5.0369,5.0138,5.0011,5.0011,5.0011,5.0011,5.0011,5.0011,5.0011,4.9906,4.9637,4.9547,4.9398,4.9202,4.9049,4.9018,4.9018,4.9018,4.9018,4.9441,5.0202,5.1251,5.2756,5.3331,5.3518,5.3518,5.3518,5.3518,5.3518,5.3518,5.3467,5.3467,5.3433,5.3382,5.3264,5.3179,5.2959,5.2789,5.2418,5.2049,5.1764,5.1211,5.0776,5.0442,5.034,5.0454,5.0884,5.1512,5.1943,5.2026,5.2075,5.181,5.1082,5.0551,5.0386,5.0419,5.027,5.0021,4.9607,4.9773,4.9972,5.0204,5.0469,5.1115,5.1777,5.1758,5.1543,5.1388,5.1413,5.1464,5.1467,5.1496,5.1359,5.1296,5.1146,5.0994,5.0711,5.0441,5.0129,4.9773,4.9733,4.9653,4.9533,4.9356,4.9316,4.9275,4.9153,4.9072,4.9113,4.9113,4.9235,4.9235,4.9113,4.9113,4.9194,4.9235,4.9097,4.9097,4.9163,4.906,4.886,4.8686,4.8009,4.8137,4.8153,5.1272,5.1158,5.1105,5.1052,5.0972,5.0918,5.0891,5.0863,5.0554,5.0397,5.0387,5.0109,5.0011,5.0011,5.0011,5.0011,5.0011,5.0011,5.0011,4.9877,4.9666,4.9547,4.9398,4.9185,4.9063,4.9018,4.9018,4.9035,4.9272,4.9779,5.049,5.1371,5.2672,5.3264,5.3484,5.3518,5.3518,5.3518,5.3518,5.3518,5.3518,5.3518,5.3518,5.3467,5.3416,5.3382,5.3348,5.323,5.2892,5.2824,5.2637,5.2183,5.1479,5.1396,5.1311,5.1223,5.1684,5.221,5.2376,5.2409,5.2409,5.2409,5.186,5.1877,5.1628,5.1264,5.0982,5.0734,5.0353,5.0336,5.0518,5.0767,5.1015,5.1479,5.2078,5.2125,5.1943,5.194,5.1966,5.1891,5.1911,5.1802,5.1704,5.1684,5.152,5.1462,5.1275,5.0994,5.0689,5.0285,5.005,4.9971,4.9892,4.9773,4.9597,4.9557,4.9396,4.9275,4.9396,4.9477,4.9437,4.9437,4.9316,4.9396,4.9517,4.9437,4.9275,4.9356,4.9557,4.9356,4.9188,4.9163,4.9153,4.9072,4.9031,5.1141,5.1025,5.1025,5.0972,5.0918,5.0891,5.0863,5.0747,5.0499,5.0397,5.0359,5.0138,5.0011,5.0011,5.0011,5.0011,5.0011,5.0011,5.0011,4.9935,4.9696,4.9619,4.9471,4.926,4.9107,4.9063,4.9032,4.9018,4.9323,5.005,5.0811,5.1286,5.252,5.3095,5.3416,5.3518,5.3518,5.3518,5.3518,5.3518,5.3518,5.3518,5.3518,5.3518,5.3518,5.3518,5.3467,5.3348,5.3348,5.3314,5.3161,5.2908,5.2387,5.2302,5.2199,5.211,5.2204,5.2416,5.2464,5.2409,5.2409,5.2409,5.2409,5.2343,5.2227,5.1928,5.1812,5.1595,5.1098,5.0767,5.0999,5.1249,5.1498,5.1711,5.2061,5.2376,5.2393,5.2376,5.2321,5.2214,5.2122,5.1997,5.1977,5.1924,5.1851,5.1721,5.161,5.1483,5.1146,5.0711,5.0496,5.034,5.0301,5.0184,5.005,4.9916,4.9876,4.9852,4.9971,4.9971,4.9797,4.9797,4.9931,4.9892,4.9876,4.9797,4.9757,4.9836,4.9955,4.9773,4.9733,4.9812,4.9677,4.9396,4.9356,5.1016,5.0891,5.0891,5.0891,5.0891,5.0891,5.0774,5.0585,5.0453,5.0369,5.0331,5.0092,5.0011,5.0011,5.0011,5.0011,5.0011,5.0011,5.0011,4.9964,4.9784,4.9679,4.959,4.9394,4.926,4.9168,4.9138,4.9141,4.9266,4.9927,5.0723,5.1217,5.2012,5.2756,5.3416,5.3501,5.3518,5.3518,5.3518,5.3518,5.3518,5.3518,5.3518,5.3518,5.3518,5.3518,5.3518,5.3484,5.3518,5.3518,5.3467,5.3315,5.3162,5.2941,5.2889,5.2785,5.2679,5.2642,5.2605,5.2551,5.2445,5.2445,5.2409,5.2409,5.2326,5.2277,5.2177,5.2127,5.1612,5.1529,5.1711,5.173,5.1846,5.2028,5.226,5.2409,5.2409,5.2409,5.2373,5.2302,5.2302,5.2194,5.2158,5.2122,5.2086,5.1941,5.1831,5.1794,5.1594,5.1183,5.0956,5.0781,5.0628,5.055,5.0512,5.0418,5.0457,5.0496,5.0496,5.0418,5.0207,5.034,5.055,5.0418,5.0207,5.0379,5.0418,5.0379,5.0324,5.034,5.034,5.0496,5.0301,4.9916,4.9797,5.09,5.0891,5.0891,5.0891,5.0891,5.0891,5.0774,5.0585,5.0453,5.0341,5.0217,5.008,5.0011,5.0011,5.0011,5.0011,5.0011,5.0011,5.0011,4.9935,4.9813,4.9755,4.9696,4.953,4.9411,4.9411,4.9398,4.9277,4.9369,4.9933,5.06,5.1217,5.1894,5.2587,5.345,5.3518,5.3518,5.3518,5.3518,5.3518,5.3518,5.3518,5.3518,5.3518,5.3518,5.3518,5.3518,5.3518,5.3518,5.3518,5.3518,5.3467,5.3416,5.323,5.3144,5.3076,5.2938,5.285,5.2781,5.2676,5.257,5.2516,5.248,5.2445,5.2409,5.2409,5.2393,5.2343,5.2326,5.2326,5.2274,5.221,5.2144,5.2293,5.2409,5.2409,5.2409,5.2409,5.2409,5.2409,5.2409,5.2373,5.2318,5.2318,5.2318,5.2211,5.2102,5.203,5.1941,5.1684,5.1462,5.1275,5.0934,5.0858,5.0858,5.0858,5.088,5.0804,5.0765,5.0689,5.0666,5.0765,5.088,5.0666,5.055,5.0743,5.0804,5.0628,5.0573,5.0727,5.0765,5.088,5.0858,5.0518,5.0441,5.0891,5.0891,5.0891,5.0891,5.0891,5.0891,5.0747,5.0537,5.0425,5.0302,5.0103,5.0022,5.0011,5.0011,5.0011,5.0011,5.0011,5.0011,5.0011,4.9935,4.9889,4.986,4.9755,4.9666,4.9607,4.9607,4.9518,4.9462,4.9453,4.962,5.0173,5.1178,5.1824,5.2384,5.3281,5.3518,5.3518,5.3518,5.3518,5.3518,5.3518,5.3518,5.3518,5.3518,5.3518,5.3518,5.3518,5.3518,5.3518,5.3518,5.3518,5.3518,5.3467,5.3382,5.3332,5.3264,5.3161,5.3058,5.2972,5.2868,5.2729,5.2711,5.2676,5.264,5.2676,5.2676,5.2551,5.2466,5.2376,5.2376,5.2376,5.231,5.2293,5.2376,5.2409,5.2409,5.2409,5.2409,5.2409,5.2409,5.2409,5.2409,5.2373,5.2373,5.2338,5.2354,5.2247,5.2211,5.2175,5.2102,5.1921,5.1774,5.1424,5.1312,5.1387,5.1333,5.1296,5.1183,5.1032,5.1146,5.1221,5.1183,5.1146,5.107,5.107,5.1183,5.1183,5.1032,5.1108,5.1296,5.1258,5.1221,5.1146,5.1124,5.1108,5.0891,5.0891,5.0891,5.0891,5.0891,5.0863,5.0692,5.0443,5.0387,5.0217,5.0022,4.9993,5.0011,5.0011,5.0011,5.0011,5.0011,5.0011,5.0011,5.0011,4.9964,4.9935,4.9889,4.983,4.9801,4.9725,4.9683,4.9607,4.9535,4.9667,5.0138,5.1184,5.1668,5.1995,5.3061,5.3518,5.3518,5.3518,5.3518,5.3518,5.3518,5.3518,5.3518,5.3518,5.3518,5.3518,5.3518,5.3518,5.3518,5.3518,5.3518,5.3518,5.3518,5.3467,5.3467,5.3416,5.3348,5.3264,5.3195,5.3041,5.2972,5.2938,5.2938,5.2903,5.292,5.285,5.2711,5.2605,5.2516,5.2409,5.2409,5.2409,5.2409,5.2409,5.2409,5.2409,5.2409,5.2409,5.2409,5.2409,5.2409,5.2409,5.2409,5.2409,5.2409,5.2409,5.2409,5.2409,5.2373,5.2266,5.2122,5.205,5.1904,5.1868,5.1794,5.1704,5.1594,5.1557,5.1483,5.1668,5.1741,5.1594,5.152,5.1631,5.1668,5.1594,5.1631,5.152,5.1668,5.1741,5.1594,5.1483,5.1557,5.1557,5.1704,5.0891,5.0891,5.0891,5.0891,5.0891,5.0729,5.0564,5.0415,5.0302,5.0149,5.0022,5.0011,5.0011,5.0011,5.0011,5.0011,5.0011,5.0011,5.0011,5.0011,5.0011,5.0011,4.9964,4.9935,4.9935,4.9906,4.9848,4.9818,4.9696,4.9675,5.0222,5.1403,5.149,5.2092,5.323,5.3518,5.3518,5.3518,5.3518,5.3518,5.3518,5.3518,5.3518,5.3518,5.3518,5.3518,5.3518,5.3518,5.3518,5.3518,5.3518,5.3518,5.3518,5.3518,5.3518,5.3518,5.3433,5.3433,5.3348,5.323,5.3161,5.3127,5.3076,5.2989,5.2989,5.2972,5.2885,5.285,5.2711,5.2535,5.2516,5.2445,5.2409,5.2409,5.2409,5.2409,5.2409,5.2409,5.2409,5.2409,5.2409,5.2409,5.2409,5.2409,5.2409,5.2409,5.2409,5.2409,5.2409,5.2338,5.2302,5.2266,5.223,5.205,5.1868,5.1868,5.1815,5.1815,5.1815,5.1924,5.1888,5.1815,5.1815,5.1924,5.1888,5.1778,5.1815,5.1924,5.1868,5.1868,5.1815,5.1741,5.1851,5.1941,5.2013]}]]